[[{"header":{"parameterUnit":"m.s-1","parameterCategory":1,"la1":31.0,"la2":29.5877,"lo1":-88.7671,"lo2":-86.6584,"dy":0.0162,"dx":0.0185,"nx":115,"ny":88,"refTime":"2023-05-18T06:00:00:Z","depth":0,"parameterNumber":2,"parameterNumberName":"U-component_of_WINDS"},"data":[0.0,0.0,0.0,0.0,0.0,0.0,0.0,0.0,0.0,0.0,0.0,0.0,0.0,0.0,0.0,0.0,0.0,0.0,0.0,0.0,0.0,0.0,0.0,0.0,0.0,0.0,0.0,0.0,0.0,0.0,0.0,0.0,0.0,0.0,0.0,0.0,0.0,0.0,0.0,0.0,0.0,0.0,0.0,0.0,0.0,0.0,0.0,0.0,0.0,0.0,0.0,0.0,0.0,0.0,0.0,0.0,0.0,0.0,0.0,0.0,0.0,0.0,0.0,0.0,0.0,0.0,0.0,0.0,0.0,0.0,0.0,0.0,0.0,0.0,0.0,0.0,0.0,0.0,0.0,0.0,0.0,0.0,0.0,0.0,0.0,0.0,0.0,0.0,0.0,0.0,0.0,0.0,0.0,0.0,0.0,0.0,0.0,0.0,0.0,0.0,0.0,0.0,0.0,0.0,0.0,0.0,0.0,0.0,0.0,0.0,0.0,0.0,0.0,0.0,0.0,0.0,0.0,0.0,0.0,0.0,0.0,0.0,0.0,0.0,0.0,0.0,0.0,0.0,0.0,0.0,0.0,0.0,0.0,0.0,0.0,0.0,0.0,0.0,0.0,0.0,0.0,0.0,0.0,0.0,0.0,0.0,0.0,0.0,0.0,0.0,0.0,0.0,0.0,0.0,0.0,0.0,0.0,0.0,0.0,0.0,0.0,0.0,0.0,0.0,0.0,0.0,0.0,0.0,0.0,0.0,0.0,0.0,0.0,0.0,0.0,0.0,0.0,0.0,0.0,0.0,0.0,0.0,0.0,0.0,0.0,0.0,0.0,0.0,0.0,0.0,0.0,0.0,0.0,0.0,0.0,0.0,0.0,0.0,0.0,0.0,0.0,0.0,0.0,0.0,0.0,0.0,0.0,0.0,0.0,0.0,0.0,0.0,0.0,0.0,0.0,0.0,0.0,0.0,0.0,0.0,0.0,0.0,0.0,0.0,0.0,0.0,0.0,0.0,0.0,0.0,0.0,0.0,0.0,0.0,0.0,0.0,0.0,0.0,0.0,0.0,0.0,0.0,0.0,0.0,0.0,0.0,0.0,0.0,0.0,0.0,0.0,0.0,0.0,0.0,0.0,0.0,0.0,0.0,0.0,0.0,0.0,0.0,0.0,0.0,0.0,0.0,0.0,0.0,0.0,0.0,0.0,0.0,0.0,0.0,0.0,0.0,0.0,0.0,0.0,0.0,0.0,0.0,0.0,0.0,0.0,0.0,0.0,0.0,0.0,0.0,0.0,0.0,0.0,0.0,0.0,0.0,0.0,0.0,0.0,0.0,0.0,0.0,0.0,0.0,0.0,0.0,0.0,0.0,0.0,0.0,0.0,0.0,0.0,0.0,0.0,0.0,0.0,0.0,0.0,0.0,0.0,0.0,0.0,0.0,0.0,0.0,0.0,0.0,0.0,0.0,0.0,0.0,0.0,0.0,0.0,0.0,0.0,0.0,0.0,0.0,0.0,0.0,0.0,0.0,0.0,0.0,0.0,0.0,0.0,0.0,0.0,0.0,0.0,0.0,0.0,0.0,0.0,0.0,0.0,0.0,0.0,0.0,0.0,0.0,0.0,0.0,0.0,0.0,0.0,0.0,0.0,0.0,0.0,0.0,0.0,0.0,0.0,0.0,0.0,0.0,0.0,0.0,0.0,0.0,0.0,0.0,0.0,0.0,0.0,0.0,0.0,0.0,0.0,0.0,0.0,0.0,0.0,0.0,0.0,0.0,0.0,0.0,0.0,0.0,0.0,0.0,0.0,0.0,0.0,0.0,0.0,0.0,0.0,0.0,0.0,0.0,0.0,0.0,0.0,0.0,0.0,0.0,0.0,0.0,0.0,0.0,0.0,0.0,0.0,0.0,0.0,0.0,0.0,0.0,0.0,0.0,0.0,0.0,0.0,0.0,0.0,0.0,0.0,0.0,0.0,0.0,0.0,0.0,0.0,0.0,0.0,0.0,0.0,0.0,0.0,0.0,0.0,0.0,0.0,0.0,0.0,0.0,0.0,0.0,0.0,0.0,0.0,0.0,0.0,0.0,0.0,0.0,0.0,0.0,0.0,0.0,0.0,0.0,0.0,0.0,0.0,0.0,0.0,0.0,0.0,0.0,0.0,0.0,0.0,0.0,0.0,0.0,0.0,0.0,0.0,0.0,0.0,0.0,0.0,0.0,0.0,0.0,0.0,0.0,0.0,0.0,0.0,0.0,0.0,0.0,0.0,0.0,0.0,0.0,0.0,0.0,0.0,0.0,0.0,0.0,0.0,0.0,0.0,0.0,0.0,0.0,0.0,0.0,0.0,0.0,0.0,0.0,0.0,0.0,0.0,0.0,0.0,0.0,0.0,0.0,0.0,0.0,0.0,0.0,0.0,0.0,0.0,0.0,0.0,0.0,0.0,0.0,0.0,0.0,0.0,0.0,0.0,0.0,0.0,0.0,0.0,0.0,0.0,0.0,0.0,0.0,0.0,0.0,0.0,0.0,0.0,0.0,0.0,0.0,0.0,0.0,0.0,0.0,0.0,0.0,0.0,0.0,0.0,0.0,0.0,0.0,0.0,0.0,0.0,0.0,0.0,0.0,0.0,0.0,0.0,0.0,0.0,0.0,0.0,0.0,0.0,0.0,0.0,0.0,0.0,0.0,0.0,0.0,0.0,0.0,0.0,0.0,0.0,0.0,0.0,0.0,0.0,0.0,0.0,0.0,0.0,0.0,0.0,0.0,0.0,0.0,0.0,0.0,0.0,0.0,0.0,0.0,0.0,0.0,0.0,0.0,0.0,0.0,0.0,0.0,0.0,0.0,0.0,0.0,0.0,0.0,0.0,0.0,0.0,0.0,0.0,0.0,0.0,0.0,0.0,0.0,0.0,0.0,0.0,0.0,0.0,0.0,0.0,0.0,0.0,0.0,0.0,0.0,0.0,0.0,0.0,0.0,0.0,0.0,0.0,0.0,0.0,0.0,0.0,0.0,0.0,0.0,0.0,0.0,0.0,0.0,0.0,0.0,0.0,0.0,0.0,0.0,0.0,0.0,0.0,0.0,0.0,0.0,0.0,0.0,0.0,0.0,0.0,0.0,0.0,0.0,0.0,0.0,0.0,0.0,0.0,0.0,0.0,0.0,0.0,0.0,0.0,0.0,0.0,0.0,0.0,0.0,0.0,0.0,0.0,0.0,0.0,0.0,0.0,0.0,0.0,0.0,0.0,0.0,0.0,0.0,0.0,0.0,0.0,0.0,0.0,0.0,0.0,0.0,0.0,0.0,0.0,0.0,0.0,0.0,0.0,0.0,0.0,0.0,0.0,0.0,0.0,0.0,0.0,0.0,0.0,0.0,0.0,0.0,0.0,0.0,0.0,0.0,0.0,0.0,0.0,0.0,0.0,0.0,0.0,0.0,0.0,0.0,0.0,0.0,0.0,0.0,0.0,0.0,0.0,0.0,0.0,0.0,0.0,0.0,0.0,0.0,0.0,0.0,0.0,0.0,0.0,0.0,0.0,0.0,0.0,0.0,0.0,0.0,0.0,0.0,0.0,0.0,0.0,0.0,0.0,0.0,0.0,0.0,0.0,0.0,0.0,0.0,0.0,0.0,0.0,0.0,0.0,0.0,0.0,0.0,0.0,0.0,0.0,0.0,0.0,0.0,0.0,0.0,0.0,0.0,0.0,0.0,0.0,0.0,0.0,0.0,0.0,0.0,0.0,0.0,0.0,0.0,0.0,0.0,0.0,0.0,0.0,0.0,0.0,0.0,0.0,0.0,0.0,0.0,0.0,0.0,0.0,0.0,0.0,0.0,0.0,0.0,0.0,0.0,0.0,0.0,0.0,0.0,0.0,0.0,0.0,0.0,0.0,0.0,0.0,0.0,0.0,0.0,0.0,0.0,0.0,0.0,0.0,0.0,0.0,0.0,0.0,0.0,0.0,0.0,0.0,0.0,0.0,0.0,0.0,0.0,0.0,0.0,0.0,0.0,0.0,0.0,0.0,0.0,0.0,0.0,0.0,0.0,0.0,0.0,0.0,0.0,0.0,0.0,0.0,0.0,0.0,0.0,0.0,0.0,0.0,0.0,0.0,0.0,0.0,0.0,0.0,0.0,0.0,0.0,0.0,0.0,0.0,0.0,0.0,0.0,0.0,0.0,0.0,0.0,0.0,0.0,0.0,0.0,0.0,0.0,0.0,0.0,0.0,0.0,0.0,0.0,0.0,0.0,0.0,0.0,0.0,0.0,0.0,0.0,3.071,0.0,0.0,0.0,0.0,0.0,0.0,0.0,0.0,0.0,0.0,0.0,0.0,0.0,0.0,0.0,0.0,0.0,0.0,0.0,0.0,0.0,0.0,0.0,0.0,0.0,0.0,0.0,0.0,0.0,0.0,0.0,0.0,0.0,0.0,0.0,0.0,0.0,0.0,0.0,0.0,0.0,0.0,0.0,0.0,0.0,0.0,0.0,0.0,0.0,0.0,0.0,0.0,0.0,0.0,0.0,0.0,0.0,0.0,0.0,0.0,0.0,0.0,0.0,0.0,0.0,0.0,0.0,0.0,0.0,0.0,0.0,0.0,0.0,0.0,0.0,0.0,0.0,0.0,0.0,0.0,0.0,0.0,0.0,0.0,0.0,0.0,0.0,0.0,0.0,0.0,0.0,0.0,0.0,0.0,0.0,0.0,0.0,0.0,0.0,0.0,0.0,0.0,0.0,0.0,0.0,0.0,0.0,0.0,0.0,0.0,3.069,3.069,3.069,3.071,3.0695,0.0,0.0,0.0,0.0,0.0,0.0,0.0,0.0,0.0,0.0,0.0,0.0,0.0,0.0,0.0,0.0,0.0,0.0,0.0,0.0,0.0,0.0,0.0,0.0,0.0,0.0,0.0,0.0,0.0,0.0,0.0,0.0,0.0,0.0,0.0,0.0,0.0,0.0,0.0,0.0,0.0,0.0,0.0,0.0,0.0,0.0,0.0,0.0,0.0,0.0,0.0,0.0,0.0,0.0,0.0,0.0,0.0,0.0,0.0,0.0,0.0,0.0,0.0,0.0,0.0,0.0,0.0,0.0,0.0,0.0,0.0,0.0,0.0,0.0,0.0,0.0,0.0,0.0,0.0,0.0,0.0,0.0,0.0,0.0,0.0,0.0,0.0,0.0,0.0,0.0,0.0,0.0,0.0,0.0,0.0,0.0,0.0,0.0,0.0,0.0,0.0,0.0,0.0,0.0,0.0,0.0,0.0,0.0,0.0,0.0,0.0,0.0,3.0787,3.0703,3.0707,0.0,0.0,0.0,0.0,0.0,0.0,0.0,0.0,0.0,0.0,0.0,0.0,0.0,0.0,0.0,0.0,0.0,0.0,0.0,0.0,0.0,0.0,0.0,0.0,0.0,0.0,0.0,0.0,0.0,0.0,0.0,0.0,0.0,0.0,0.0,0.0,0.0,0.0,0.0,0.0,0.0,0.0,0.0,0.0,0.0,0.0,0.0,0.0,0.0,0.0,0.0,0.0,0.0,0.0,0.0,0.0,0.0,0.0,0.0,0.0,0.0,0.0,0.0,0.0,0.0,0.0,0.0,0.0,0.0,0.0,0.0,0.0,0.0,0.0,0.0,0.0,0.0,0.0,0.0,0.0,0.0,0.0,0.0,0.0,0.0,0.0,0.0,0.0,0.0,0.0,0.0,0.0,0.0,0.0,0.0,0.0,0.0,0.0,0.0,0.0,0.0,0.0,0.0,0.0,0.0,0.0,0.0,0.0,0.0,0.0,3.1045,3.1751,3.1084,0.0,3.071,0.0,0.0,0.0,0.0,0.0,0.0,0.0,0.0,0.0,0.0,0.0,0.0,0.0,0.0,0.0,0.0,0.0,0.0,0.0,0.0,0.0,0.0,0.0,0.0,0.0,0.0,0.0,0.0,0.0,0.0,0.0,0.0,0.0,0.0,0.0,0.0,0.0,0.0,0.0,0.0,0.0,0.0,0.0,0.0,0.0,0.0,0.0,0.0,0.0,0.0,0.0,0.0,0.0,0.0,0.0,0.0,0.0,0.0,0.0,0.0,0.0,0.0,0.0,0.0,0.0,0.0,0.0,0.0,0.0,0.0,0.0,0.0,0.0,0.0,0.0,0.0,0.0,0.0,0.0,0.0,0.0,0.0,0.0,0.0,0.0,0.0,0.0,0.0,0.0,0.0,0.0,0.0,0.0,0.0,0.0,0.0,0.0,0.0,0.0,0.0,0.0,0.0,0.0,0.0,0.0,0.0,0.0,0.0,0.0,0.0,3.1098,3.1935,3.1644,3.1216,0.0,0.0,0.0,0.0,0.0,0.0,0.0,0.0,0.0,0.0,0.0,0.0,0.0,0.0,0.0,0.0,0.0,0.0,0.0,0.0,0.0,0.0,0.0,0.0,0.0,0.0,0.0,0.0,0.0,0.0,0.0,0.0,0.0,0.0,0.0,0.0,0.0,0.0,0.0,0.0,0.0,0.0,0.0,0.0,0.0,0.0,0.0,0.0,0.0,0.0,0.0,0.0,0.0,0.0,0.0,0.0,0.0,0.0,0.0,0.0,0.0,0.0,0.0,0.0,0.0,0.0,0.0,0.0,0.0,0.0,0.0,0.0,0.0,0.0,0.0,0.0,0.0,0.0,0.0,0.0,0.0,0.0,0.0,0.0,0.0,0.0,0.0,0.0,0.0,0.0,0.0,0.0,0.0,0.0,0.0,0.0,0.0,0.0,0.0,0.0,0.0,0.0,0.0,0.0,0.0,0.0,0.0,0.0,0.0,0.0,3.1215,3.148,3.2289,3.2369,3.2059,3.139,0.0,0.0,0.0,0.0,0.0,0.0,0.0,0.0,0.0,0.0,0.0,0.0,0.0,0.0,0.0,0.0,0.0,0.0,0.0,0.0,0.0,0.0,0.0,0.0,0.0,0.0,0.0,0.0,0.0,0.0,0.0,0.0,0.0,0.0,0.0,0.0,0.0,0.0,0.0,0.0,0.0,0.0,0.0,0.0,0.0,0.0,0.0,0.0,0.0,0.0,0.0,0.0,0.0,0.0,0.0,0.0,0.0,0.0,0.0,0.0,0.0,0.0,0.0,0.0,0.0,0.0,0.0,0.0,0.0,0.0,0.0,0.0,0.0,0.0,0.0,0.0,0.0,0.0,0.0,0.0,0.0,0.0,0.0,0.0,0.0,0.0,0.0,0.0,0.0,0.0,0.0,0.0,0.0,0.0,0.0,0.0,0.0,0.0,0.0,0.0,0.0,0.0,0.0,0.0,0.0,0.0,0.0,0.0,3.3054,3.2439,3.2423,3.319,3.3244,3.3198,0.0,0.0,0.0,0.0,0.0,0.0,0.0,0.0,0.0,0.0,0.0,0.0,0.0,0.0,0.0,0.0,0.0,0.0,0.0,0.0,0.0,0.0,0.0,0.0,0.0,0.0,0.0,0.0,0.0,0.0,0.0,0.0,0.0,0.0,0.0,0.0,0.0,0.0,0.0,0.0,0.0,0.0,0.0,0.0,0.0,0.0,0.0,0.0,0.0,0.0,0.0,0.0,0.0,0.0,0.0,0.0,0.0,0.0,0.0,0.0,0.0,0.0,0.0,0.0,0.0,0.0,0.0,0.0,0.0,0.0,0.0,0.0,0.0,0.0,0.0,0.0,0.0,0.0,0.0,0.0,0.0,0.0,0.0,0.0,0.0,0.0,0.0,0.0,0.0,0.0,0.0,0.0,0.0,0.0,0.0,0.0,0.0,0.0,0.0,0.0,0.0,0.0,0.0,0.0,0.0,0.0,0.0,0.0,0.0,3.2539,3.3297,3.3573,3.3333,3.3784,3.3821,0.0,0.0,0.0,0.0,0.0,0.0,0.0,0.0,0.0,0.0,0.0,0.0,0.0,0.0,0.0,0.0,0.0,0.0,0.0,0.0,0.0,0.0,0.0,0.0,0.0,0.0,0.0,0.0,0.0,0.0,0.0,0.0,0.0,0.0,0.0,0.0,0.0,0.0,0.0,0.0,0.0,0.0,0.0,0.0,0.0,0.0,0.0,0.0,0.0,0.0,0.0,0.0,0.0,0.0,0.0,0.0,0.0,0.0,0.0,0.0,0.0,0.0,0.0,0.0,0.0,0.0,0.0,0.0,0.0,0.0,0.0,0.0,0.0,0.0,0.0,0.0,0.0,0.0,0.0,0.0,0.0,0.0,0.0,0.0,0.0,0.0,0.0,0.0,0.0,0.0,0.0,0.0,0.0,0.0,0.0,0.0,0.0,0.0,0.0,0.0,0.0,0.0,0.0,0.0,0.0,0.0,0.0,0.0,0.0,3.2928,0.0,3.4722,3.4168,3.4637,3.4678,0.0,0.0,0.0,0.0,0.0,0.0,0.0,0.0,0.0,0.0,0.0,0.0,0.0,0.0,0.0,0.0,0.0,0.0,0.0,0.0,0.0,0.0,0.0,0.0,0.0,0.0,0.0,0.0,0.0,0.0,0.0,0.0,0.0,0.0,0.0,0.0,0.0,0.0,0.0,0.0,0.0,0.0,0.0,0.0,0.0,0.0,0.0,0.0,0.0,0.0,0.0,0.0,0.0,0.0,0.0,0.0,0.0,0.0,0.0,0.0,0.0,0.0,0.0,0.0,0.0,0.0,0.0,0.0,0.0,0.0,0.0,0.0,0.0,0.0,0.0,0.0,0.0,0.0,0.0,0.0,0.0,0.0,0.0,0.0,0.0,0.0,0.0,0.0,0.0,0.0,0.0,0.0,0.0,0.0,0.0,0.0,0.0,0.0,0.0,0.0,0.0,0.0,0.0,0.0,0.0,0.0,0.0,0.0,3.2967,3.453,3.5425,3.5791,3.5781,3.5741,3.5776,0.0,0.0,0.0,0.0,0.0,0.0,0.0,0.0,0.0,0.0,0.0,0.0,0.0,0.0,0.0,0.0,0.0,0.0,0.0,0.0,0.0,0.0,0.0,0.0,0.0,0.0,0.0,0.0,0.0,0.0,0.0,0.0,0.0,0.0,0.0,0.0,0.0,0.0,0.0,0.0,0.0,0.0,0.0,0.0,0.0,0.0,0.0,0.0,0.0,0.0,0.0,0.0,0.0,0.0,0.0,0.0,0.0,0.0,0.0,0.0,0.0,0.0,0.0,0.0,0.0,0.0,0.0,0.0,0.0,0.0,0.0,0.0,0.0,0.0,0.0,0.0,0.0,0.0,0.0,0.0,0.0,0.0,0.0,0.0,0.0,0.0,0.0,0.0,0.0,0.0,0.0,0.0,0.0,0.0,0.0,0.0,0.0,0.0,0.0,0.0,0.0,0.0,0.0,0.0,0.0,0.0,0.0,0.0,0.0,3.5541,3.5741,3.5833,3.5795,3.5756,3.5737,0.0,0.0,0.0,0.0,0.0,0.0,0.0,0.0,0.0,0.0,0.0,0.0,0.0,0.0,0.0,0.0,0.0,0.0,0.0,0.0,0.0,0.0,0.0,0.0,0.0,0.0,0.0,0.0,0.0,0.0,0.0,0.0,0.0,0.0,0.0,0.0,0.0,0.0,0.0,0.0,0.0,0.0,0.0,0.0,0.0,0.0,0.0,0.0,0.0,0.0,0.0,0.0,0.0,0.0,0.0,0.0,0.0,0.0,0.0,0.0,0.0,0.0,0.0,0.0,0.0,0.0,0.0,0.0,0.0,0.0,0.0,0.0,0.0,0.0,0.0,0.0,0.0,0.0,0.0,0.0,0.0,0.0,0.0,0.0,0.0,0.0,0.0,0.0,0.0,0.0,0.0,0.0,0.0,0.0,0.0,0.0,0.0,0.0,0.0,0.0,0.0,0.0,0.0,0.0,0.0,0.0,0.0,0.0,0.0,3.599,3.5869,3.5803,3.5792,3.5745,3.5707,3.5737,0.0,0.0,0.0,0.0,0.0,0.0,0.0,0.0,0.0,0.0,0.0,0.0,0.0,0.0,0.0,0.0,0.0,0.0,0.0,0.0,0.0,0.0,0.0,0.0,0.0,0.0,0.0,0.0,0.0,0.0,0.0,0.0,0.0,0.0,0.0,0.0,0.0,0.0,0.0,0.0,0.0,0.0,0.0,0.0,0.0,0.0,0.0,0.0,0.0,0.0,0.0,0.0,0.0,0.0,0.0,0.0,0.0,0.0,0.0,0.0,0.0,0.0,0.0,0.0,0.0,0.0,0.0,0.0,0.0,0.0,0.0,0.0,0.0,0.0,0.0,0.0,0.0,0.0,0.0,0.0,0.0,0.0,0.0,0.0,0.0,0.0,0.0,0.0,0.0,0.0,0.0,0.0,0.0,0.0,0.0,0.0,0.0,0.0,0.0,0.0,0.0,0.0,0.0,0.0,0.0,0.0,0.0,0.0,3.601,3.5876,3.5806,3.5794,3.5728,3.5737,0.0,0.0,0.0,0.0,0.0,0.0,0.0,0.0,0.0,0.0,0.0,0.0,0.0,0.0,0.0,0.0,0.0,0.0,0.0,0.0,0.0,0.0,0.0,0.0,0.0,0.0,0.0,0.0,0.0,0.0,0.0,0.0,0.0,0.0,0.0,0.0,0.0,0.0,0.0,0.0,0.0,0.0,0.0,0.0,0.0,0.0,0.0,0.0,0.0,0.0,0.0,0.0,0.0,0.0,0.0,0.0,0.0,0.0,0.0,0.0,0.0,0.0,0.0,0.0,0.0,0.0,0.0,0.0,0.0,0.0,0.0,0.0,0.0,0.0,0.0,0.0,0.0,0.0,0.0,0.0,0.0,0.0,0.0,0.0,0.0,0.0,0.0,0.0,0.0,0.0,0.0,0.0,0.0,0.0,0.0,0.0,0.0,0.0,0.0,0.0,0.0,0.0,0.0,0.0,0.0,0.0,0.0,0.0,0.0,3.5994,3.5918,3.5887,3.5885,3.5764,3.5704,0.0,0.0,0.0,0.0,0.0,0.0,0.0,0.0,0.0,0.0,0.0,0.0,0.0,0.0,0.0,0.0,0.0,0.0,0.0,0.0,0.0,0.0,0.0,0.0,0.0,0.0,0.0,0.0,0.0,0.0,0.0,0.0,0.0,0.0,0.0,0.0,0.0,0.0,0.0,0.0,0.0,0.0,0.0,0.0,0.0,0.0,0.0,0.0,0.0,0.0,0.0,0.0,0.0,0.0,0.0,0.0,0.0,0.0,0.0,0.0,0.0,0.0,0.0,0.0,0.0,0.0,0.0,0.0,0.0,0.0,0.0,0.0,0.0,0.0,0.0,0.0,0.0,0.0,0.0,0.0,0.0,0.0,0.0,0.0,0.0,0.0,0.0,0.0,0.0,0.0,0.0,0.0,0.0,0.0,0.0,0.0,0.0,0.0,0.0,0.0,0.0,0.0,0.0,0.0,0.0,0.0,0.0,0.0,3.5623,3.5991,3.5948,3.5918,3.589,3.5805,3.5733,0.0,0.0,0.0,0.0,0.0,0.0,0.0,0.0,0.0,0.0,0.0,0.0,0.0,0.0,0.0,0.0,0.0,0.0,0.0,0.0,0.0,0.0,0.0,0.0,0.0,0.0,0.0,0.0,0.0,0.0,0.0,0.0,0.0,0.0,0.0,0.0,0.0,0.0,0.0,0.0,0.0,0.0,0.0,0.0,0.0,0.0,0.0,0.0,0.0,0.0,0.0,0.0,0.0,0.0,0.0,0.0,0.0,0.0,0.0,0.0,0.0,0.0,0.0,0.0,0.0,0.0,0.0,0.0,0.0,0.0,0.0,0.0,0.0,0.0,0.0,0.0,0.0,0.0,0.0,0.0,0.0,0.0,0.0,0.0,0.0,0.0,0.0,0.0,0.0,0.0,0.0,0.0,0.0,0.0,0.0,0.0,0.0,0.0,0.0,0.0,0.0,0.0,0.0,0.0,0.0,0.0,0.0,0.0,3.5115,3.5991,3.601,3.5984,3.5918,3.5838,3.5781,0.0,0.0,0.0,0.0,0.0,0.0,0.0,0.0,0.0,0.0,0.0,0.0,0.0,0.0,0.0,0.0,0.0,0.0,0.0,0.0,0.0,0.0,0.0,0.0,0.0,0.0,0.0,0.0,0.0,0.0,0.0,0.0,0.0,0.0,0.0,0.0,0.0,0.0,0.0,0.0,0.0,0.0,0.0,0.0,0.0,0.0,0.0,0.0,0.0,0.0,0.0,0.0,0.0,0.0,0.0,0.0,0.0,0.0,0.0,0.0,0.0,0.0,0.0,0.0,0.0,0.0,0.0,0.0,0.0,0.0,0.0,0.0,0.0,0.0,0.0,0.0,0.0,0.0,0.0,0.0,0.0,0.0,0.0,0.0,0.0,0.0,0.0,0.0,0.0,0.0,0.0,0.0,0.0,0.0,0.0,0.0,0.0,0.0,0.0,0.0,0.0,0.0,0.0,0.0,0.0,0.0,0.0,0.0,3.5115,3.5971,3.601,3.5977,3.5982,3.5908,3.5846,0.0,0.0,0.0,0.0,0.0,0.0,0.0,0.0,0.0,0.0,0.0,0.0,0.0,0.0,0.0,0.0,0.0,0.0,0.0,0.0,0.0,0.0,0.0,0.0,0.0,0.0,0.0,0.0,0.0,0.0,0.0,0.0,0.0,0.0,0.0,0.0,0.0,0.0,0.0,0.0,0.0,0.0,0.0,0.0,0.0,0.0,0.0,0.0,2.6474,0.0,0.0,0.0,0.0,0.0,0.0,0.0,0.0,0.0,0.0,0.0,0.0,0.0,0.0,0.0,0.0,0.0,0.0,0.0,0.0,0.0,0.0,0.0,0.0,0.0,0.0,0.0,0.0,0.0,0.0,0.0,0.0,0.0,0.0,0.0,0.0,0.0,0.0,0.0,0.0,0.0,0.0,0.0,0.0,0.0,0.0,0.0,0.0,0.0,0.0,0.0,0.0,0.0,0.0,0.0,0.0,0.0,0.0,0.0,3.5132,3.5971,3.601,3.601,3.5994,3.5937,3.5893,0.0,0.0,0.0,0.0,0.0,0.0,0.0,0.0,0.0,0.0,0.0,0.0,0.0,0.0,0.0,0.0,0.0,0.0,0.0,0.0,0.0,0.0,0.0,0.0,0.0,0.0,0.0,0.0,0.0,0.0,0.0,0.0,0.0,0.0,0.0,0.0,0.0,0.0,0.0,0.0,0.0,0.0,0.0,0.0,0.0,0.0,0.0,0.0,0.0,0.0,0.0,0.0,0.0,0.0,0.0,0.0,0.0,0.0,0.0,0.0,0.0,0.0,0.0,0.0,0.0,0.0,0.0,0.0,0.0,0.0,0.0,0.0,0.0,0.0,0.0,0.0,0.0,0.0,0.0,0.0,0.0,0.0,0.0,0.0,0.0,0.0,0.0,0.0,0.0,0.0,0.0,0.0,0.0,0.0,0.0,0.0,0.0,0.0,0.0,0.0,0.0,0.0,0.0,0.0,0.0,0.0,0.0,3.4131,3.4992,3.5971,3.601,3.601,3.6013,3.5953,3.5838,3.5718,0.0,0.0,0.0,0.0,0.0,0.0,0.0,0.0,0.0,0.0,0.0,0.0,0.0,0.0,0.0,0.0,0.0,0.0,0.0,0.0,0.0,0.0,0.0,0.0,0.0,0.0,0.0,0.0,0.0,0.0,0.0,0.0,0.0,0.0,0.0,0.0,0.0,0.0,2.6412,2.7059,0.0,0.0,0.0,0.0,0.0,0.0,0.0,0.0,2.6892,0.0,0.0,0.0,0.0,0.0,0.0,0.0,0.0,0.0,0.0,0.0,0.0,0.0,0.0,0.0,0.0,0.0,0.0,0.0,0.0,0.0,0.0,0.0,0.0,0.0,0.0,0.0,0.0,0.0,0.0,0.0,0.0,0.0,0.0,0.0,0.0,0.0,0.0,0.0,0.0,0.0,0.0,0.0,0.0,0.0,0.0,0.0,0.0,0.0,0.0,0.0,0.0,0.0,0.0,0.0,0.0,3.336,3.3526,3.439,3.5952,3.601,3.601,3.6013,3.5977,3.5638,3.498,0.0,0.0,0.0,0.0,0.0,0.0,0.0,0.0,0.0,0.0,0.0,0.0,0.0,0.0,0.0,0.0,0.0,0.0,0.0,0.0,0.0,0.0,0.0,0.0,0.0,0.0,0.0,0.0,0.0,0.0,0.0,0.0,0.0,0.0,0.0,0.0,0.0,0.0,0.0,2.9932,3.0043,0.0,0.0,0.0,0.0,0.0,0.0,0.0,0.0,2.692,0.0,0.0,0.0,0.0,0.0,0.0,0.0,0.0,0.0,0.0,0.0,0.0,0.0,0.0,0.0,0.0,0.0,0.0,0.0,0.0,0.0,0.0,0.0,0.0,0.0,0.0,0.0,0.0,0.0,0.0,0.0,0.0,0.0,0.0,0.0,0.0,0.0,0.0,0.0,0.0,0.0,0.0,0.0,0.0,0.0,0.0,0.0,0.0,0.0,0.0,0.0,0.0,0.0,0.0,0.0,3.4039,3.4917,3.5974,3.7234,3.7315,3.7315,3.734,3.6911,3.6259,0.0,0.0,0.0,0.0,0.0,0.0,0.0,0.0,0.0,0.0,0.0,0.0,0.0,0.0,0.0,0.0,0.0,0.0,0.0,0.0,0.0,0.0,0.0,0.0,0.0,0.0,0.0,0.0,0.0,0.0,0.0,0.0,0.0,0.0,0.0,0.0,0.0,0.0,0.0,0.0,3.0639,3.0894,3.1777,0.0,0.0,0.0,0.0,0.0,0.0,2.8164,2.7441,0.0,0.0,0.0,0.0,0.0,0.0,0.0,0.0,0.0,0.0,0.0,0.0,0.0,0.0,0.0,0.0,0.0,0.0,0.0,0.0,0.0,0.0,0.0,0.0,0.0,0.0,0.0,0.0,0.0,0.0,0.0,0.0,0.0,0.0,0.0,0.0,0.0,0.0,0.0,0.0,0.0,0.0,0.0,0.0,0.0,0.0,0.0,0.0,0.0,0.0,0.0,0.0,0.0,0.0,0.0,3.4948,3.6426,3.7639,3.8475,3.8514,3.8518,3.8564,3.79,3.6955,0.0,0.0,0.0,0.0,0.0,0.0,0.0,0.0,0.0,0.0,0.0,0.0,0.0,0.0,0.0,0.0,0.0,0.0,0.0,0.0,0.0,0.0,0.0,0.0,0.0,0.0,0.0,0.0,0.0,0.0,0.0,0.0,0.0,0.0,0.0,0.0,0.0,0.0,0.0,0.0,0.0,3.1775,3.2926,3.1899,0.0,0.0,0.0,0.0,2.993,2.9215,0.0,0.0,0.0,0.0,0.0,0.0,0.0,0.0,0.0,0.0,0.0,0.0,0.0,0.0,0.0,0.0,0.0,0.0,0.0,0.0,0.0,0.0,0.0,0.0,0.0,0.0,0.0,0.0,0.0,0.0,0.0,0.0,0.0,0.0,0.0,0.0,0.0,0.0,0.0,0.0,0.0,0.0,0.0,0.0,0.0,0.0,0.0,0.0,0.0,0.0,0.0,0.0,0.0,0.0,0.0,0.0,3.5714,3.6718,3.762,3.8463,3.8521,3.8521,3.8521,3.8404,3.7258,0.0,0.0,0.0,0.0,0.0,0.0,0.0,0.0,0.0,0.0,0.0,0.0,0.0,0.0,0.0,0.0,0.0,0.0,0.0,0.0,0.0,0.0,0.0,0.0,0.0,0.0,0.0,0.0,0.0,0.0,0.0,0.0,0.0,0.0,0.0,0.0,0.0,0.0,0.0,0.0,0.0,3.3691,3.3167,3.2868,3.2723,0.0,0.0,3.168,3.2436,3.1823,0.0,0.0,0.0,0.0,0.0,0.0,0.0,0.0,0.0,0.0,0.0,0.0,0.0,0.0,0.0,0.0,0.0,0.0,0.0,0.0,0.0,0.0,0.0,0.0,0.0,0.0,0.0,0.0,0.0,0.0,0.0,0.0,0.0,0.0,0.0,0.0,0.0,0.0,0.0,0.0,0.0,0.0,0.0,0.0,0.0,0.0,0.0,0.0,0.0,0.0,0.0,0.0,0.0,0.0,0.0,3.5427,3.664,3.799,3.9107,3.9936,3.9975,3.9975,3.9994,3.9492,3.8272,0.0,0.0,0.0,0.0,0.0,0.0,0.0,0.0,0.0,0.0,0.0,0.0,0.0,0.0,0.0,0.0,0.0,0.0,0.0,0.0,0.0,0.0,0.0,0.0,0.0,0.0,0.0,0.0,0.0,0.0,0.0,0.0,0.0,0.0,0.0,0.0,0.0,0.0,0.0,0.0,0.0,0.0,3.443,3.4045,0.0,0.0,0.0,3.3006,3.2947,0.0,0.0,0.0,0.0,0.0,0.0,0.0,0.0,0.0,0.0,0.0,0.0,0.0,0.0,0.0,0.0,0.0,0.0,0.0,0.0,0.0,0.0,0.0,0.0,0.0,0.0,0.0,0.0,0.0,0.0,0.0,0.0,0.0,0.0,0.0,0.0,0.0,0.0,0.0,0.0,0.0,0.0,0.0,0.0,0.0,0.0,0.0,0.0,0.0,0.0,0.0,0.0,0.0,0.0,0.0,0.0,0.0,3.7525,3.924,4.0435,4.1095,4.1109,4.1109,4.1095,4.0457,0.0,0.0,0.0,0.0,0.0,0.0,0.0,0.0,0.0,0.0,0.0,0.0,0.0,0.0,0.0,0.0,0.0,0.0,0.0,0.0,0.0,0.0,0.0,0.0,0.0,0.0,0.0,3.0716,0.0,0.0,0.0,0.0,0.0,0.0,0.0,0.0,0.0,0.0,0.0,0.0,0.0,0.0,3.3779,3.5071,3.4648,3.4249,0.0,0.0,3.3953,3.3576,3.3454,3.3101,0.0,0.0,0.0,0.0,0.0,0.0,0.0,0.0,0.0,0.0,0.0,0.0,0.0,0.0,0.0,0.0,0.0,0.0,0.0,0.0,0.0,0.0,0.0,0.0,0.0,0.0,0.0,0.0,0.0,0.0,0.0,0.0,0.0,0.0,0.0,0.0,0.0,0.0,0.0,0.0,0.0,0.0,0.0,0.0,0.0,0.0,0.0,0.0,0.0,0.0,0.0,0.0,0.0,0.0,0.0,3.8441,4.0136,4.1033,4.111,4.111,4.111,4.111,4.1052,3.9811,0.0,0.0,0.0,0.0,0.0,0.0,0.0,0.0,0.0,0.0,0.0,0.0,0.0,0.0,0.0,0.0,0.0,0.0,0.0,0.0,0.0,0.0,0.0,0.0,0.0,0.0,0.0,0.0,0.0,0.0,0.0,0.0,0.0,0.0,0.0,0.0,0.0,0.0,0.0,0.0,0.0,3.4226,3.4289,3.418,3.4385,0.0,0.0,3.4328,3.5028,3.5124,3.4792,3.3727,0.0,0.0,0.0,0.0,0.0,0.0,0.0,0.0,0.0,0.0,0.0,0.0,0.0,0.0,0.0,0.0,0.0,0.0,0.0,0.0,0.0,0.0,0.0,0.0,0.0,0.0,0.0,0.0,0.0,0.0,0.0,0.0,0.0,0.0,0.0,0.0,0.0,0.0,0.0,0.0,0.0,0.0,0.0,0.0,0.0,0.0,0.0,0.0,0.0,0.0,0.0,0.0,0.0,3.8043,3.8393,4.0085,4.0964,4.0987,4.1006,4.1003,4.096,4.1023,4.0291,0.0,0.0,0.0,0.0,0.0,0.0,0.0,0.0,0.0,0.0,0.0,0.0,0.0,0.0,0.0,0.0,0.0,0.0,0.0,0.0,0.0,0.0,0.0,0.0,0.0,0.0,0.0,0.0,3.244,3.2483,3.1599,0.0,0.0,0.0,0.0,0.0,0.0,0.0,0.0,0.0,0.0,3.4415,3.4918,3.4905,0.0,0.0,3.5047,3.4955,3.5258,3.5176,3.4927,3.4513,3.4261,0.0,0.0,0.0,0.0,0.0,0.0,0.0,0.0,0.0,0.0,0.0,0.0,0.0,0.0,0.0,0.0,0.0,0.0,0.0,0.0,0.0,0.0,0.0,0.0,0.0,0.0,0.0,0.0,0.0,0.0,0.0,0.0,0.0,0.0,0.0,0.0,0.0,0.0,0.0,0.0,0.0,0.0,0.0,0.0,0.0,0.0,0.0,0.0,0.0,0.0,0.0,0.0,3.8305,3.8305,4.0014,4.0896,4.0901,4.0949,4.0943,4.0888,4.0963,4.0535,0.0,0.0,0.0,0.0,0.0,0.0,0.0,0.0,0.0,0.0,0.0,0.0,0.0,0.0,0.0,0.0,0.0,0.0,0.0,0.0,0.0,0.0,0.0,0.0,0.0,0.0,0.0,0.0,3.2902,3.2739,3.2365,0.0,0.0,0.0,0.0,0.0,0.0,0.0,0.0,0.0,0.0,3.4815,3.5345,3.5296,3.5181,3.5184,3.5088,3.5034,3.5028,3.485,3.4701,3.4643,0.0,0.0,0.0,0.0,0.0,0.0,0.0,0.0,0.0,0.0,0.0,0.0,0.0,0.0,0.0,0.0,0.0,0.0,0.0,0.0,0.0,0.0,0.0,0.0,0.0,0.0,0.0,0.0,0.0,0.0,0.0,0.0,0.0,0.0,0.0,0.0,0.0,0.0,0.0,0.0,0.0,0.0,0.0,0.0,0.0,0.0,0.0,0.0,0.0,0.0,0.0,0.0,0.0,3.8305,3.8324,4.0014,4.0888,4.0888,4.0888,4.0907,4.0907,4.0888,4.0499,3.9625,0.0,0.0,0.0,0.0,0.0,0.0,0.0,0.0,0.0,0.0,0.0,0.0,0.0,0.0,0.0,0.0,0.0,0.0,0.0,0.0,0.0,0.0,0.0,0.0,0.0,0.0,3.2078,3.2004,3.2249,0.0,0.0,0.0,0.0,0.0,0.0,0.0,0.0,0.0,0.0,3.5451,3.5418,3.533,3.5057,3.4926,3.4907,3.4642,3.442,3.4444,3.4354,3.4221,0.0,0.0,0.0,0.0,0.0,0.0,0.0,0.0,0.0,0.0,0.0,0.0,0.0,0.0,0.0,0.0,0.0,0.0,0.0,0.0,0.0,0.0,0.0,0.0,0.0,0.0,0.0,0.0,0.0,0.0,0.0,0.0,0.0,0.0,0.0,0.0,0.0,0.0,0.0,0.0,3.8222,3.8214,0.0,0.0,0.0,0.0,0.0,0.0,0.0,0.0,0.0,0.0,0.0,0.0,3.8141,3.8294,3.996,4.0843,4.0843,4.0837,4.0837,4.0843,4.0837,4.0431,3.9548,0.0,0.0,0.0,0.0,0.0,0.0,0.0,0.0,0.0,0.0,0.0,0.0,0.0,0.0,0.0,0.0,0.0,0.0,0.0,0.0,0.0,0.0,0.0,0.0,0.0,3.3394,0.0,0.0,0.0,0.0,0.0,0.0,0.0,0.0,0.0,0.0,0.0,3.5124,3.5326,3.536,3.536,3.5324,3.5188,3.504,0.0,0.0,0.0,0.0,0.0,0.0,0.0,0.0,0.0,0.0,0.0,0.0,0.0,0.0,3.1456,3.0225,2.9999,2.9901,2.966,0.0,0.0,0.0,0.0,0.0,0.0,0.0,0.0,0.0,0.0,0.0,0.0,0.0,0.0,0.0,0.0,3.6328,0.0,0.0,0.0,0.0,0.0,0.0,0.0,0.0,3.8073,3.8511,3.9064,3.8967,3.894,0.0,3.8762,3.8762,0.0,0.0,0.0,0.0,0.0,0.0,0.0,0.0,3.8563,3.8702,4.0055,4.079,4.079,4.08,4.08,4.079,4.08,4.0541,3.9979,3.9652,3.9256,0.0,0.0,0.0,0.0,0.0,0.0,0.0,0.0,0.0,0.0,0.0,0.0,0.0,0.0,0.0,0.0,0.0,0.0,0.0,0.0,0.0,0.0,0.0,3.4088,0.0,0.0,0.0,0.0,0.0,0.0,0.0,0.0,0.0,3.4496,3.5023,3.5335,3.527,3.5266,3.5216,3.5107,0.0,0.0,0.0,0.0,0.0,0.0,0.0,3.3799,3.3789,3.3597,3.3481,3.3481,3.3422,3.3393,3.3393,0.0,0.0,3.1765,3.1538,3.1473,3.1174,3.1151,3.0974,3.0443,3.0352,3.0214,0.0,0.0,0.0,0.0,0.0,0.0,0.0,0.0,3.8268,3.8239,0.0,0.0,0.0,0.0,0.0,0.0,0.0,0.0,0.0,0.0,4.0191,4.0681,4.0648,4.0377,4.0334,4.0386,4.0296,4.0243,4.0185,3.855,0.0,0.0,0.0,0.0,0.0,0.0,3.9495,3.9495,4.0346,4.079,4.079,4.081,4.079,4.079,4.079,4.0771,4.0752,3.9987,3.9517,3.9458,3.7957,0.0,0.0,0.0,0.0,0.0,0.0,0.0,0.0,0.0,0.0,0.0,0.0,0.0,0.0,0.0,0.0,0.0,0.0,0.0,0.0,3.4284,0.0,0.0,0.0,0.0,0.0,0.0,0.0,0.0,0.0,0.0,3.5035,3.5171,3.5258,3.5174,0.0,0.0,0.0,0.0,3.4237,3.4049,3.3726,3.352,3.3502,3.3433,3.3393,3.3393,0.0,0.0,3.3393,3.3393,3.3393,3.3393,3.3393,3.3158,3.2379,3.2254,3.2,3.1302,3.1209,3.1071,3.1048,3.1046,3.1016,3.9088,0.0,0.0,0.0,0.0,3.7779,3.8012,3.8225,3.8252,3.8241,3.8194,3.7939,0.0,0.0,0.0,0.0,0.0,0.0,3.8601,3.9397,3.9595,4.0014,4.0602,4.0554,4.0519,4.053,4.0315,4.0264,4.0334,3.9642,3.9197,3.9,0.0,0.0,0.0,0.0,3.9331,3.9476,4.0243,4.0668,4.0668,4.0668,4.0648,4.0648,4.0668,4.0668,4.0668,4.043,4.0024,3.9445,3.8967,0.0,0.0,0.0,0.0,0.0,0.0,0.0,0.0,0.0,0.0,0.0,0.0,0.0,0.0,0.0,0.0,0.0,0.0,0.0,3.5187,3.5004,3.4611,0.0,0.0,0.0,0.0,0.0,0.0,0.0,0.0,0.0,3.4413,3.4696,3.4925,0.0,0.0,3.4523,3.4427,3.4306,3.4141,3.391,0.0,0.0,0.0,3.3422,3.3393,3.3393,3.3393,3.3393,3.3393,3.3393,3.3393,3.3393,3.3393,3.3321,3.3121,3.3049,3.2958,3.2759,3.2708,3.2526,3.1986,3.187,3.1653,4.0095,3.9129,3.8891,3.8756,3.8721,3.8702,3.8914,3.9243,3.9243,3.9212,3.9161,3.8832,3.8665,3.8666,3.8318,0.0,0.0,0.0,3.9022,3.9817,3.9817,4.0102,4.0559,4.0489,4.0438,4.045,4.0281,4.0229,4.0302,4.0157,3.9998,3.9874,0.0,0.0,3.9168,3.9548,3.9798,3.9893,4.0356,4.0588,4.0588,4.0588,4.0588,4.0588,4.0588,4.0588,4.0588,4.0588,4.0376,3.9893,3.9579,3.9141,0.0,0.0,0.0,0.0,0.0,0.0,0.0,0.0,0.0,0.0,0.0,3.3145,3.4017,0.0,0.0,0.0,3.4518,3.4982,3.547,3.5254,0.0,0.0,0.0,0.0,0.0,0.0,0.0,3.3655,3.4046,3.4362,3.4179,3.4292,3.443,3.4489,3.436,3.4223,3.4117,0.0,3.4311,3.3707,3.3872,3.3879,3.337,3.3316,3.3375,3.3382,3.3304,3.3298,3.3291,3.328,3.3286,3.3274,3.3165,3.3073,3.3086,3.2961,3.299,3.328,3.3327,3.3063,3.2498,3.2379,3.2146,4.0703,4.066,3.9895,3.9572,3.9591,3.9591,4.0036,4.0771,4.0771,4.0746,4.0642,3.987,3.9496,3.9455,3.8664,0.0,0.0,3.9394,3.9803,4.0489,4.0573,4.0588,4.0573,4.0334,4.0229,4.0229,4.0211,4.0175,4.0195,4.0175,4.0283,4.0523,4.0425,4.0419,4.0593,4.0588,4.0588,4.0588,4.0588,4.0588,4.0588,4.0588,4.0588,4.0588,4.0588,4.0588,4.0588,4.0588,4.0588,4.0568,3.9885,3.948,3.9455,0.0,0.0,0.0,0.0,0.0,0.0,0.0,0.0,0.0,0.0,0.0,0.0,0.0,0.0,0.0,3.5726,0.0,3.5595,3.5346,0.0,0.0,0.0,3.5964,3.5722,3.5792,3.544,3.4476,0.0,0.0,0.0,0.0,3.4057,3.4284,3.4266,3.4157,3.3899,3.4543,3.4666,3.3737,3.4045,3.4153,3.3435,3.3292,3.325,3.3232,3.3135,3.3045,3.2973,3.2978,3.3006,3.2961,3.2752,3.2555,3.2573,3.2282,3.2242,3.2996,3.3069,3.2913,3.2571,3.2486,3.2378,4.1576,4.1533,4.0679,4.0326,4.0345,4.0345,4.0461,4.0635,4.0635,4.0635,4.0602,4.0389,4.0318,4.0294,4.0053,4.0038,4.0215,4.0196,4.0312,4.0489,4.0523,4.0523,4.0523,4.0473,4.0422,4.0422,4.0286,4.0195,4.0177,3.9984,3.9924,3.9984,3.9944,4.0157,4.0569,4.0554,4.0519,4.0519,4.0519,4.0519,4.0519,4.0519,4.0519,4.0519,4.0519,4.0519,4.0519,4.0519,4.0519,4.0519,4.0346,4.0231,4.0231,3.9473,0.0,0.0,0.0,0.0,0.0,0.0,0.0,0.0,0.0,3.6562,3.7365,0.0,3.742,0.0,3.7337,3.7306,3.7309,3.7122,0.0,0.0,3.675,3.6515,3.6447,3.6337,3.614,3.579,3.5718,3.5648,3.5435,3.5387,3.5357,3.5381,3.487,3.4422,3.4324,3.4963,3.5335,3.5001,3.4632,3.4285,3.4029,3.3494,3.3086,3.2802,3.2755,3.2642,3.233,3.2284,3.2249,3.2249,3.2196,3.2162,3.2162,3.1986,3.1916,3.2109,3.2201,3.2264,3.2143,3.2142,3.2072,4.2437,4.2399,4.1917,4.1493,4.1123,4.0747,4.0588,4.0588,4.0588,4.0574,4.0579,4.0564,4.0569,4.0558,4.0523,4.0489,4.0489,4.0489,4.0489,4.0489,4.0489,4.0489,4.0489,4.0425,4.0375,4.0356,4.012,4.0022,4.0022,3.9794,3.9709,3.9797,3.9728,3.9859,4.0212,4.0339,4.0425,4.0489,4.0489,4.0489,4.0489,4.0489,4.0489,4.0489,4.0489,4.0489,4.0489,4.0489,4.0489,4.0489,4.0489,4.0489,4.0489,4.0085,4.0031,0.0,0.0,0.0,0.0,0.0,0.0,0.0,0.0,0.0,0.0,0.0,3.7936,0.0,3.7874,0.0,3.7852,3.7585,3.7524,3.7783,3.7488,3.7217,3.7132,3.6971,3.6691,3.6131,3.6004,3.5869,3.5738,3.5706,3.5674,3.5674,3.5602,3.5395,3.5066,3.5593,3.5939,3.5534,3.537,3.504,3.4397,3.3575,3.2898,3.2588,3.2488,3.2331,3.1962,3.1865,3.1854,3.1842,3.173,3.1585,3.1585,3.1384,3.1232,3.1232,3.1285,3.1407,3.1568,3.1594,3.1532,4.3258,4.3239,4.3143,4.2643,4.1912,4.1219,4.0786,4.0593,4.0593,4.0598,4.0592,4.0523,4.0489,4.0489,4.0489,4.0489,4.0489,4.0489,4.0489,4.0489,4.0489,4.0489,4.0489,4.0321,4.0233,4.0177,3.9922,3.9794,3.9772,3.9537,3.9537,3.9687,3.9556,3.9537,3.9754,3.9982,4.0232,4.0489,4.0489,4.0489,4.0489,4.0489,4.0489,4.0489,4.0489,4.0489,4.0508,4.0508,4.0508,4.0473,4.0489,4.0489,4.0508,4.0492,4.0492,0.0,4.0508,0.0,0.0,0.0,0.0,0.0,0.0,0.0,0.0,3.8161,3.8132,3.8137,3.8042,3.7982,3.7982,3.7657,3.775,3.8422,3.8197,3.7912,3.7718,3.7621,3.7234,3.6308,3.6041,3.5927,3.5981,3.5828,3.5831,3.5957,3.6425,3.6546,3.6059,3.6417,3.6572,3.5773,3.6166,3.5879,3.4561,3.3654,3.3044,3.2651,3.2371,3.216,3.1777,3.1579,3.1564,3.1513,3.1244,3.1044,3.1004,3.074,3.051,3.0551,3.0559,3.0664,3.0951,3.1078,3.0917,4.4083,4.4008,4.3374,4.2989,4.2854,4.2678,4.1828,4.0539,4.0519,4.0519,4.0504,4.0504,4.0489,4.0489,4.0489,4.0489,4.0489,4.0489,4.0489,4.0489,4.0489,4.0489,4.0489,4.0457,4.0356,4.0196,3.9922,3.9728,3.9556,3.9279,3.9192,3.9227,3.9192,3.9305,0.0,0.0,0.0,0.0,4.0489,4.0489,4.0489,4.0489,4.0489,4.0489,4.0489,0.0,4.0499,4.0499,4.0463,4.043,4.0476,0.0,0.0,0.0,0.0,0.0,0.0,0.0,0.0,0.0,0.0,0.0,3.9923,3.9846,3.9848,3.9546,3.9388,3.9432,3.9145,3.8939,3.8939,3.8865,3.8786,3.8683,3.8588,3.8419,3.8132,3.8085,3.7965,3.779,3.7636,3.7533,3.7478,3.75,3.7413,3.7343,3.7469,3.7451,3.7286,3.7379,3.7417,3.7184,3.672,3.5971,3.4711,3.4333,3.3892,3.3316,3.2559,3.2123,3.1736,3.118,3.0773,3.08,3.0676,3.0684,3.0667,3.0568,3.0543,3.0485,3.0485,3.0551,3.0592,3.0634,3.0576,4.4932,0.0,4.4509,4.4085,0.0,0.0,4.297,4.1797,4.1777,4.1546,4.1143,4.1143,4.0912,4.0489,4.0489,4.0489,4.0489,4.0489,4.0739,4.1143,4.1143,4.1373,4.1777,4.1637,4.153,4.1437,4.1197,4.0976,4.0729,4.0574,4.0458,4.0327,4.0317,4.0374,4.0495,4.0512,4.0443,4.025,4.0408,4.0476,4.0444,4.0444,4.0444,4.0444,0.0,0.0,0.0,0.0,0.0,0.0,0.0,0.0,0.0,0.0,0.0,4.0449,4.0415,4.0379,4.0362,4.0362,4.0344,4.0309,4.0252,4.0177,4.0023,3.9804,3.9652,3.9523,3.9314,3.9186,3.9186,3.9044,3.8886,3.873,3.8554,3.835,3.8241,3.8122,3.8088,3.8088,3.7949,3.7845,3.7845,3.781,3.7739,3.7739,3.7703,3.7667,3.7632,3.7667,3.7542,3.7273,3.6556,3.5799,3.4985,3.4449,3.4086,3.3396,3.2975,3.2613,3.2219,3.1824,3.1586,3.1603,3.1603,3.1586,3.1537,3.1323,3.1024,3.099,3.0733,3.0485,3.0468,3.0468,3.0468,4.5586,4.5586,4.5586,4.5182,4.4528,4.4528,4.4162,4.3508,0.0,0.0,0.0,4.2027,4.1623,4.0969,4.0966,4.0966,4.095,4.095,4.1335,4.2008,4.2027,4.2412,4.3085,4.2889,4.2757,4.2679,4.2514,4.2332,4.209,4.2013,4.1873,4.164,4.159,4.1579,4.1619,4.1651,4.1248,4.0374,4.052,4.0569,4.0398,4.0398,4.0398,4.0398,4.0398,4.0398,4.0398,4.0379,4.0398,4.0381,4.0381,4.0362,4.0379,4.0381,4.0362,4.0398,4.0381,4.0344,4.0308,4.0308,4.029,4.0272,4.0196,4.0024,3.9738,3.964,3.9458,3.9134,3.9043,3.9017,3.9017,3.877,3.8579,3.8579,3.8318,3.8158,3.8158,3.8054,3.8002,3.7949,3.7845,3.7685,3.7685,3.7631,3.7577,3.7577,3.7631,3.7558,3.7521,3.7445,3.7303,3.6825,3.6262,3.567,3.5206,3.4736,3.4055,3.3777,3.3523,3.3253,3.2974,3.28,3.268,3.2562,3.2685,3.263,3.2658,3.2197,3.1807,3.1769,3.1331,3.0892,3.0892,3.09,3.0858,4.5586,4.5586,4.5586,4.5528,4.5413,4.5413,4.5336,4.5105,4.372,4.3028,4.2912,4.2929,4.2832,4.272,4.2717,4.2736,4.2739,4.2739,4.2797,0.0,4.2931,4.297,4.3085,4.3088,4.2926,4.2699,4.2678,4.2536,4.2332,4.2115,4.1916,4.1836,4.1809,4.1919,4.1987,4.18,4.1696,4.1625,4.1282,4.0883,4.0417,4.0398,4.0398,4.0398,4.0417,4.0379,4.0325,4.0307,4.0308,4.031,4.031,4.0309,4.0307,4.0309,4.0309,4.0307,4.0309,4.0329,4.031,4.031,4.0272,4.0215,4.0098,3.9943,3.9716,3.9392,3.9073,3.8791,3.8536,3.8336,3.8303,3.8219,3.8135,3.8101,3.8002,3.7952,3.7952,3.7934,3.7916,3.7915,3.781,3.7685,3.7685,3.7631,3.7577,3.7577,3.7451,3.7431,3.7069,3.7021,3.6799,3.6423,3.6217,3.5951,3.5503,3.5464,3.5032,3.4755,3.4126,3.3748,3.3677,3.3197,3.2904,3.2733,3.2863,3.2829,3.2779,3.2658,3.2558,3.2531,3.2324,3.2253,3.2186,3.2157,3.1858,4.5586,4.5586,4.5586,4.5586,4.5586,4.5586,4.5586,4.5528,4.4797,4.4182,4.378,4.3758,4.3511,4.3109,4.309,4.3088,4.3085,4.3085,4.3316,4.372,4.3758,4.4008,4.4432,4.4451,4.4397,4.4287,4.4287,4.4154,4.3928,4.3753,4.3567,4.3371,4.3212,4.3203,4.3329,4.3071,4.2885,4.2787,4.2185,4.1711,4.1433,4.1609,4.1705,4.1686,4.1265,4.0978,4.0959,4.0539,4.031,4.0329,4.0329,4.031,4.0328,4.031,4.031,4.0328,4.031,4.0329,4.0329,4.0272,4.0234,4.0196,4.0058,3.9806,3.9429,3.9183,3.8939,3.8685,3.8389,3.8174,3.8088,3.8036,3.8002,3.7933,3.7934,3.7917,3.7917,3.7846,3.7792,3.7792,3.7685,3.7649,3.7631,3.7613,3.7503,3.7301,3.7035,3.667,3.6264,3.6198,3.6146,3.5919,3.588,3.5688,3.5318,3.5235,3.5118,3.4947,3.4618,3.4405,3.4376,3.4041,3.3912,3.3886,3.3912,3.3905,3.3856,3.3548,3.3367,3.3276,3.2921,3.2663,3.2359,3.2044,3.172,4.5586,4.5586,4.5586,4.5586,4.5586,4.5586,4.5586,4.5586,4.5586,4.524,4.4645,4.4607,4.4243,4.3688,4.3669,4.3667,4.3662,4.3662,4.3989,4.4547,4.4586,4.4951,4.5547,4.5586,4.5586,4.5586,4.5566,4.5475,4.5263,4.5144,4.4969,4.465,4.4318,4.4279,4.4493,4.424,4.4018,4.3848,4.3251,4.2743,4.2424,4.2675,4.2794,4.2756,4.2144,4.1781,4.1762,4.1189,4.0788,4.0597,4.0578,4.0501,4.0329,4.0329,4.0329,4.0329,4.0329,4.0329,4.0291,4.0215,4.0157,4.0176,3.9996,3.9686,3.925,3.902,3.8773,3.8492,3.8249,3.8106,3.8002,3.7949,3.7898,3.7846,3.7864,3.7828,3.7828,3.7721,3.7667,3.7685,3.7631,3.7559,3.7487,3.745,3.7243,3.6773,3.6355,3.5958,3.5674,3.5522,3.5421,3.5453,3.5464,3.5299,3.4994,3.4947,3.4947,3.4899,3.4883,3.4833,3.4833,3.4866,3.4883,3.4816,3.4849,3.4767,3.4816,3.4457,3.4096,3.4008,3.3571,3.293,3.2434,3.2029,3.1629,4.5586,4.5586,4.5586,4.5586,4.5586,4.5586,4.5586,4.5586,4.5586,4.5547,4.5432,4.549,4.5413,4.5393,4.5297,4.5278,4.5278,4.5355,4.5355,4.5413,4.547,4.5528,4.5586,4.5586,4.5586,4.5586,4.5528,4.5493,4.5419,4.5227,4.4906,4.4553,4.4411,4.4493,4.472,4.4511,4.4455,4.4662,4.4611,4.3988,4.283,4.2774,4.2794,4.2794,4.2737,4.2679,4.2679,4.2603,4.2183,4.1476,4.1399,4.1055,4.0444,4.0329,4.0329,4.0329,4.0329,4.0329,4.0291,4.0195,4.0117,4.0077,3.9781,3.9515,3.9425,3.8941,3.8465,3.816,3.8056,3.802,3.7934,3.7828,3.7739,3.7739,3.7685,3.7613,3.7631,3.7613,3.7613,3.7613,3.7541,3.7452,3.7057,3.6938,3.6764,3.6357,3.5897,3.5633,3.5531,3.5228,3.503,3.4991,3.4977,3.4977,3.4899,3.4899,3.4899,3.4899,3.4899,3.4883,3.4866,3.4818,3.4899,3.4578,3.4739,3.4739,3.4787,3.4833,3.4671,3.4347,3.4006,3.368,3.3193,3.2844,3.2447,4.5586,4.5586,4.5586,4.5586,4.5586,4.5586,4.5586,4.5586,4.5586,4.5586,4.5586,4.5586,4.5586,4.5586,4.5586,4.5586,4.5586,4.5586,4.5586,4.5586,4.5586,4.5566,4.555,4.5605,4.5568,4.5495,4.5491,4.5473,4.5419,4.5343,4.5163,4.4976,4.4745,4.4795,4.5045,4.4795,4.4795,4.5087,4.509,4.4744,4.4091,4.4183,4.4284,4.4227,4.3787,4.3501,4.3463,4.3061,4.2641,4.2297,4.2259,4.1896,4.1036,4.0998,4.0788,4.0387,4.0329,4.0272,4.0253,4.0157,4.0015,3.9845,3.9623,3.9346,3.9002,3.8728,3.8428,3.8086,3.8088,3.8072,3.7934,3.7846,3.7775,3.7703,3.7613,3.7577,3.7577,3.7577,3.7505,3.7218,3.7195,3.7013,3.6571,3.6282,3.6061,3.583,3.548,3.5227,3.5178,3.5024,3.4947,3.4899,3.4899,3.4899,3.4899,3.4899,3.4899,3.4899,3.4899,3.4866,3.4475,3.4431,3.4333,3.4002,3.3986,3.3986,3.3834,3.3922,3.3858,3.3824,3.3492,3.3013,3.2787,3.2443,3.1879,4.5586,4.5586,4.5586,4.5586,4.5586,4.5586,4.5586,4.5586,4.5586,4.5586,4.5586,4.5586,4.5586,4.5586,4.5586,4.5586,4.5586,4.5605,4.5586,4.5586,4.5568,4.5532,4.5513,4.5513,4.5495,4.54,4.5437,4.5419,4.5361,4.536,4.5298,4.5154,4.5023,4.5023,4.5132,4.4981,4.5023,4.5132,4.5235,4.5109,4.4776,4.5,4.5173,4.5115,4.4475,4.4173,4.4321,4.3725,4.3268,4.3138,4.3119,4.2756,4.1915,4.1628,4.1151,4.0387,4.0196,4.0118,4.0078,3.9935,3.9739,3.9483,3.9338,3.908,3.8711,3.8548,3.8364,3.8117,3.8104,3.8054,3.7899,3.7864,3.7793,3.7613,3.7577,3.7577,3.7411,3.7411,3.7234,3.6788,3.6696,3.6566,3.6107,3.5685,3.5414,3.5391,3.5102,3.4899,3.4899,3.4899,3.4899,3.4899,3.4899,3.4899,3.4899,3.4899,3.4868,3.4693,3.466,3.443,3.4021,3.386,3.3834,3.3561,3.3303,3.3266,3.3407,3.3316,3.3085,3.2961,3.2688,3.233,3.2182,3.1775,3.1584,4.5586,4.5586,4.5586,4.5586,4.5586,4.5586,4.5586,4.5586,4.5586,4.5586,4.5586,4.5586,4.5586,4.5586,4.5586,4.5586,4.5586,4.555,4.555,4.5586,4.5476,4.5438,4.5495,4.5438,4.54,4.54,4.54,4.5361,4.5317,4.5317,4.5132,4.4868,4.5109,4.5129,4.4957,4.5151,4.5109,4.4891,4.5109,4.5,4.4519,4.4695,4.48,4.4776,4.4516,4.4607,4.5055,4.4886,4.4444,4.3977,4.3939,4.3557,4.2774,4.1953,4.1113,4.0425,3.9958,3.9731,3.9705,3.9408,3.9178,3.9072,3.8857,3.8621,3.8559,3.836,3.8241,3.8192,3.807,3.7967,3.7739,3.7703,3.7685,3.7559,3.7577,3.7374,3.6978,3.6939,3.6738,3.6353,3.6202,3.6019,3.5664,3.5191,3.5055,3.4977,3.4947,3.4899,3.4899,3.4899,3.4899,3.4899,3.4899,3.4899,3.4899,3.4804,3.4595,3.4279,3.405,3.3924,3.3533,3.3203,3.3175,3.316,3.2967,3.298,3.3145,3.3066,3.2798,3.2591,3.246,3.2151,3.1787,3.1627,3.1467,4.5586,4.5586,4.5586,4.5586,4.5586,4.5586,4.5586,4.5586,4.5586,4.5586,4.5586,4.5586,4.5586,4.5586,4.5586,4.5568,4.5531,4.555,4.5568,4.5531,4.5495,4.5438,4.5438,4.5419,4.5361,4.5341,4.5381,4.5361,4.5298,4.5277,4.5235,4.5154,4.5235,4.5235,4.5173,4.5235,4.5132,4.4825,4.4934,4.4695,4.421,4.425,4.4279,4.4308,4.4374,4.4493,4.472,4.4599,4.4448,4.4241,4.4431,4.414,4.3285,4.1996,4.1121,4.0777,3.9962,3.9451,3.9421,3.9249,3.9008,3.8818,3.8688,3.8504,3.8382,3.8256,3.8192,3.8192,3.8174,3.7933,3.7523,3.7577,3.7541,3.7243,3.715,3.6939,3.6603,3.6422,3.629,3.5896,3.5591,3.5299,3.5241,3.4977,3.4899,3.4899,3.4899,3.4899,3.4899,3.4899,3.4851,3.4851,3.4578,3.435,3.4393,3.4382,3.4233,3.3777,3.3475,3.3216,3.2859,3.2725,3.2669,3.2353,3.2277,3.2302,3.2351,3.2296,3.2133,3.2078,3.1931,3.1891,3.1552,3.1524,3.1467,4.5586,4.5586,4.5586,4.5586,4.5586,4.5586,4.5586,4.5586,4.5586,4.5586,4.5586,4.5586,4.5586,4.5586,4.5586,4.555,4.5495,4.5532,4.5532,4.5495,4.5457,4.5419,4.54,4.5381,4.536,4.5317,4.536,4.5341,4.5317,4.5277,4.5277,4.5297,4.5277,4.5277,4.5277,4.5213,4.5,4.4745,4.4676,4.4383,4.3923,4.3923,4.3942,4.3878,4.4011,4.4231,4.4402,4.4318,4.4318,4.443,4.4572,4.4298,4.3404,4.2389,4.1501,4.0944,4.0064,3.9378,3.9156,3.8915,3.87,3.851,3.8446,3.8368,3.8225,3.8192,3.8192,3.8192,3.802,3.7703,3.7358,3.7246,3.7094,3.6724,3.6684,3.6481,3.6105,3.602,3.5805,3.545,3.5119,3.4961,3.4899,3.4899,3.4899,3.4899,3.4752,3.4655,3.4658,3.4464,3.4366,3.4317,3.4002,3.374,3.3528,3.3438,3.3441,3.3076,3.2942,3.2632,3.2392,3.225,3.2064,3.1682,3.1467,3.1467,3.1467,3.1467,3.1467,3.1467,3.1595,3.1607,3.1524,3.1524,3.1467,4.5586,4.5586,4.5586,4.5586,4.5586,4.5586,4.5586,4.5586,4.5586,4.5586,4.5586,4.5586,4.5586,4.5586,4.5586,4.5532,4.5419,4.5419,4.5457,4.5476,4.538,4.536,4.54,4.532,4.5298,4.5277,4.5277,4.5277,4.5297,4.5277,4.5277,4.5277,4.5277,4.5256,4.5256,4.5,4.4695,4.4465,4.4383,4.4114,4.3615,4.3814,4.3814,4.3548,4.3548,4.3791,4.4346,4.4121,4.4091,4.4299,4.4374,4.3989,4.3369,4.2986,4.2366,4.1076,4.029,3.9593,3.8925,3.8496,3.8307,3.8241,3.8207,3.8225,3.8225,3.8158,3.8158,3.8072,3.7685,3.7321,3.7058,3.6724,3.6416,3.6232,3.6207,3.6037,3.5705,3.5571,3.5436,3.5021,3.4947,3.4899,3.4899,3.4805,3.4757,3.4593,3.4378,3.4087,3.402,3.3726,3.3314,3.3303,3.3287,3.3124,3.2729,3.2408,3.2425,3.2418,3.2369,3.221,3.1916,3.1739,3.1796,3.1467,3.1467,3.1467,3.1467,3.1467,3.1467,3.1467,3.1467,3.1467,3.1467,3.1467,3.1467,4.5586,4.5586,4.5586,4.5586,4.5586,4.5586,4.5586,4.5586,4.5586,4.5586,4.5586,4.5586,4.5586,4.5586,4.5568,4.5495,4.54,4.54,4.5419,4.54,4.5379,4.5398,4.5399,4.5338,4.5277,4.5277,4.5277,4.5277,4.5277,4.5277,4.5277,4.5277,4.5277,4.5173,4.4976,4.4843,4.4591,4.4181,4.4121,4.3923,4.3548,4.3582,4.3582,4.3513,4.3479,4.3615,4.3758,4.3716,4.3697,4.3809,4.3999,4.408,4.3887,4.3249,4.2592,4.1994,4.0548,3.9658,3.9333,3.8645,3.8192,3.8192,3.8192,3.8192,3.814,3.7898,3.7756,3.7685,3.7283,3.6882,3.6381,3.619,3.5994,3.582,3.5776,3.5616,3.5241,3.5131,3.5071,3.4947,3.4899,3.4756,3.4448,3.4347,3.4191,3.3853,3.3648,3.347,3.3415,3.3255,3.3201,3.3181,3.2942,3.2586,3.2369,3.2149,3.211,3.2254,3.2249,3.2175,3.1802,3.1674,3.1644,3.1467,3.1467,3.1467,3.1467,3.1467,3.1467,3.1467,3.1467,3.1467,3.1467,3.1467,3.1467,4.5586,4.5586,4.5586,4.5586,4.5586,4.5586,4.5586,4.5586,4.5586,4.5586,4.5586,4.5586,4.5587,4.5569,4.5532,4.5438,4.5419,4.5419,4.538,4.5379,4.5398,4.5398,4.5398,4.5337,4.5277,4.5277,4.5277,4.5277,4.5297,4.5173,4.5109,4.5109,4.5019,4.4862,4.4669,4.4519,4.4327,4.4017,4.386,4.3716,4.3548,4.3479,4.3479,4.3479,4.3479,4.3479,4.3479,4.3479,4.3479,4.3513,4.3716,4.3905,4.3967,4.3386,4.2852,4.2271,4.1075,3.9932,3.9586,3.8725,3.8192,3.8192,3.8192,3.8106,3.7933,3.7632,3.7469,3.7246,3.69,3.6457,3.6079,3.5749,3.5588,3.5424,3.5379,3.5195,3.493,3.4703,3.4624,3.4528,3.4379,3.4137,3.3901,3.3741,3.3612,3.3261,3.3001,3.2894,3.2839,3.2665,3.2653,3.253,3.2247,3.2053,3.2026,3.1951,3.1855,3.2065,3.2273,3.2238,3.2058,3.2047,3.2018,3.1644,3.1467,3.1467,3.1467,3.1467,3.1467,3.1467,3.1467,3.1467,3.1467,3.1467,3.1467,4.5586,4.5586,4.5586,4.5586,4.5586,4.5586,4.5586,4.5586,4.5586,4.5586,4.5586,4.5586,4.5569,4.5534,4.5495,4.5458,4.5419,4.54,4.538,4.5359,4.5379,4.5399,4.5398,4.5317,4.5297,4.5277,4.5256,4.5235,4.5194,4.4953,4.4776,4.477,4.4591,4.4383,4.4346,4.414,4.4017,4.391,4.3649,4.3513,4.3479,4.3479,4.3479,4.3479,4.3479,4.3479,4.3479,4.3479,4.3479,4.3479,4.3513,4.3548,4.3513,4.3479,4.3109,4.2485,4.1455,4.055,3.9717,3.8909,3.8267,3.8124,3.8072,3.7967,3.7542,3.7358,3.717,3.686,3.6474,3.6199,3.5941,3.5605,3.5274,3.5058,3.4994,3.4947,3.4818,3.4378,3.4169,3.4022,3.3567,3.3177,3.3214,3.316,3.3089,3.2944,3.2582,3.2361,3.2244,3.2016,3.167,3.1567,3.1739,3.1694,3.1743,3.1747,3.1781,3.2542,3.2691,3.2662,3.2465,3.2407,3.2317,3.187,3.1614,3.1599,3.1482,3.1482,3.1482,3.1467,3.1467,3.1467,3.1467,3.1467,3.1467,4.5586,4.5586,4.5586,4.5586,4.5586,4.5586,4.5586,4.5586,4.5586,4.5586,4.5586,4.5586,4.5605,4.555,4.5476,4.5438,4.5458,4.5419,4.5419,4.5379,4.54,4.5361,4.5319,4.5317,4.5277,4.5256,4.5065,4.4934,4.491,4.4643,4.4493,4.4493,4.4411,4.426,4.4121,4.4017,4.3878,4.3649,4.3548,4.3479,4.3479,4.3479,4.3479,4.3479,4.3479,4.3479,4.3479,4.3479,4.3479,4.3479,4.3479,4.3479,4.3479,4.3479,4.3369,4.3023,4.2223,4.1318,4.0482,3.9563,3.8686,3.7775,3.7739,3.7523,3.7094,3.6781,3.6597,3.6367,3.6045,3.5756,3.5639,3.5429,3.5041,3.4546,3.4594,3.4643,3.4382,3.4186,3.3958,3.3515,3.3291,3.2998,3.2686,3.2553,3.2467,3.2114,3.1931,3.1814,3.1766,3.1739,3.1467,3.1467,3.1582,3.1524,3.1509,3.1509,3.19,3.293,3.3289,3.3287,3.305,3.2825,3.2632,3.2258,3.2003,3.1957,3.1689,3.1526,3.1497,3.1631,3.1482,3.1482,3.1467,3.1467,3.1467,4.5586,4.5586,4.5586,4.5586,4.5586,4.5586,4.5586,4.5586,4.5586,4.5586,4.5586,4.5586,4.5566,4.5547,4.5457,4.54,4.5457,4.5419,4.5419,4.536,4.522,4.5178,4.5216,4.5194,4.5087,4.5065,4.477,4.4669,4.4617,4.4374,4.425,4.4173,4.4084,4.3918,4.3795,4.3781,4.3716,4.3513,4.3479,4.3479,4.3479,4.3479,4.3479,4.3479,4.3479,4.3479,4.3479,4.3479,4.3479,4.3479,4.3479,4.3479,4.3479,4.3479,4.3479,4.3461,4.2589,4.1825,4.1174,4.0038,3.8852,3.8077,3.7644,3.7073,3.6719,3.6409,3.6259,3.6002,3.5756,3.5594,3.5458,3.5165,3.4561,3.3951,3.4002,3.4068,3.3732,3.3478,3.3243,3.2949,3.2634,3.2394,3.2053,3.2007,3.1877,3.1642,3.1625,3.1552,3.1524,3.1467,3.1467,3.1467,3.1467,3.1467,3.1467,3.1467,3.2078,3.3095,3.3948,3.3976,3.3767,3.3406,3.3109,3.2841,3.2541,3.2287,3.2168,3.2019,3.2004,3.1989,3.1721,3.1584,3.1584,3.182,3.1732,4.5586,4.5586,4.5586,4.5586,4.5586,4.5586,4.5586,4.5586,4.5586,4.5586,4.5586,4.5586,4.5566,4.5509,4.5457,4.5419,4.5438,4.5419,4.54,4.53,4.5071,4.4981,4.5132,4.4887,4.4795,4.4745,4.4493,4.4355,4.4289,4.4109,4.3974,4.3892,4.3664,4.3548,4.3548,4.3513,4.3479,4.3479,4.3479,4.3479,4.3479,4.3479,4.3479,4.3479,4.3479,4.3479,4.3479,4.3479,4.3479,4.3479,4.3479,4.3479,4.3479,4.3479,4.3479,4.3371,4.2772,4.2175,4.165,4.0058,3.8772,3.8312,3.7365,3.6678,3.6326,3.6174,3.6002,3.5711,3.5639,3.5532,3.5287,3.4769,3.402,3.3355,3.3198,3.3145,3.2961,3.2619,3.2398,3.2266,3.1811,3.1582,3.1467,3.1467,3.1524,3.1569,3.1467,3.1467,3.1467,3.1467,3.1467,3.1467,3.1467,3.1467,3.1467,3.1467,3.2302,3.32,3.4247,3.4637,3.4457,3.4158,3.3769,3.3486,3.3124,3.3035,3.3095,3.2915,3.2691,3.2527,3.2435,3.209,3.185,3.2161,3.2279,4.5586,4.5586,4.5586,4.5586,4.5586,4.5586,4.5586,4.5586,4.5586,4.5586,4.5586,4.5586,4.5586,4.5566,4.5494,4.5513,4.5532,4.5495,4.5457,4.5341,4.4985,4.4843,4.4843,4.4599,4.4493,4.443,4.4192,4.4091,4.4017,4.3795,4.3615,4.3582,4.3582,4.3479,4.3479,4.3479,4.3479,4.3479,4.3479,4.3479,4.3479,4.3479,4.3479,4.3479,4.3479,4.3479,4.3479,4.3479,4.3479,4.3479,4.3479,4.3463,4.3479,4.3444,4.3444,4.332,4.2905,4.2228,4.1409,4.0143,3.8813,3.7882,3.7089,3.6241,3.5827,3.58,3.5756,3.5639,3.5594,3.5441,3.4897,3.4219,3.3511,3.2895,3.2586,3.2367,3.2043,3.2168,3.2168,3.1845,3.164,3.1467,3.1467,3.1467,3.1467,3.1467,3.1467,3.1467,3.1467,3.1467,3.1467,3.1467,3.1467,3.1482,3.1526,3.1631,3.2273,3.3021,3.4008,3.4718,3.4554,3.4651,3.4218,3.3991,3.3728,3.3746,3.3933,3.3574,3.329,3.3201,3.3155,3.2881,3.267,3.2846,3.2792,4.5586,4.5586,4.5586,4.5586,4.5586,4.5586,4.5586,4.5549,4.5568,4.5568,4.5566,4.5549,4.5568,4.5586,4.5531,4.5532,4.5532,4.5477,4.538,4.518,4.4825,4.4546,4.4402,4.4173,4.4042,4.4132,4.3905,4.3781,4.3716,4.3615,4.3513,4.3479,4.3479,4.3479,4.3479,4.3479,4.3479,4.3479,4.3479,4.3479,4.3479,4.3479,4.3479,4.3479,4.3479,4.3479,4.3479,4.3479,4.3479,4.3463,4.3305,4.3305,4.3393,4.3305,4.3251,4.3123,4.277,4.2257,4.1444,4.0459,3.9276,3.8052,3.7153,3.6358,3.5847,3.5639,3.5639,3.5639,3.5532,3.5287,3.4399,3.3681,3.2949,3.2398,3.2079,3.1868,3.1667,3.1784,3.1875,3.1595,3.1524,3.1467,3.1467,3.1467,3.1467,3.1467,3.1467,3.1467,3.1467,3.1467,3.1467,3.1467,3.1467,3.1497,3.1571,3.1825,3.2258,3.2811,3.3455,3.3951,3.4056,3.4307,3.4622,3.445,3.4322,3.4614,3.4681,3.4262,3.3965,3.3862,3.3758,3.3636,3.3485,3.3351,3.3225,4.549,4.5586,4.5586,4.5586,4.5586,4.5586,4.5549,4.5513,4.5495,4.5512,4.551,4.5494,4.555,4.5605,4.555,4.5513,4.5495,4.5438,4.532,4.5052,4.4676,4.4374,4.4121,4.3828,4.3716,4.3878,4.3682,4.3548,4.3513,4.3479,4.3479,4.3479,4.3479,4.3479,4.3479,4.3479,4.3479,4.3479,4.3479,4.3479,4.3479,4.3479,4.3479,4.3479,4.3479,4.3479,4.3479,4.3479,4.3444,4.3393,4.3084,4.3048,4.3123,4.3029,4.2778,4.2786,4.232,4.1979,4.1531,4.0666,3.9572,3.8715,3.7592,3.6735,3.6073,3.5723,3.5639,3.5487,3.5379,3.4816,3.3853,3.3145,3.2547,3.2038,3.1712,3.1582,3.1539,3.1539,3.1597,3.1509,3.1467,3.1467,3.1467,3.1467,3.1467,3.1467,3.1467,3.1467,3.1467,3.1467,3.1467,3.1467,3.1467,3.1467,3.1541,3.1616,3.2109,3.2542,3.3051,3.3315,3.3564,3.3921,3.4337,3.4976,3.5061,3.5185,3.5205,3.4891,3.4655,3.4568,3.4465,3.4378,3.416,3.3868,3.3755,4.4934,4.5586,4.5586,4.5586,4.5586,4.5586,4.5568,4.5513,4.5495,4.5513,4.5513,4.5513,4.5531,4.5586,4.5586,4.5586,4.5532,4.5419,4.522,4.4962,4.4599,4.4308,4.3986,4.3716,4.3634,4.3566,4.3513,4.3479,4.3479,4.3479,4.3479,4.3479,4.3479,4.3479,4.3479,4.3479,4.3479,4.3479,4.3479,4.3479,4.3479,4.3479,4.3479,4.3479,4.3479,4.3497,4.3463,4.3444,4.3339,4.305,4.2933,4.2724,4.2512,4.2353,4.2311,4.2228,4.1906,4.1561,4.1278,4.044,3.9611,3.8867,3.7938,3.7046,3.653,3.5982,3.5746,3.5287,3.4738,3.402,3.3407,3.2734,3.2342,3.2094,3.1996,3.1826,3.1727,3.1715,3.1672,3.1539,3.1524,3.1467,3.1467,3.1467,3.1467,3.1467,3.1467,3.1467,3.1467,3.1467,3.1467,3.1467,3.1467,3.1467,3.1482,3.1541,3.178,3.2169,3.2617,3.2826,3.3092,3.3421,3.3963,3.4513,3.5051,3.531,3.528,3.525,3.5205,3.506,3.5045,3.5093,3.4857,3.4589,3.454,4.4549,4.4951,4.5393,4.5586,4.5586,4.5586,4.5568,4.5513,4.5495,4.5495,4.5495,4.5513,4.5531,4.5586,4.5586,4.5531,4.54,4.5281,4.5049,4.4701,4.4438,4.4192,4.391,4.3682,4.3582,4.3513,4.3479,4.3479,4.3479,4.3479,4.3479,4.3479,4.3479,4.3479,4.3479,4.3479,4.3479,4.3479,4.3479,4.3479,4.3479,4.3479,4.3479,4.3479,4.3444,4.3375,4.3196,4.3196,4.2976,4.2577,4.2279,4.2074,4.1856,4.171,4.1648,4.1727,4.1445,4.1163,4.1053,4.0457,4.0027,3.9214,3.8482,3.7738,3.7022,3.6405,3.5845,3.5077,3.4235,3.3511,3.3198,3.2586,3.2247,3.2191,3.2079,3.194,3.1872,3.1832,3.1672,3.1554,3.1539,3.1467,3.1467,3.1467,3.1467,3.1467,3.1467,3.1467,3.1467,3.1467,3.1467,3.1467,3.1467,3.1467,3.1467,3.1554,3.1584,3.1928,3.2168,3.2377,3.2677,3.3096,3.3455,3.3901,3.4439,3.5194,3.54,3.5385,3.5459,3.5489,3.5355,3.5329,3.5385,3.5365,3.521,4.3972,4.4355,4.5047,4.5432,4.5566,4.5586,4.5568,4.5513,4.5495,4.5495,4.5495,4.5513,4.5531,4.5568,4.5513,4.54,4.518,4.5109,4.4789,4.4484,4.4289,4.406,4.38,4.3701,4.3615,4.3513,4.3513,4.3532,4.3479,4.3479,4.3479,4.3479,4.3479,4.3479,4.3479,4.3479,4.3479,4.3479,4.3479,4.3479,4.3479,4.3479,4.3444,4.3375,4.3375,4.3178,4.2806,4.2768,4.2498,4.2098,4.1768,4.1473,4.1356,4.1088,4.1041,4.1237,4.1041,4.0871,4.0823,4.0806,4.0418,3.9671,3.9447,3.8499,3.736,3.6485,3.5702,3.4644,3.3815,3.3145,3.2949,3.2532,3.2287,3.2247,3.2135,3.2053,3.197,3.1902,3.1802,3.1642,3.1539,3.1467,3.1467,3.1467,3.1467,3.1467,3.1467,3.1467,3.1467,3.1467,3.1467,3.1467,3.1467,3.1467,3.1467,3.1467,3.1554,3.1601,3.1809,3.1928,3.2317,3.2736,3.317,3.3829,3.4328,3.4991,3.5289,3.5504,3.5519,3.5519,3.5504,3.5489,3.5489,3.5489,3.5379,4.2948,4.4297,4.4393,4.4893,4.5509,4.5566,4.5568,4.5513,4.5513,4.5495,4.5513,4.5513,4.5531,4.5531,4.5342,4.5262,4.5115,4.4868,4.4591,4.4289,4.4231,4.4011,4.3716,4.38,4.3682,4.3548,4.3566,4.3548,4.3513,4.3479,4.3479,4.3479,4.3479,4.3479,4.3479,4.3479,4.3479,4.3479,4.3479,4.3479,4.3479,4.3479,4.3321,4.3105,4.2957,4.275,4.2378,4.2257,4.205,4.1648,4.1561,4.1311,4.1041,4.0948,4.0935,4.0982,4.0935,4.0871,4.0888,4.0888,4.0758,4.0175,3.9802,3.8874,3.7587,3.6019,3.4824,3.3566,3.3203,3.2986,3.2695,3.2453,3.2398,3.2342,3.2302,3.2247,3.215,3.197,3.1872,3.1772,3.1627,3.1539,3.1467,3.1467,3.1467,3.1467,3.1467,3.1467,3.1524,3.1509,3.1554,3.1569,3.1539,3.1539,3.1467,3.1467,3.1467,3.1467,3.1554,3.1702,3.221,3.2795,3.3502,3.4087,3.4634,3.5042,3.5428,3.5649,3.5599,3.5599,3.5584,3.5569,3.5489,3.5489,3.5504,4.1774,4.297,4.3893,4.4509,4.4913,4.5374,4.5586,4.5568,4.5549,4.5568,4.5549,4.5568,4.5587,4.5531,4.5322,4.5118,4.4919,4.465,4.4374,4.4162,4.414,4.4017,4.3846,4.3832,4.3749,4.3615,4.3582,4.3566,4.3513,4.3479,4.3479,4.3479,4.3479,4.3479,4.3479,4.3479,4.3479,4.3479,4.3479,4.3479,4.3479,4.3444,4.3304,4.2938,4.29,4.2458,4.199,4.1778,4.1578,4.1237,4.1163,4.1088,4.0965,4.0871,4.0871,4.0871,4.0871,4.0871,4.0871,4.0871,4.0776,4.0614,4.0124,3.9265,3.766,3.6009,3.4438,3.3323,3.292,3.2656,3.2492,3.2398,3.2398,3.2398,3.2398,3.2358,3.2247,3.2165,3.2068,3.1872,3.17,3.1627,3.1539,3.1539,3.1524,3.1467,3.1524,3.1539,3.1567,3.1652,3.167,3.1702,3.1657,3.167,3.1539,3.1467,3.1467,3.1524,3.1524,3.1762,3.2387,3.3034,3.3758,3.4544,3.523,3.5561,3.5767,3.5808,3.5789,3.5759,3.5729,3.5649,3.5584,3.5504,3.5504,4.0893,4.1623,4.3047,4.3893,4.4335,4.5028,4.5393,4.5586,4.5586,4.5586,4.5586,4.5586,4.5586,4.5513,4.5243,4.4966,4.4776,4.4438,4.4221,4.4048,4.4005,4.3974,4.3878,4.3897,4.3832,4.3667,4.3682,4.3667,4.36,4.3566,4.3566,4.3479,4.3479,4.3479,4.3479,4.3479,4.3479,4.3479,4.3479,4.3444,4.3339,4.3339,4.2976,4.2693,4.2458,4.2175,4.149,4.1373,4.1163,4.0995,4.0918,4.0918,4.0871,4.0871,4.0871,4.0871,4.0871,4.0871,4.0871,4.0871,4.084,4.058,3.9963,3.8822,3.7168,3.5758,3.4574,3.3334,3.2788,3.2539,3.2398,3.2398,3.2398,3.2398,3.2398,3.2358,3.2302,3.2206,3.2165,3.1996,3.1841,3.17,3.1612,3.1539,3.1539,3.1524,3.1539,3.1554,3.1625,3.1751,3.1781,3.1814,3.1715,3.1642,3.147,3.144,3.1468,3.1524,3.1524,3.2086,3.2846,3.3528,3.4213,3.4957,3.5751,3.598,3.6115,3.608,3.6027,3.5937,3.5861,3.5729,3.5664,3.5584,3.5504,4.0527,4.0662,4.1604,4.2854,4.4239,4.4355,4.4855,4.547,4.5547,4.5586,4.5586,4.5586,4.5586,4.5457,4.5096,4.4825,4.4751,4.425,4.4079,4.4036,4.4005,4.3942,4.3942,4.3929,4.391,4.3818,4.38,4.38,4.3804,4.3719,4.3634,4.3513,4.3513,4.3479,4.3479,4.3513,4.3513,4.3513,4.3479,4.3286,4.3105,4.2902,4.2537,4.1864,4.1604,4.1418,4.0965,4.1012,4.1012,4.0871,4.0871,4.0871,4.0871,4.0871,4.0871,4.0871,4.0871,4.0871,4.0871,4.0871,4.084,4.0346,3.9495,3.8287,3.6767,3.5186,3.4108,3.3458,3.2795,3.2484,3.2398,3.2398,3.2398,3.2398,3.2398,3.2398,3.2342,3.2287,3.2191,3.2135,3.2038,3.1898,3.1799,3.1712,3.1597,3.1597,3.1657,3.1687,3.1769,3.1823,3.189,3.1864,3.1769,3.1614,3.1383,3.1397,3.1584,3.164,3.164,3.2528,3.3529,3.4173,3.4425,3.5401,3.6105,3.6352,3.6414,3.6272,3.6161,3.6085,3.5943,3.5846,3.5729,3.5629,3.5534,4.0489,4.0527,4.0854,4.1681,4.2854,4.3855,4.4489,4.4855,4.5355,4.5586,4.5586,4.5586,4.5513,4.5302,4.5007,4.4701,4.4519,4.4162,4.4017,4.4005,4.4005,4.3974,4.3992,4.3974,4.3942,4.3883,4.3897,4.3865,4.3804,4.3804,4.3771,4.3686,4.36,4.3548,4.3548,4.3548,4.3548,4.3513,4.3426,4.3196,4.3014,4.2693,4.2279,4.1604,4.1516,4.1283,4.0948,4.0918,4.0871,4.0871,4.0871,4.0871,4.0871,4.0871,4.0871,4.0871,4.0871,4.0871,4.0871,4.0871,4.0728,4.0286,3.9463,3.8394,3.6799,3.5529,3.4447,3.363,3.2857,3.249,3.2398,3.2398,3.2398,3.2398,3.2398,3.2398,3.2398,3.2342,3.2287,3.2191,3.215,3.2053,3.194,3.1883,3.1769,3.1727,3.1802,3.1847,3.1856,3.1811,3.1781,3.1762,3.1694,3.1349,3.1043,3.1352,3.1712,3.1697,3.1712,3.2745,3.3717,3.4066,3.4529,3.5569,3.6337,3.6461,3.6476,3.6445,3.6383,3.6258,3.6117,3.5961,3.5861,3.5694,3.5614,4.0489,4.0489,4.0489,4.1008,4.197,4.3335,4.4085,4.4451,4.524,4.5586,4.5586,4.5586,4.5457,4.5178,4.4924,4.4662,4.4421,4.4132,4.4036,4.4005,4.4005,4.4005,4.4005,4.4005,4.3974,4.3929,4.3929,4.3897,4.3865,4.3851,4.3832,4.3832,4.3767,4.3701,4.3634,4.3548,4.3495,4.3461,4.3267,4.3014,4.277,4.244,4.2133,4.1534,4.1373,4.1255,4.1041,4.0965,4.0871,4.0871,4.0871,4.0871,4.0871,4.0871,4.0871,4.0871,4.0871,4.0871,4.0871,4.0728,4.0436,3.9833,3.9279,3.8225,3.7109,3.5959,3.4888,3.3944,3.3144,3.2613,3.2505,3.2398,3.2398,3.2398,3.2398,3.2398,3.2398,3.2342,3.2342,3.2287,3.2191,3.2135,3.212,3.2007,3.194,3.1898,3.1974,3.1875,3.1742,3.167,3.1599,3.1552,3.1477,3.1057,3.069,3.1278,3.1715,3.1452,3.1672,3.2752,3.3547,3.4017,3.4787,3.5892,3.6461,3.6492,3.6476,3.6461,3.6476,3.6492,3.6305,3.6119,3.6006,3.5906,3.5793,4.0489,4.0489,4.0489,4.0989,4.1777,4.272,4.3528,4.4259,4.5182,4.5586,4.5586,4.5566,4.5419,4.5151,4.4846,4.4568,4.4336,4.4109,4.4005,4.4005,4.4005,4.4005,4.4005,4.4005,4.4005,4.4005,4.3974,4.3992,4.3974,4.3961,4.3974,4.3942,4.3865,4.3767,4.3771,4.3479,4.3338,4.3267,4.3069,4.2693,4.236,4.2133,4.1856,4.1587,4.1318,4.118,4.118,4.1041,4.0965,4.0965,4.0918,4.0871,4.0871,4.0871,4.0871,4.0871,4.0871,4.0871,4.0823,4.0502,3.9969,3.9382,3.8882,3.8067,3.7103,3.6119,3.5233,3.4332,3.3696,3.3023,3.2675,3.2398,3.2398,3.2398,3.2398,3.2398,3.2398,3.2398,3.2342,3.2342,3.2287,3.2216,3.2185,3.2185,3.2135,3.2124,3.2129,3.2,3.1712,3.1367,3.1191,3.1235,3.1175,3.1176,3.0969,3.1396,3.1659,3.1395,3.1867,3.3161,3.3965,3.4481,3.5334,3.623,3.6476,3.6492,3.6492,3.6492,3.6492,3.6492,3.6337,3.6182,3.6133,3.61,3.5973,4.0489,4.0489,4.0489,4.0662,4.1046,4.1873,4.272,4.3662,4.4874,4.5586,4.5547,4.5413,4.5189,4.4919,4.4657,4.4393,4.417,4.4109,4.4005,4.4005,4.4005,4.4005,4.4005,4.4005,4.4005,4.4005,4.4005,4.4005,4.4005,4.4005,4.4005,4.3974,4.3795,4.3597,4.3513,4.3391,4.3356,4.3124,4.2864,4.2616,4.2356,4.2068,4.1788,4.1604,4.1426,4.1363,4.1408,4.1226,4.1134,4.1105,4.1059,4.0918,4.0918,4.0935,4.0935,4.0871,4.0871,4.0728,4.0387,3.9918,3.9382,3.8952,3.8623,3.8081,3.7547,3.6438,3.5568,3.4794,3.4043,3.3285,3.2567,3.2428,3.2398,3.2398,3.2398,3.2398,3.2398,3.2398,3.2398,3.2398,3.2342,3.2342,3.2312,3.2241,3.2247,3.2028,3.1972,3.1838,3.1595,3.0998,3.0632,3.0773,3.088,3.1072,3.1294,3.1842,3.2318,3.2287,3.2989,3.4156,3.4747,3.488,3.5475,3.6182,3.6399,3.6492,3.6492,3.6492,3.6492,3.6461,3.6352,3.6306,3.6212,3.6197,3.6089,4.0489,4.0489,4.0489,4.0489,4.0642,4.145,4.2379,4.3441,4.4555,4.5111,4.5241,4.5126,4.4916,4.4681,4.4476,4.426,4.4023,4.4005,4.4005,4.4005,4.4005,4.4005,4.4005,4.4005,4.4005,4.4005,4.4005,4.4005,4.4005,4.4005,4.3942,4.3846,4.3664,4.3408,4.3232,4.3087,4.3087,4.2864,4.2673,4.2494,4.2292,4.2103,4.1892,4.1805,4.1719,4.1604,4.1587,4.148,4.1346,4.1318,4.1226,4.1041,4.1059,4.1012,4.0965,4.0918,4.0745,4.0436,3.9816,3.9451,3.9023,3.875,3.8495,3.8189,3.7849,3.6995,3.616,3.5344,3.4434,3.3563,3.2946,3.2792,3.2398,3.2398,3.2398,3.2398,3.2398,3.2398,3.2398,3.2398,3.2398,3.2398,3.2398,3.2342,3.2302,3.2007,3.1744,3.1615,3.1497,3.0916,3.0452,3.063,3.1017,3.1349,3.1787,3.2364,3.2815,3.3161,3.3804,3.4555,3.4821,3.4919,3.5508,3.6072,3.6274,3.6382,3.6492,3.6492,3.6414,3.6414,3.6476,3.6368,3.6306,3.6291,3.6198,4.0489,4.0489,4.0489,4.0489,4.0642,4.1338,4.2446,4.373,4.3845,4.4212,4.4744,4.4689,4.457,4.4434,4.4383,4.4253,4.4042,4.4023,4.4005,4.4005,4.4005,4.4005,4.4005,4.4005,4.4005,4.4005,4.4005,4.4005,4.4005,4.3942,4.3814,4.3664,4.3511,4.3196,4.2921,4.2732,4.275,4.2595,4.2494,4.2351,4.2269,4.2103,4.2061,4.2019,4.1934,4.1849,4.1788,4.1719,4.1631,4.1604,4.156,4.1391,4.1255,4.1209,4.1088,4.0871,4.0551,3.9867,3.9382,3.9115,3.8821,3.856,3.8246,3.7962,3.7841,3.752,3.6798,3.6032,3.5136,3.4322,3.3589,3.3033,3.2468,3.2453,3.2398,3.2398,3.2398,3.2398,3.2398,3.2398,3.2398,3.2398,3.2398,3.2398,3.2328,3.2159,3.1887,3.1676,3.1485,3.1131,3.0777,3.0871,3.1275,3.1811,3.2377,3.2896,3.3319,3.3701,3.3646,3.4162,3.4485,3.4927,3.5316,3.5767,3.6131,3.6287,3.6209,3.6226,3.6243,3.6228,3.6059,3.6337,3.6198,3.6368,3.6368,4.0489,4.0489,4.0489,4.0489,4.0511,4.0607,4.1226,4.2106,4.2737,4.3384,4.3938,4.3745,4.3931,4.4364,4.4222,4.4079,4.4042,4.4005,4.4005,4.4005,4.4005,4.4005,4.4005,4.4005,4.4005,4.4005,4.4005,4.4005,4.3942,4.3878,4.373,4.3597,4.3213,4.2884,4.2711,4.2534,4.2454,4.2414,4.231,4.2328,4.2287,4.2187,4.2246,4.2187,4.2145,4.2103,4.2061,4.1934,4.1849,4.1805,4.148,4.1237,4.1255,4.1088,4.0918,4.0823,4.0303,3.9662,3.9365,3.8914,3.8504,3.8464,3.8278,3.8278,3.8157,3.7863,3.7372,3.6658,3.5844,3.4977,3.4129,3.3426,3.2834,3.2539,3.2523,3.2453,3.2453,3.2398,3.2398,3.2398,3.2398,3.249,3.2475,3.242,3.2403,3.2249,3.2019,3.1826,3.1598,3.1316,3.1236,3.1335,3.1716,3.2298,3.2834,3.3382,3.3828,3.4177,3.403,3.4139,3.4693,3.5111,3.5234,3.5374,3.5554,3.5714,3.5872,3.5797,3.5706,3.5472,3.5305,3.5829,3.6183,3.6244,3.6352,4.0489,4.0489,4.0489,4.0457,4.0356,4.0251,4.0425,4.0796,4.1554,4.2248,4.2784,4.2975,4.3305,4.372,4.3912,4.4023,4.4023,4.4005,4.4005,4.4005,4.4005,4.4005,4.4005,4.4005,4.4005,4.4005,4.4005,4.4005,4.3892,4.373,4.3563,4.3178,4.2808,4.2673,4.2534,4.2391,4.2328,4.2328,4.2287,4.2287,4.2287,4.2287,4.2287,4.2287,4.2287,4.2287,4.2287,4.2103,4.2061,4.2061,4.1701,4.1569,4.148,4.1209,4.0645,4.0434,3.9969,3.9401,3.9061,3.8694,3.8448,3.8391,3.8391,3.8391,3.8335,3.8157,3.776,3.7262,3.6469,3.5649,3.4715,3.3889,3.3248,3.2679,3.2594,3.2508,3.2453,3.2398,3.2398,3.2398,3.2475,3.2598,3.2609,3.2509,3.2493,3.2512,3.2402,3.2145,3.2012,3.1864,3.18,3.1889,3.234,3.2875,3.3317,3.3632,3.385,3.4066,3.4147,3.4345,3.4917,3.4955,3.4861,3.4817,3.4898,3.5096,3.5294,3.5184,3.505,3.4822,3.4797,3.5185,3.5499,3.5607,3.5778,4.0489,4.0489,4.0492,4.0339,4.0196,4.012,3.9897,3.9558,4.0309,4.094,4.1574,4.2247,4.2544,4.2829,4.3361,4.3726,4.3801,4.3875,4.4005,4.4005,4.4005,4.4005,4.4005,4.4005,4.3974,4.3974,4.3936,4.3849,4.3791,4.356,4.316,4.2693,4.2673,4.2534,4.2391,4.2328,4.2287,4.2287,4.2287,4.2287,4.2287,4.2287,4.2287,4.2287,4.2287,4.2287,4.2287,4.2287,4.2287,4.2287,4.2205,4.2061,4.1657,4.1391,4.0659,4.012,3.9749,3.9295,3.8898,3.856,3.8448,3.8391,3.8391,3.8391,3.8335,3.8335,3.8052,3.7786,3.707,3.6398,3.5594,3.4627,3.3864,3.3341,3.3076,3.2835,3.2648,3.2523,3.2398,3.2499,3.2693,3.2807,3.2798,3.2749,3.2909,3.2882,3.2746,3.2478,3.2464,3.236,3.2387,3.2398,3.2721,3.3087,3.3268,3.3518,3.3561,3.3742,3.3962,3.416,3.4459,3.4466,3.4317,3.4385,3.4399,3.452,3.4624,3.4543,3.4476,3.447,3.447,3.4627,3.4756,3.4815,3.5155,4.0489,4.0473,4.0358,4.0139,3.9901,3.9724,3.9508,3.9192,3.9378,3.9955,4.0635,4.0942,4.1378,4.198,4.2723,4.3125,4.3243,4.3652,4.3949,4.4005,4.4005,4.4005,4.4005,4.4005,4.3892,4.374,4.3666,4.3592,4.3416,4.3123,4.2884,4.2655,4.2573,4.2351,4.2328,4.2287,4.2287,4.2287,4.2287,4.2287,4.2287,4.2287,4.2287,4.2287,4.2287,4.2287,4.2287,4.2287,4.2287,4.2287,4.2079,4.1805,4.1391,4.13,4.0836,4.0254,3.9765,3.9348,3.8914,3.856,3.8448,3.8391,3.8391,3.8391,3.8391,3.8391,3.8311,3.8044,3.7729,3.707,3.6414,3.5448,3.4542,3.3994,3.3534,3.3177,3.2874,3.2679,3.2484,3.2678,3.2943,3.3008,3.3076,3.3089,3.32,3.3179,3.304,3.2966,3.2986,3.2989,3.2877,3.2932,3.3031,3.3269,3.3382,3.3382,3.3437,3.3437,3.3577,3.3747,3.403,3.4027,3.3994,3.3991,3.4031,3.4031,3.4031,3.377,3.377,3.3908,3.3922,3.408,3.3941,3.3945,3.4423,4.0489,4.0473,4.0286,4.0022,3.975,3.958,3.9427,3.929,3.9137,3.9389,3.9946,4.0263,4.0663,4.1173,4.1898,4.253,4.2723,4.3225,4.367,4.3893,4.3986,4.4005,4.4005,4.4005,4.3828,4.3642,4.3435,4.3261,4.2996,4.2848,4.2711,4.2516,4.2351,4.2287,4.2287,4.2287,4.2287,4.2287,4.2287,4.2287,4.2287,4.2287,4.2287,4.2287,4.2287,4.2287,4.2287,4.2287,4.2287,4.2287,4.2163,4.1977,4.1701,4.1552,4.11,4.0466,3.9952,3.9542,3.9007,3.8672,3.8448,3.8448,3.8391,3.8391,3.8391,3.8391,3.8391,3.8173,3.8141,3.7657,3.7118,3.6258,3.5364,3.4691,3.4266,3.3884,3.3543,3.3232,3.3161,3.3293,3.3588,3.3882,3.3789,3.3579,3.3653,3.3595,3.3493,3.3165,3.3237,3.3312,3.3312,3.3312,3.3312,3.3312,3.3312,3.3312,3.3312,3.3312,3.3312,3.3466,3.3635,3.3663,3.3677,3.3703,3.3646,3.3577,3.3452,3.3382,3.3382,3.3507,3.3452,3.341,3.3312,3.3312,3.3744,4.0377,4.046,4.0269,4.0001,3.9739,3.9575,3.9483,3.9433,3.9253,3.923,3.9454,4.0021,4.0253,4.0533,4.1148,4.1835,4.2448,4.2858,4.3341,4.3652,4.3931,4.3986,4.4005,4.3974,4.3763,4.3477,4.3178,4.2941,4.268,4.2559,4.2494,4.2328,4.2287,4.2287,4.2287,4.2287,4.2287,4.2287,4.2287,4.2287,4.2287,4.2287,4.2287,4.2287,4.2287,4.2287,4.2287,4.2287,4.2287,4.2287,4.2246,4.2061,4.1934,4.1727,4.1202,4.0672,4.0235,3.9645,3.9061,3.8727,3.856,3.8448,3.8391,3.8408,3.8408,3.8408,3.8408,3.8391,3.8359,3.8181,3.7623,3.7106,3.6152,3.5466,3.5091,3.4665,3.427,3.3912,3.4014,3.4124,3.439,3.474,3.4407,3.4191,3.4077,3.4048,3.377,3.3507,3.3312,3.3312,3.3312,3.3312,3.3312,3.3312,3.3312,3.3312,3.3312,3.3312,3.3312,3.3312,3.334,3.3466,3.348,3.3438,3.3312,3.3396,3.3396,3.3312,3.3312,3.3312,3.3312,3.3312,3.3312,3.3312,3.3312,3.9874,4.0404,4.0139,3.9981,3.9848,3.9599,3.9483,3.9483,3.9452,3.9436,3.9506,3.9518,3.9621,3.9602,4.0532,4.1172,4.1465,4.2192,4.272,4.3051,4.3578,4.3856,4.3955,4.3804,4.3646,4.3267,4.2844,4.2494,4.244,4.2396,4.2351,4.2287,4.2287,4.2287,4.2287,4.2287,4.2287,4.2287,4.2287,4.2287,4.2287,4.2287,4.2287,4.2287,4.2287,4.2287,4.2287,4.2287,4.2287,4.2287,4.2287,4.2145,4.2061,4.1917,4.149,4.0955,4.0528,3.9935,3.9401,3.8914,3.8711,3.856,3.8504,3.8408,3.8408,3.8408,3.8408,3.8391,3.8375,3.8375,3.7987,3.7566,3.6825,3.6464,3.605,3.5674,3.5288,3.5128,3.5042,3.5315,3.5549,3.5305,3.4665,3.4567,3.4491,3.4237,3.3605,3.334,3.3326,3.3312,3.3326,3.3312,3.3312,3.3312,3.3312,3.3312,3.3312,3.3312,3.3312,3.3312,3.3312,3.3312,3.3312,3.3312,3.3312,3.3312,3.3312,3.3312,3.3312,3.3312,3.3312,3.3312,3.3312,3.3312,3.3312]},{"header":{"parameterUnit":"m.s-1","parameterCategory":1,"la1":31.0,"la2":29.5877,"lo1":-88.7671,"lo2":-86.6584,"dy":0.0162,"dx":0.0185,"nx":115,"ny":88,"refTime":"2023-05-18T06:00:00:Z","depth":0,"parameterNumber":3,"parameterNumberName":"V-component_of_WINDS"},"data":[0.0,0.0,0.0,0.0,0.0,0.0,0.0,0.0,0.0,0.0,0.0,0.0,0.0,0.0,0.0,0.0,0.0,0.0,0.0,0.0,0.0,0.0,0.0,0.0,0.0,0.0,0.0,0.0,0.0,0.0,0.0,0.0,0.0,0.0,0.0,0.0,0.0,0.0,0.0,0.0,0.0,0.0,0.0,0.0,0.0,0.0,0.0,0.0,0.0,0.0,0.0,0.0,0.0,0.0,0.0,0.0,0.0,0.0,0.0,0.0,0.0,0.0,0.0,0.0,0.0,0.0,0.0,0.0,0.0,0.0,0.0,0.0,0.0,0.0,0.0,0.0,0.0,0.0,0.0,0.0,0.0,0.0,0.0,0.0,0.0,0.0,0.0,0.0,0.0,0.0,0.0,0.0,0.0,0.0,0.0,0.0,0.0,0.0,0.0,0.0,0.0,0.0,0.0,0.0,0.0,0.0,0.0,0.0,0.0,0.0,0.0,0.0,0.0,0.0,0.0,0.0,0.0,0.0,0.0,0.0,0.0,0.0,0.0,0.0,0.0,0.0,0.0,0.0,0.0,0.0,0.0,0.0,0.0,0.0,0.0,0.0,0.0,0.0,0.0,0.0,0.0,0.0,0.0,0.0,0.0,0.0,0.0,0.0,0.0,0.0,0.0,0.0,0.0,0.0,0.0,0.0,0.0,0.0,0.0,0.0,0.0,0.0,0.0,0.0,0.0,0.0,0.0,0.0,0.0,0.0,0.0,0.0,0.0,0.0,0.0,0.0,0.0,0.0,0.0,0.0,0.0,0.0,0.0,0.0,0.0,0.0,0.0,0.0,0.0,0.0,0.0,0.0,0.0,0.0,0.0,0.0,0.0,0.0,0.0,0.0,0.0,0.0,0.0,0.0,0.0,0.0,0.0,0.0,0.0,0.0,0.0,0.0,0.0,0.0,0.0,0.0,0.0,0.0,0.0,0.0,0.0,0.0,0.0,0.0,0.0,0.0,0.0,0.0,0.0,0.0,0.0,0.0,0.0,0.0,0.0,0.0,0.0,0.0,0.0,0.0,0.0,0.0,0.0,0.0,0.0,0.0,0.0,0.0,0.0,0.0,0.0,0.0,0.0,0.0,0.0,0.0,0.0,0.0,0.0,0.0,0.0,0.0,0.0,0.0,0.0,0.0,0.0,0.0,0.0,0.0,0.0,0.0,0.0,0.0,0.0,0.0,0.0,0.0,0.0,0.0,0.0,0.0,0.0,0.0,0.0,0.0,0.0,0.0,0.0,0.0,0.0,0.0,0.0,0.0,0.0,0.0,0.0,0.0,0.0,0.0,0.0,0.0,0.0,0.0,0.0,0.0,0.0,0.0,0.0,0.0,0.0,0.0,0.0,0.0,0.0,0.0,0.0,0.0,0.0,0.0,0.0,0.0,0.0,0.0,0.0,0.0,0.0,0.0,0.0,0.0,0.0,0.0,0.0,0.0,0.0,0.0,0.0,0.0,0.0,0.0,0.0,0.0,0.0,0.0,0.0,0.0,0.0,0.0,0.0,0.0,0.0,0.0,0.0,0.0,0.0,0.0,0.0,0.0,0.0,0.0,0.0,0.0,0.0,0.0,0.0,0.0,0.0,0.0,0.0,0.0,0.0,0.0,0.0,0.0,0.0,0.0,0.0,0.0,0.0,0.0,0.0,0.0,0.0,0.0,0.0,0.0,0.0,0.0,0.0,0.0,0.0,0.0,0.0,0.0,0.0,0.0,0.0,0.0,0.0,0.0,0.0,0.0,0.0,0.0,0.0,0.0,0.0,0.0,0.0,0.0,0.0,0.0,0.0,0.0,0.0,0.0,0.0,0.0,0.0,0.0,0.0,0.0,0.0,0.0,0.0,0.0,0.0,0.0,0.0,0.0,0.0,0.0,0.0,0.0,0.0,0.0,0.0,0.0,0.0,0.0,0.0,0.0,0.0,0.0,0.0,0.0,0.0,0.0,0.0,0.0,0.0,0.0,0.0,0.0,0.0,0.0,0.0,0.0,0.0,0.0,0.0,0.0,0.0,0.0,0.0,0.0,0.0,0.0,0.0,0.0,0.0,0.0,0.0,0.0,0.0,0.0,0.0,0.0,0.0,0.0,0.0,0.0,0.0,0.0,0.0,0.0,0.0,0.0,0.0,0.0,0.0,0.0,0.0,0.0,0.0,0.0,0.0,0.0,0.0,0.0,0.0,0.0,0.0,0.0,0.0,0.0,0.0,0.0,0.0,0.0,0.0,0.0,0.0,0.0,0.0,0.0,0.0,0.0,0.0,0.0,0.0,0.0,0.0,0.0,0.0,0.0,0.0,0.0,0.0,0.0,0.0,0.0,0.0,0.0,0.0,0.0,0.0,0.0,0.0,0.0,0.0,0.0,0.0,0.0,0.0,0.0,0.0,0.0,0.0,0.0,0.0,0.0,0.0,0.0,0.0,0.0,0.0,0.0,0.0,0.0,0.0,0.0,0.0,0.0,0.0,0.0,0.0,0.0,0.0,0.0,0.0,0.0,0.0,0.0,0.0,0.0,0.0,0.0,0.0,0.0,0.0,0.0,0.0,0.0,0.0,0.0,0.0,0.0,0.0,0.0,0.0,0.0,0.0,0.0,0.0,0.0,0.0,0.0,0.0,0.0,0.0,0.0,0.0,0.0,0.0,0.0,0.0,0.0,0.0,0.0,0.0,0.0,0.0,0.0,0.0,0.0,0.0,0.0,0.0,0.0,0.0,0.0,0.0,0.0,0.0,0.0,0.0,0.0,0.0,0.0,0.0,0.0,0.0,0.0,0.0,0.0,0.0,0.0,0.0,0.0,0.0,0.0,0.0,0.0,0.0,0.0,0.0,0.0,0.0,0.0,0.0,0.0,0.0,0.0,0.0,0.0,0.0,0.0,0.0,0.0,0.0,0.0,0.0,0.0,0.0,0.0,0.0,0.0,0.0,0.0,0.0,0.0,0.0,0.0,0.0,0.0,0.0,0.0,0.0,0.0,0.0,0.0,0.0,0.0,0.0,0.0,0.0,0.0,0.0,0.0,0.0,0.0,0.0,0.0,0.0,0.0,0.0,0.0,0.0,0.0,0.0,0.0,0.0,0.0,0.0,0.0,0.0,0.0,0.0,0.0,0.0,0.0,0.0,0.0,0.0,0.0,0.0,0.0,0.0,0.0,0.0,0.0,0.0,0.0,0.0,0.0,0.0,0.0,0.0,0.0,0.0,0.0,0.0,0.0,0.0,0.0,0.0,0.0,0.0,0.0,0.0,0.0,0.0,0.0,0.0,0.0,0.0,0.0,0.0,0.0,0.0,0.0,0.0,0.0,0.0,0.0,0.0,0.0,0.0,0.0,0.0,0.0,0.0,0.0,0.0,0.0,0.0,0.0,0.0,0.0,0.0,0.0,0.0,0.0,0.0,0.0,0.0,0.0,0.0,0.0,0.0,0.0,0.0,0.0,0.0,0.0,0.0,0.0,0.0,0.0,0.0,0.0,0.0,0.0,0.0,0.0,0.0,0.0,0.0,0.0,0.0,0.0,0.0,0.0,0.0,0.0,0.0,0.0,0.0,0.0,0.0,0.0,0.0,0.0,0.0,0.0,0.0,0.0,0.0,0.0,0.0,0.0,0.0,0.0,0.0,0.0,0.0,0.0,0.0,0.0,0.0,0.0,0.0,0.0,0.0,0.0,0.0,0.0,0.0,0.0,0.0,0.0,0.0,0.0,0.0,0.0,0.0,0.0,0.0,0.0,0.0,0.0,0.0,0.0,0.0,0.0,0.0,0.0,0.0,0.0,0.0,0.0,0.0,0.0,0.0,0.0,0.0,0.0,0.0,0.0,0.0,0.0,0.0,0.0,0.0,0.0,0.0,0.0,0.0,0.0,0.0,0.0,0.0,0.0,0.0,0.0,0.0,0.0,0.0,0.0,0.0,0.0,0.0,0.0,0.0,0.0,0.0,0.0,0.0,0.0,0.0,0.0,0.0,0.0,0.0,0.0,0.0,0.0,0.0,0.0,0.0,0.0,0.0,0.0,0.0,0.0,0.0,0.0,0.0,0.0,0.0,0.0,0.0,0.0,0.0,0.0,0.0,0.0,0.0,0.0,0.0,0.0,0.0,0.0,0.0,0.0,0.0,0.0,0.0,0.0,0.0,0.0,0.0,0.0,0.0,0.0,0.0,0.0,0.0,0.0,0.0,0.0,0.0,0.0,0.0,0.0,0.0,0.0,0.0,0.0,0.0,0.0,0.0,0.0,0.0,0.0,0.3228,0.0,0.0,0.0,0.0,0.0,0.0,0.0,0.0,0.0,0.0,0.0,0.0,0.0,0.0,0.0,0.0,0.0,0.0,0.0,0.0,0.0,0.0,0.0,0.0,0.0,0.0,0.0,0.0,0.0,0.0,0.0,0.0,0.0,0.0,0.0,0.0,0.0,0.0,0.0,0.0,0.0,0.0,0.0,0.0,0.0,0.0,0.0,0.0,0.0,0.0,0.0,0.0,0.0,0.0,0.0,0.0,0.0,0.0,0.0,0.0,0.0,0.0,0.0,0.0,0.0,0.0,0.0,0.0,0.0,0.0,0.0,0.0,0.0,0.0,0.0,0.0,0.0,0.0,0.0,0.0,0.0,0.0,0.0,0.0,0.0,0.0,0.0,0.0,0.0,0.0,0.0,0.0,0.0,0.0,0.0,0.0,0.0,0.0,0.0,0.0,0.0,0.0,0.0,0.0,0.0,0.0,0.0,0.0,0.0,0.0,0.3226,0.3226,0.3226,0.3228,0.3362,0.0,0.0,0.0,0.0,0.0,0.0,0.0,0.0,0.0,0.0,0.0,0.0,0.0,0.0,0.0,0.0,0.0,0.0,0.0,0.0,0.0,0.0,0.0,0.0,0.0,0.0,0.0,0.0,0.0,0.0,0.0,0.0,0.0,0.0,0.0,0.0,0.0,0.0,0.0,0.0,0.0,0.0,0.0,0.0,0.0,0.0,0.0,0.0,0.0,0.0,0.0,0.0,0.0,0.0,0.0,0.0,0.0,0.0,0.0,0.0,0.0,0.0,0.0,0.0,0.0,0.0,0.0,0.0,0.0,0.0,0.0,0.0,0.0,0.0,0.0,0.0,0.0,0.0,0.0,0.0,0.0,0.0,0.0,0.0,0.0,0.0,0.0,0.0,0.0,0.0,0.0,0.0,0.0,0.0,0.0,0.0,0.0,0.0,0.0,0.0,0.0,0.0,0.0,0.0,0.0,0.0,0.0,0.0,0.0,0.0,0.0,0.0,0.3236,0.3295,0.3431,0.0,0.0,0.0,0.0,0.0,0.0,0.0,0.0,0.0,0.0,0.0,0.0,0.0,0.0,0.0,0.0,0.0,0.0,0.0,0.0,0.0,0.0,0.0,0.0,0.0,0.0,0.0,0.0,0.0,0.0,0.0,0.0,0.0,0.0,0.0,0.0,0.0,0.0,0.0,0.0,0.0,0.0,0.0,0.0,0.0,0.0,0.0,0.0,0.0,0.0,0.0,0.0,0.0,0.0,0.0,0.0,0.0,0.0,0.0,0.0,0.0,0.0,0.0,0.0,0.0,0.0,0.0,0.0,0.0,0.0,0.0,0.0,0.0,0.0,0.0,0.0,0.0,0.0,0.0,0.0,0.0,0.0,0.0,0.0,0.0,0.0,0.0,0.0,0.0,0.0,0.0,0.0,0.0,0.0,0.0,0.0,0.0,0.0,0.0,0.0,0.0,0.0,0.0,0.0,0.0,0.0,0.0,0.0,0.0,0.0,0.34,0.3758,0.3404,0.0,0.3228,0.0,0.0,0.0,0.0,0.0,0.0,0.0,0.0,0.0,0.0,0.0,0.0,0.0,0.0,0.0,0.0,0.0,0.0,0.0,0.0,0.0,0.0,0.0,0.0,0.0,0.0,0.0,0.0,0.0,0.0,0.0,0.0,0.0,0.0,0.0,0.0,0.0,0.0,0.0,0.0,0.0,0.0,0.0,0.0,0.0,0.0,0.0,0.0,0.0,0.0,0.0,0.0,0.0,0.0,0.0,0.0,0.0,0.0,0.0,0.0,0.0,0.0,0.0,0.0,0.0,0.0,0.0,0.0,0.0,0.0,0.0,0.0,0.0,0.0,0.0,0.0,0.0,0.0,0.0,0.0,0.0,0.0,0.0,0.0,0.0,0.0,0.0,0.0,0.0,0.0,0.0,0.0,0.0,0.0,0.0,0.0,0.0,0.0,0.0,0.0,0.0,0.0,0.0,0.0,0.0,0.0,0.0,0.0,0.0,0.0,0.2652,0.2724,0.3117,0.3075,0.0,0.0,0.0,0.0,0.0,0.0,0.0,0.0,0.0,0.0,0.0,0.0,0.0,0.0,0.0,0.0,0.0,0.0,0.0,0.0,0.0,0.0,0.0,0.0,0.0,0.0,0.0,0.0,0.0,0.0,0.0,0.0,0.0,0.0,0.0,0.0,0.0,0.0,0.0,0.0,0.0,0.0,0.0,0.0,0.0,0.0,0.0,0.0,0.0,0.0,0.0,0.0,0.0,0.0,0.0,0.0,0.0,0.0,0.0,0.0,0.0,0.0,0.0,0.0,0.0,0.0,0.0,0.0,0.0,0.0,0.0,0.0,0.0,0.0,0.0,0.0,0.0,0.0,0.0,0.0,0.0,0.0,0.0,0.0,0.0,0.0,0.0,0.0,0.0,0.0,0.0,0.0,0.0,0.0,0.0,0.0,0.0,0.0,0.0,0.0,0.0,0.0,0.0,0.0,0.0,0.0,0.0,0.0,0.0,0.0,0.1841,0.1994,0.2187,0.269,0.2875,0.2677,0.0,0.0,0.0,0.0,0.0,0.0,0.0,0.0,0.0,0.0,0.0,0.0,0.0,0.0,0.0,0.0,0.0,0.0,0.0,0.0,0.0,0.0,0.0,0.0,0.0,0.0,0.0,0.0,0.0,0.0,0.0,0.0,0.0,0.0,0.0,0.0,0.0,0.0,0.0,0.0,0.0,0.0,0.0,0.0,0.0,0.0,0.0,0.0,0.0,0.0,0.0,0.0,0.0,0.0,0.0,0.0,0.0,0.0,0.0,0.0,0.0,0.0,0.0,0.0,0.0,0.0,0.0,0.0,0.0,0.0,0.0,0.0,0.0,0.0,0.0,0.0,0.0,0.0,0.0,0.0,0.0,0.0,0.0,0.0,0.0,0.0,0.0,0.0,0.0,0.0,0.0,0.0,0.0,0.0,0.0,0.0,0.0,0.0,0.0,0.0,0.0,0.0,0.0,0.0,0.0,0.0,0.0,0.0,0.1443,0.1204,0.1557,0.2466,0.2252,0.2613,0.0,0.0,0.0,0.0,0.0,0.0,0.0,0.0,0.0,0.0,0.0,0.0,0.0,0.0,0.0,0.0,0.0,0.0,0.0,0.0,0.0,0.0,0.0,0.0,0.0,0.0,0.0,0.0,0.0,0.0,0.0,0.0,0.0,0.0,0.0,0.0,0.0,0.0,0.0,0.0,0.0,0.0,0.0,0.0,0.0,0.0,0.0,0.0,0.0,0.0,0.0,0.0,0.0,0.0,0.0,0.0,0.0,0.0,0.0,0.0,0.0,0.0,0.0,0.0,0.0,0.0,0.0,0.0,0.0,0.0,0.0,0.0,0.0,0.0,0.0,0.0,0.0,0.0,0.0,0.0,0.0,0.0,0.0,0.0,0.0,0.0,0.0,0.0,0.0,0.0,0.0,0.0,0.0,0.0,0.0,0.0,0.0,0.0,0.0,0.0,0.0,0.0,0.0,0.0,0.0,0.0,0.0,0.0,0.0,-0.0071,0.0509,0.1172,0.1747,0.2881,0.3331,0.0,0.0,0.0,0.0,0.0,0.0,0.0,0.0,0.0,0.0,0.0,0.0,0.0,0.0,0.0,0.0,0.0,0.0,0.0,0.0,0.0,0.0,0.0,0.0,0.0,0.0,0.0,0.0,0.0,0.0,0.0,0.0,0.0,0.0,0.0,0.0,0.0,0.0,0.0,0.0,0.0,0.0,0.0,0.0,0.0,0.0,0.0,0.0,0.0,0.0,0.0,0.0,0.0,0.0,0.0,0.0,0.0,0.0,0.0,0.0,0.0,0.0,0.0,0.0,0.0,0.0,0.0,0.0,0.0,0.0,0.0,0.0,0.0,0.0,0.0,0.0,0.0,0.0,0.0,0.0,0.0,0.0,0.0,0.0,0.0,0.0,0.0,0.0,0.0,0.0,0.0,0.0,0.0,0.0,0.0,0.0,0.0,0.0,0.0,0.0,0.0,0.0,0.0,0.0,0.0,0.0,0.0,0.0,0.0,-0.0287,0.0,0.1288,0.1865,0.3411,0.3951,0.0,0.0,0.0,0.0,0.0,0.0,0.0,0.0,0.0,0.0,0.0,0.0,0.0,0.0,0.0,0.0,0.0,0.0,0.0,0.0,0.0,0.0,0.0,0.0,0.0,0.0,0.0,0.0,0.0,0.0,0.0,0.0,0.0,0.0,0.0,0.0,0.0,0.0,0.0,0.0,0.0,0.0,0.0,0.0,0.0,0.0,0.0,0.0,0.0,0.0,0.0,0.0,0.0,0.0,0.0,0.0,0.0,0.0,0.0,0.0,0.0,0.0,0.0,0.0,0.0,0.0,0.0,0.0,0.0,0.0,0.0,0.0,0.0,0.0,0.0,0.0,0.0,0.0,0.0,0.0,0.0,0.0,0.0,0.0,0.0,0.0,0.0,0.0,0.0,0.0,0.0,0.0,0.0,0.0,0.0,0.0,0.0,0.0,0.0,0.0,0.0,0.0,0.0,0.0,0.0,0.0,0.0,0.0,-0.0288,0.1206,0.1314,0.1876,0.2895,0.3756,0.4314,0.0,0.0,0.0,0.0,0.0,0.0,0.0,0.0,0.0,0.0,0.0,0.0,0.0,0.0,0.0,0.0,0.0,0.0,0.0,0.0,0.0,0.0,0.0,0.0,0.0,0.0,0.0,0.0,0.0,0.0,0.0,0.0,0.0,0.0,0.0,0.0,0.0,0.0,0.0,0.0,0.0,0.0,0.0,0.0,0.0,0.0,0.0,0.0,0.0,0.0,0.0,0.0,0.0,0.0,0.0,0.0,0.0,0.0,0.0,0.0,0.0,0.0,0.0,0.0,0.0,0.0,0.0,0.0,0.0,0.0,0.0,0.0,0.0,0.0,0.0,0.0,0.0,0.0,0.0,0.0,0.0,0.0,0.0,0.0,0.0,0.0,0.0,0.0,0.0,0.0,0.0,0.0,0.0,0.0,0.0,0.0,0.0,0.0,0.0,0.0,0.0,0.0,0.0,0.0,0.0,0.0,0.0,0.0,0.0,0.2953,0.2656,0.2978,0.4316,0.4628,0.4626,0.0,0.0,0.0,0.0,0.0,0.0,0.0,0.0,0.0,0.0,0.0,0.0,0.0,0.0,0.0,0.0,0.0,0.0,0.0,0.0,0.0,0.0,0.0,0.0,0.0,0.0,0.0,0.0,0.0,0.0,0.0,0.0,0.0,0.0,0.0,0.0,0.0,0.0,0.0,0.0,0.0,0.0,0.0,0.0,0.0,0.0,0.0,0.0,0.0,0.0,0.0,0.0,0.0,0.0,0.0,0.0,0.0,0.0,0.0,0.0,0.0,0.0,0.0,0.0,0.0,0.0,0.0,0.0,0.0,0.0,0.0,0.0,0.0,0.0,0.0,0.0,0.0,0.0,0.0,0.0,0.0,0.0,0.0,0.0,0.0,0.0,0.0,0.0,0.0,0.0,0.0,0.0,0.0,0.0,0.0,0.0,0.0,0.0,0.0,0.0,0.0,0.0,0.0,0.0,0.0,0.0,0.0,0.0,0.0,0.1807,0.2508,0.3526,0.4951,0.4865,0.4701,0.4467,0.0,0.0,0.0,0.0,0.0,0.0,0.0,0.0,0.0,0.0,0.0,0.0,0.0,0.0,0.0,0.0,0.0,0.0,0.0,0.0,0.0,0.0,0.0,0.0,0.0,0.0,0.0,0.0,0.0,0.0,0.0,0.0,0.0,0.0,0.0,0.0,0.0,0.0,0.0,0.0,0.0,0.0,0.0,0.0,0.0,0.0,0.0,0.0,0.0,0.0,0.0,0.0,0.0,0.0,0.0,0.0,0.0,0.0,0.0,0.0,0.0,0.0,0.0,0.0,0.0,0.0,0.0,0.0,0.0,0.0,0.0,0.0,0.0,0.0,0.0,0.0,0.0,0.0,0.0,0.0,0.0,0.0,0.0,0.0,0.0,0.0,0.0,0.0,0.0,0.0,0.0,0.0,0.0,0.0,0.0,0.0,0.0,0.0,0.0,0.0,0.0,0.0,0.0,0.0,0.0,0.0,0.0,0.0,-0.1336,0.1253,0.329,0.4792,0.4545,0.4467,0.0,0.0,0.0,0.0,0.0,0.0,0.0,0.0,0.0,0.0,0.0,0.0,0.0,0.0,0.0,0.0,0.0,0.0,0.0,0.0,0.0,0.0,0.0,0.0,0.0,0.0,0.0,0.0,0.0,0.0,0.0,0.0,0.0,0.0,0.0,0.0,0.0,0.0,0.0,0.0,0.0,0.0,0.0,0.0,0.0,0.0,0.0,0.0,0.0,0.0,0.0,0.0,0.0,0.0,0.0,0.0,0.0,0.0,0.0,0.0,0.0,0.0,0.0,0.0,0.0,0.0,0.0,0.0,0.0,0.0,0.0,0.0,0.0,0.0,0.0,0.0,0.0,0.0,0.0,0.0,0.0,0.0,0.0,0.0,0.0,0.0,0.0,0.0,0.0,0.0,0.0,0.0,0.0,0.0,0.0,0.0,0.0,0.0,0.0,0.0,0.0,0.0,0.0,0.0,0.0,0.0,0.0,0.0,0.0,-0.1257,0.0,0.1488,0.3061,0.3522,0.391,0.0,0.0,0.0,0.0,0.0,0.0,0.0,0.0,0.0,0.0,0.0,0.0,0.0,0.0,0.0,0.0,0.0,0.0,0.0,0.0,0.0,0.0,0.0,0.0,0.0,0.0,0.0,0.0,0.0,0.0,0.0,0.0,0.0,0.0,0.0,0.0,0.0,0.0,0.0,0.0,0.0,0.0,0.0,0.0,0.0,0.0,0.0,0.0,0.0,0.0,0.0,0.0,0.0,0.0,0.0,0.0,0.0,0.0,0.0,0.0,0.0,0.0,0.0,0.0,0.0,0.0,0.0,0.0,0.0,0.0,0.0,0.0,0.0,0.0,0.0,0.0,0.0,0.0,0.0,0.0,0.0,0.0,0.0,0.0,0.0,0.0,0.0,0.0,0.0,0.0,0.0,0.0,0.0,0.0,0.0,0.0,0.0,0.0,0.0,0.0,0.0,0.0,0.0,0.0,0.0,0.0,0.0,0.0,-0.1244,-0.1335,-0.0784,0.0078,0.141,0.2582,0.3441,0.0,0.0,0.0,0.0,0.0,0.0,0.0,0.0,0.0,0.0,0.0,0.0,0.0,0.0,0.0,0.0,0.0,0.0,0.0,0.0,0.0,0.0,0.0,0.0,0.0,0.0,0.0,0.0,0.0,0.0,0.0,0.0,0.0,0.0,0.0,0.0,0.0,0.0,0.0,0.0,0.0,0.0,0.0,0.0,0.0,0.0,0.0,0.0,0.0,0.0,0.0,0.0,0.0,0.0,0.0,0.0,0.0,0.0,0.0,0.0,0.0,0.0,0.0,0.0,0.0,0.0,0.0,0.0,0.0,0.0,0.0,0.0,0.0,0.0,0.0,0.0,0.0,0.0,0.0,0.0,0.0,0.0,0.0,0.0,0.0,0.0,0.0,0.0,0.0,0.0,0.0,0.0,0.0,0.0,0.0,0.0,0.0,0.0,0.0,0.0,0.0,0.0,0.0,0.0,0.0,0.0,0.0,0.0,-0.1226,-0.1335,-0.1336,-0.0942,-0.0078,0.1721,0.2895,0.0,0.0,0.0,0.0,0.0,0.0,0.0,0.0,0.0,0.0,0.0,0.0,0.0,0.0,0.0,0.0,0.0,0.0,0.0,0.0,0.0,0.0,0.0,0.0,0.0,0.0,0.0,0.0,0.0,0.0,0.0,0.0,0.0,0.0,0.0,0.0,0.0,0.0,0.0,0.0,0.0,0.0,0.0,0.0,0.0,0.0,0.0,0.0,0.0,0.0,0.0,0.0,0.0,0.0,0.0,0.0,0.0,0.0,0.0,0.0,0.0,0.0,0.0,0.0,0.0,0.0,0.0,0.0,0.0,0.0,0.0,0.0,0.0,0.0,0.0,0.0,0.0,0.0,0.0,0.0,0.0,0.0,0.0,0.0,0.0,0.0,0.0,0.0,0.0,0.0,0.0,0.0,0.0,0.0,0.0,0.0,0.0,0.0,0.0,0.0,0.0,0.0,0.0,0.0,0.0,0.0,0.0,0.0,-0.1226,-0.1335,-0.1336,-0.1178,-0.1021,0.0862,0.2271,0.0,0.0,0.0,0.0,0.0,0.0,0.0,0.0,0.0,0.0,0.0,0.0,0.0,0.0,0.0,0.0,0.0,0.0,0.0,0.0,0.0,0.0,0.0,0.0,0.0,0.0,0.0,0.0,0.0,0.0,0.0,0.0,0.0,0.0,0.0,0.0,0.0,0.0,0.0,0.0,0.0,0.0,0.0,0.0,0.0,0.0,0.0,0.0,-0.4016,0.0,0.0,0.0,0.0,0.0,0.0,0.0,0.0,0.0,0.0,0.0,0.0,0.0,0.0,0.0,0.0,0.0,0.0,0.0,0.0,0.0,0.0,0.0,0.0,0.0,0.0,0.0,0.0,0.0,0.0,0.0,0.0,0.0,0.0,0.0,0.0,0.0,0.0,0.0,0.0,0.0,0.0,0.0,0.0,0.0,0.0,0.0,0.0,0.0,0.0,0.0,0.0,0.0,0.0,0.0,0.0,0.0,0.0,0.0,-0.1304,-0.1335,-0.1336,-0.1336,-0.1257,0.0078,0.1332,0.0,0.0,0.0,0.0,0.0,0.0,0.0,0.0,0.0,0.0,0.0,0.0,0.0,0.0,0.0,0.0,0.0,0.0,0.0,0.0,0.0,0.0,0.0,0.0,0.0,0.0,0.0,0.0,0.0,0.0,0.0,0.0,0.0,0.0,0.0,0.0,0.0,0.0,0.0,0.0,0.0,0.0,0.0,0.0,0.0,0.0,0.0,0.0,0.0,0.0,0.0,0.0,0.0,0.0,0.0,0.0,0.0,0.0,0.0,0.0,0.0,0.0,0.0,0.0,0.0,0.0,0.0,0.0,0.0,0.0,0.0,0.0,0.0,0.0,0.0,0.0,0.0,0.0,0.0,0.0,0.0,0.0,0.0,0.0,0.0,0.0,0.0,0.0,0.0,0.0,0.0,0.0,0.0,0.0,0.0,0.0,0.0,0.0,0.0,0.0,0.0,0.0,0.0,0.0,0.0,0.0,0.0,-0.1416,-0.1375,-0.1335,-0.1336,-0.1336,-0.1258,-0.0549,0.0313,0.1325,0.0,0.0,0.0,0.0,0.0,0.0,0.0,0.0,0.0,0.0,0.0,0.0,0.0,0.0,0.0,0.0,0.0,0.0,0.0,0.0,0.0,0.0,0.0,0.0,0.0,0.0,0.0,0.0,0.0,0.0,0.0,0.0,0.0,0.0,0.0,0.0,0.0,0.0,-0.1673,-0.1951,0.0,0.0,0.0,0.0,0.0,0.0,0.0,0.0,-0.372,0.0,0.0,0.0,0.0,0.0,0.0,0.0,0.0,0.0,0.0,0.0,0.0,0.0,0.0,0.0,0.0,0.0,0.0,0.0,0.0,0.0,0.0,0.0,0.0,0.0,0.0,0.0,0.0,0.0,0.0,0.0,0.0,0.0,0.0,0.0,0.0,0.0,0.0,0.0,0.0,0.0,0.0,0.0,0.0,0.0,0.0,0.0,0.0,0.0,0.0,0.0,0.0,0.0,0.0,0.0,0.0,-0.1602,-0.139,-0.1276,-0.1334,-0.1336,-0.1336,-0.1258,-0.1178,-0.07,0.0229,0.0,0.0,0.0,0.0,0.0,0.0,0.0,0.0,0.0,0.0,0.0,0.0,0.0,0.0,0.0,0.0,0.0,0.0,0.0,0.0,0.0,0.0,0.0,0.0,0.0,0.0,0.0,0.0,0.0,0.0,0.0,0.0,0.0,0.0,0.0,0.0,0.0,0.0,0.0,-0.275,-0.3025,0.0,0.0,0.0,0.0,0.0,0.0,0.0,0.0,-0.4203,0.0,0.0,0.0,0.0,0.0,0.0,0.0,0.0,0.0,0.0,0.0,0.0,0.0,0.0,0.0,0.0,0.0,0.0,0.0,0.0,0.0,0.0,0.0,0.0,0.0,0.0,0.0,0.0,0.0,0.0,0.0,0.0,0.0,0.0,0.0,0.0,0.0,0.0,0.0,0.0,0.0,0.0,0.0,0.0,0.0,0.0,0.0,0.0,0.0,0.0,0.0,0.0,0.0,0.0,0.0,-0.1709,-0.1754,-0.1728,-0.1544,-0.1466,-0.1466,-0.1304,-0.1289,-0.087,0.0,0.0,0.0,0.0,0.0,0.0,0.0,0.0,0.0,0.0,0.0,0.0,0.0,0.0,0.0,0.0,0.0,0.0,0.0,0.0,0.0,0.0,0.0,0.0,0.0,0.0,0.0,0.0,0.0,0.0,0.0,0.0,0.0,0.0,0.0,0.0,0.0,0.0,0.0,0.0,-0.3153,-0.352,-0.4325,0.0,0.0,0.0,0.0,0.0,0.0,-0.4209,-0.4408,0.0,0.0,0.0,0.0,0.0,0.0,0.0,0.0,0.0,0.0,0.0,0.0,0.0,0.0,0.0,0.0,0.0,0.0,0.0,0.0,0.0,0.0,0.0,0.0,0.0,0.0,0.0,0.0,0.0,0.0,0.0,0.0,0.0,0.0,0.0,0.0,0.0,0.0,0.0,0.0,0.0,0.0,0.0,0.0,0.0,0.0,0.0,0.0,0.0,0.0,0.0,0.0,0.0,0.0,0.0,-0.1908,-0.2068,-0.2055,-0.1764,-0.1766,-0.1682,-0.1515,-0.1489,-0.1129,0.0,0.0,0.0,0.0,0.0,0.0,0.0,0.0,0.0,0.0,0.0,0.0,0.0,0.0,0.0,0.0,0.0,0.0,0.0,0.0,0.0,0.0,0.0,0.0,0.0,0.0,0.0,0.0,0.0,0.0,0.0,0.0,0.0,0.0,0.0,0.0,0.0,0.0,0.0,0.0,0.0,-0.4042,-0.4847,-0.4981,0.0,0.0,0.0,0.0,-0.4674,-0.4693,0.0,0.0,0.0,0.0,0.0,0.0,0.0,0.0,0.0,0.0,0.0,0.0,0.0,0.0,0.0,0.0,0.0,0.0,0.0,0.0,0.0,0.0,0.0,0.0,0.0,0.0,0.0,0.0,0.0,0.0,0.0,0.0,0.0,0.0,0.0,0.0,0.0,0.0,0.0,0.0,0.0,0.0,0.0,0.0,0.0,0.0,0.0,0.0,0.0,0.0,0.0,0.0,0.0,0.0,0.0,0.0,-0.2184,-0.2085,-0.2054,-0.2016,-0.2019,-0.2019,-0.2019,-0.2013,-0.1871,0.0,0.0,0.0,0.0,0.0,0.0,0.0,0.0,0.0,0.0,0.0,0.0,0.0,0.0,0.0,0.0,0.0,0.0,0.0,0.0,0.0,0.0,0.0,0.0,0.0,0.0,0.0,0.0,0.0,0.0,0.0,0.0,0.0,0.0,0.0,0.0,0.0,0.0,0.0,0.0,0.0,-0.4885,-0.4957,-0.5353,-0.5623,0.0,0.0,-0.523,-0.521,-0.5325,0.0,0.0,0.0,0.0,0.0,0.0,0.0,0.0,0.0,0.0,0.0,0.0,0.0,0.0,0.0,0.0,0.0,0.0,0.0,0.0,0.0,0.0,0.0,0.0,0.0,0.0,0.0,0.0,0.0,0.0,0.0,0.0,0.0,0.0,0.0,0.0,0.0,0.0,0.0,0.0,0.0,0.0,0.0,0.0,0.0,0.0,0.0,0.0,0.0,0.0,0.0,0.0,0.0,0.0,0.0,-0.24,-0.2402,-0.2407,-0.2392,-0.2268,-0.227,-0.227,-0.2271,-0.2156,-0.1922,0.0,0.0,0.0,0.0,0.0,0.0,0.0,0.0,0.0,0.0,0.0,0.0,0.0,0.0,0.0,0.0,0.0,0.0,0.0,0.0,0.0,0.0,0.0,0.0,0.0,0.0,0.0,0.0,0.0,0.0,0.0,0.0,0.0,0.0,0.0,0.0,0.0,0.0,0.0,0.0,0.0,0.0,-0.5222,-0.5774,0.0,0.0,0.0,-0.582,-0.5587,0.0,0.0,0.0,0.0,0.0,0.0,0.0,0.0,0.0,0.0,0.0,0.0,0.0,0.0,0.0,0.0,0.0,0.0,0.0,0.0,0.0,0.0,0.0,0.0,0.0,0.0,0.0,0.0,0.0,0.0,0.0,0.0,0.0,0.0,0.0,0.0,0.0,0.0,0.0,0.0,0.0,0.0,0.0,0.0,0.0,0.0,0.0,0.0,0.0,0.0,0.0,0.0,0.0,0.0,0.0,0.0,0.0,-0.2624,-0.2744,-0.2739,-0.2513,-0.2604,-0.2604,-0.2513,-0.2386,0.0,0.0,0.0,0.0,0.0,0.0,0.0,0.0,0.0,0.0,0.0,0.0,0.0,0.0,0.0,0.0,0.0,0.0,0.0,0.0,0.0,0.0,0.0,0.0,0.0,0.0,0.0,-0.1274,0.0,0.0,0.0,0.0,0.0,0.0,0.0,0.0,0.0,0.0,0.0,0.0,0.0,0.0,-0.4822,-0.5555,-0.5954,-0.6193,0.0,0.0,-0.6293,-0.6072,-0.62,-0.6584,0.0,0.0,0.0,0.0,0.0,0.0,0.0,0.0,0.0,0.0,0.0,0.0,0.0,0.0,0.0,0.0,0.0,0.0,0.0,0.0,0.0,0.0,0.0,0.0,0.0,0.0,0.0,0.0,0.0,0.0,0.0,0.0,0.0,0.0,0.0,0.0,0.0,0.0,0.0,0.0,0.0,0.0,0.0,0.0,0.0,0.0,0.0,0.0,0.0,0.0,0.0,0.0,0.0,0.0,0.0,-0.2688,-0.2807,-0.2869,-0.2875,-0.2875,-0.2875,-0.2875,-0.2871,-0.2697,0.0,0.0,0.0,0.0,0.0,0.0,0.0,0.0,0.0,0.0,0.0,0.0,0.0,0.0,0.0,0.0,0.0,0.0,0.0,0.0,0.0,0.0,0.0,0.0,0.0,0.0,0.0,0.0,0.0,0.0,0.0,0.0,0.0,0.0,0.0,0.0,0.0,0.0,0.0,0.0,0.0,-0.5268,-0.5738,-0.5796,-0.5986,0.0,0.0,-0.6517,-0.6809,-0.6827,-0.7475,-0.9353,0.0,0.0,0.0,0.0,0.0,0.0,0.0,0.0,0.0,0.0,0.0,0.0,0.0,0.0,0.0,0.0,0.0,0.0,0.0,0.0,0.0,0.0,0.0,0.0,0.0,0.0,0.0,0.0,0.0,0.0,0.0,0.0,0.0,0.0,0.0,0.0,0.0,0.0,0.0,0.0,0.0,0.0,0.0,0.0,0.0,0.0,0.0,0.0,0.0,0.0,0.0,0.0,0.0,-0.3496,-0.3528,-0.3683,-0.3494,-0.2956,-0.3227,-0.3497,-0.3764,-0.3499,-0.3348,0.0,0.0,0.0,0.0,0.0,0.0,0.0,0.0,0.0,0.0,0.0,0.0,0.0,0.0,0.0,0.0,0.0,0.0,0.0,0.0,0.0,0.0,0.0,0.0,0.0,0.0,0.0,0.0,-0.2268,-0.2485,-0.2973,0.0,0.0,0.0,0.0,0.0,0.0,0.0,0.0,0.0,0.0,-0.5451,-0.6,-0.6076,0.0,0.0,-0.6812,-0.6874,-0.6853,-0.7638,-0.8627,-0.9734,-0.9905,0.0,0.0,0.0,0.0,0.0,0.0,0.0,0.0,0.0,0.0,0.0,0.0,0.0,0.0,0.0,0.0,0.0,0.0,0.0,0.0,0.0,0.0,0.0,0.0,0.0,0.0,0.0,0.0,0.0,0.0,0.0,0.0,0.0,0.0,0.0,0.0,0.0,0.0,0.0,0.0,0.0,0.0,0.0,0.0,0.0,0.0,0.0,0.0,0.0,0.0,0.0,0.0,-0.4026,-0.4026,-0.4206,-0.4028,-0.3309,-0.3673,-0.3942,-0.4297,-0.3944,-0.3903,0.0,0.0,0.0,0.0,0.0,0.0,0.0,0.0,0.0,0.0,0.0,0.0,0.0,0.0,0.0,0.0,0.0,0.0,0.0,0.0,0.0,0.0,0.0,0.0,0.0,0.0,0.0,0.0,-0.2879,-0.3152,-0.3545,0.0,0.0,0.0,0.0,0.0,0.0,0.0,0.0,0.0,0.0,-0.567,-0.6391,-0.6861,-0.7238,-0.7318,-0.7859,-0.8008,-0.7206,-0.8447,-0.9787,-1.0674,0.0,0.0,0.0,0.0,0.0,0.0,0.0,0.0,0.0,0.0,0.0,0.0,0.0,0.0,0.0,0.0,0.0,0.0,0.0,0.0,0.0,0.0,0.0,0.0,0.0,0.0,0.0,0.0,0.0,0.0,0.0,0.0,0.0,0.0,0.0,0.0,0.0,0.0,0.0,0.0,0.0,0.0,0.0,0.0,0.0,0.0,0.0,0.0,0.0,0.0,0.0,0.0,0.0,-0.4026,-0.4028,-0.4206,-0.4297,-0.4297,-0.4297,-0.43,-0.43,-0.4297,-0.4257,-0.4165,0.0,0.0,0.0,0.0,0.0,0.0,0.0,0.0,0.0,0.0,0.0,0.0,0.0,0.0,0.0,0.0,0.0,0.0,0.0,0.0,0.0,0.0,0.0,0.0,0.0,0.0,-0.2877,-0.3434,-0.4031,0.0,0.0,0.0,0.0,0.0,0.0,0.0,0.0,0.0,0.0,-0.6012,-0.6086,-0.6788,-0.8255,-0.8951,-0.8461,-0.9852,-1.0196,-0.7873,-0.9205,-1.1037,0.0,0.0,0.0,0.0,0.0,0.0,0.0,0.0,0.0,0.0,0.0,0.0,0.0,0.0,0.0,0.0,0.0,0.0,0.0,0.0,0.0,0.0,0.0,0.0,0.0,0.0,0.0,0.0,0.0,0.0,0.0,0.0,0.0,0.0,0.0,0.0,0.0,0.0,0.0,0.0,-0.5202,-0.5541,0.0,0.0,0.0,0.0,0.0,0.0,0.0,0.0,0.0,0.0,0.0,0.0,-0.536,-0.4957,-0.5172,-0.5196,-0.5196,-0.4924,-0.4924,-0.5196,-0.4924,-0.4696,-0.4681,0.0,0.0,0.0,0.0,0.0,0.0,0.0,0.0,0.0,0.0,0.0,0.0,0.0,0.0,0.0,0.0,0.0,0.0,0.0,0.0,0.0,0.0,0.0,0.0,0.0,-0.3657,0.0,0.0,0.0,0.0,0.0,0.0,0.0,0.0,0.0,0.0,0.0,-0.651,-0.6707,-0.6633,-0.6633,-0.7026,-0.8124,-0.8899,0.0,0.0,0.0,0.0,0.0,0.0,0.0,0.0,0.0,0.0,0.0,0.0,0.0,0.0,-1.2391,-1.1678,-1.1666,-1.1703,-1.146,0.0,0.0,0.0,0.0,0.0,0.0,0.0,0.0,0.0,0.0,0.0,0.0,0.0,0.0,0.0,0.0,-0.43,0.0,0.0,0.0,0.0,0.0,0.0,0.0,0.0,-0.569,-0.567,-0.5664,-0.6172,-0.6342,0.0,-0.6922,-0.6922,0.0,0.0,0.0,0.0,0.0,0.0,0.0,0.0,-0.5849,-0.5439,-0.5629,-0.5733,-0.5733,-0.5371,-0.5371,-0.5733,-0.5371,-0.5247,-0.5175,-0.4957,-0.482,0.0,0.0,0.0,0.0,0.0,0.0,0.0,0.0,0.0,0.0,0.0,0.0,0.0,0.0,0.0,0.0,0.0,0.0,0.0,0.0,0.0,0.0,0.0,-0.4867,0.0,0.0,0.0,0.0,0.0,0.0,0.0,0.0,0.0,-0.6783,-0.6729,-0.6868,-0.7096,-0.7015,-0.7165,-0.7863,0.0,0.0,0.0,0.0,0.0,0.0,0.0,-1.2553,-1.3395,-1.3404,-1.3273,-1.3273,-1.3419,-1.3492,-1.3492,0.0,0.0,-1.2513,-1.2344,-1.2239,-1.2201,-1.1492,-1.1121,-1.1762,-1.1727,-1.1598,0.0,0.0,0.0,0.0,0.0,0.0,0.0,0.0,-0.4529,-0.461,0.0,0.0,0.0,0.0,0.0,0.0,0.0,0.0,0.0,0.0,-0.6186,-0.608,-0.6166,-0.721,-0.7658,-0.7485,-0.765,-0.7822,-0.7811,-0.8018,0.0,0.0,0.0,0.0,0.0,0.0,-0.5551,-0.5551,-0.567,-0.5733,-0.5733,-0.5735,-0.5733,-0.5733,-0.5733,-0.573,-0.5727,-0.5264,-0.494,-0.4932,-0.4661,0.0,0.0,0.0,0.0,0.0,0.0,0.0,0.0,0.0,0.0,0.0,0.0,0.0,0.0,0.0,0.0,0.0,0.0,0.0,0.0,-0.5277,0.0,0.0,0.0,0.0,0.0,0.0,0.0,0.0,0.0,0.0,-0.8089,-0.7476,-0.7253,-0.7557,0.0,0.0,0.0,0.0,-1.0795,-1.1558,-1.2526,-1.3119,-1.3112,-1.3339,-1.3492,-1.3492,0.0,0.0,-1.3492,-1.3492,-1.3492,-1.3492,-1.3492,-1.3397,-1.3082,-1.2868,-1.2767,-1.2567,-1.2058,-1.1927,-1.2308,-1.2151,-1.1906,-0.5059,0.0,0.0,0.0,0.0,-0.4974,-0.5004,-0.5032,-0.5121,-0.5204,-0.5113,-0.5248,0.0,0.0,0.0,0.0,0.0,0.0,-0.6114,-0.6328,-0.6449,-0.6427,-0.634,-0.6877,-0.6962,-0.6782,-0.7654,-0.7918,-0.7658,-0.8517,-0.7975,-0.609,0.0,0.0,0.0,0.0,-0.6494,-0.6076,-0.6104,-0.6169,-0.6169,-0.6169,-0.6166,-0.6166,-0.6169,-0.6169,-0.6169,-0.6042,-0.5982,-0.5895,-0.565,0.0,0.0,0.0,0.0,0.0,0.0,0.0,0.0,0.0,0.0,0.0,0.0,0.0,0.0,0.0,0.0,0.0,0.0,0.0,-0.518,-0.6409,-0.7199,0.0,0.0,0.0,0.0,0.0,0.0,0.0,0.0,0.0,-1.0357,-0.9135,-0.8385,0.0,0.0,-0.9331,-1.0034,-1.0899,-1.1589,-1.1842,0.0,0.0,0.0,-1.3419,-1.3492,-1.3492,-1.3492,-1.3492,-1.3492,-1.3492,-1.3492,-1.3492,-1.3492,-1.3462,-1.3382,-1.3353,-1.3316,-1.3236,-1.3049,-1.2977,-1.3167,-1.3038,-1.2949,-0.5903,-0.5761,-0.5206,-0.5188,-0.5442,-0.5439,-0.5469,-0.5515,-0.5515,-0.5598,-0.5678,-0.563,-0.5692,-0.5951,-0.5898,0.0,0.0,0.0,-0.6443,-0.6663,-0.6663,-0.6621,-0.6605,-0.7139,-0.7312,-0.7132,-0.783,-0.8093,-0.7925,-0.8536,-0.7956,-0.6315,0.0,0.0,-0.6028,-0.6618,-0.666,-0.6318,-0.6392,-0.6428,-0.6428,-0.6428,-0.6428,-0.6428,-0.6428,-0.6428,-0.6428,-0.6428,-0.6395,-0.6318,-0.618,-0.6199,0.0,0.0,0.0,0.0,0.0,0.0,0.0,0.0,0.0,0.0,0.0,-0.5101,-0.5084,0.0,0.0,0.0,-0.5544,-0.5854,-0.6015,-0.7173,0.0,0.0,0.0,0.0,0.0,0.0,0.0,-1.0692,-1.0816,-1.0917,-1.1105,-1.0484,-0.9954,-0.989,-1.026,-1.0708,-1.1168,0.0,-1.2743,-1.2686,-1.2748,-1.3005,-1.3652,-1.363,-1.3484,-1.3572,-1.371,-1.3622,-1.3535,-1.3615,-1.3702,-1.3783,-1.3992,-1.4209,-1.4129,-1.3822,-1.3497,-1.3615,-1.355,-1.3526,-1.3461,-1.3494,-1.3645,-0.6447,-0.6349,-0.5785,-0.5561,-0.5564,-0.5564,-0.5627,-0.573,-0.573,-0.5908,-0.6074,-0.5959,-0.6079,-0.6337,-0.621,0.0,0.0,-0.6592,-0.675,-0.7139,-0.6881,-0.6792,-0.6881,-0.7658,-0.8093,-0.8093,-0.8181,-0.8356,-0.8452,-0.8356,-0.7921,-0.7054,-0.7492,-0.7309,-0.652,-0.6428,-0.6428,-0.6428,-0.6428,-0.6428,-0.6428,-0.6428,-0.6428,-0.6428,-0.6428,-0.6428,-0.6428,-0.6428,-0.6428,-0.6425,-0.6496,-0.643,-0.6337,0.0,0.0,0.0,0.0,0.0,0.0,0.0,0.0,0.0,0.0,0.0,0.0,0.0,0.0,0.0,-0.6139,0.0,-0.6758,-0.7594,0.0,0.0,0.0,-1.0058,-1.0751,-1.0857,-1.1004,-1.1202,0.0,0.0,0.0,0.0,-1.1893,-1.1222,-1.1465,-1.1845,-1.2338,-1.3346,-1.4094,-1.3888,-1.4015,-1.4059,-1.4106,-1.379,-1.3688,-1.3935,-1.4065,-1.4027,-1.3742,-1.4083,-1.4266,-1.4418,-1.484,-1.5267,-1.5275,-1.4457,-1.3769,-1.4091,-1.3867,-1.3633,-1.3742,-1.4041,-1.467,-0.6678,-0.6578,-0.6352,-0.6207,-0.621,-0.621,-0.6228,-0.6254,-0.6254,-0.6254,-0.634,-0.6307,-0.6386,-0.6653,-0.6792,-0.688,-0.7001,-0.6997,-0.7017,-0.7139,-0.7054,-0.7054,-0.7054,-0.7228,-0.7401,-0.7401,-0.8105,-0.8452,-0.854,-0.9139,-0.9401,-0.9139,-0.9314,-0.8444,-0.6789,-0.6877,-0.6962,-0.6962,-0.6962,-0.6962,-0.6962,-0.6962,-0.6962,-0.6962,-0.6962,-0.6962,-0.6962,-0.6962,-0.6962,-0.6962,-0.6933,-0.6913,-0.6913,-0.7049,0.0,0.0,0.0,0.0,0.0,0.0,0.0,0.0,0.0,-0.6118,-0.6169,0.0,-0.643,0.0,-0.7004,-0.7167,-0.7252,-0.7975,0.0,0.0,-1.0365,-1.1164,-1.1317,-1.1982,-1.2444,-1.2499,-1.3443,-1.3952,-1.3691,-1.3761,-1.3838,-1.367,-1.3473,-1.3386,-1.3262,-1.4037,-1.4727,-1.4767,-1.4434,-1.4201,-1.4357,-1.4217,-1.4129,-1.4776,-1.4927,-1.4704,-1.4057,-1.4969,-1.5903,-1.6167,-1.614,-1.6035,-1.6035,-1.5774,-1.5739,-1.5834,-1.5101,-1.4449,-1.4903,-1.6377,-1.7596,-0.7102,-0.7095,-0.7015,-0.6944,-0.6789,-0.6545,-0.6428,-0.6428,-0.6428,-0.6517,-0.6609,-0.6697,-0.6789,-0.6969,-0.7054,-0.7139,-0.7139,-0.7139,-0.7139,-0.7139,-0.7139,-0.7139,-0.7139,-0.7492,-0.7757,-0.7753,-0.8711,-0.9148,-0.9148,-1.0014,-1.0269,-0.9923,-1.0274,-0.9753,-0.8273,-0.7841,-0.7492,-0.7139,-0.7139,-0.7139,-0.7139,-0.7139,-0.7139,-0.7139,-0.7139,-0.7139,-0.7139,-0.7139,-0.7139,-0.7139,-0.7139,-0.7139,-0.7139,-0.7068,-0.7149,0.0,0.0,0.0,0.0,0.0,0.0,0.0,0.0,0.0,0.0,0.0,-0.7202,0.0,-0.762,0.0,-0.7529,-0.8505,-0.9269,-0.9683,-1.0838,-1.1735,-1.2065,-1.273,-1.3173,-1.3509,-1.4273,-1.4766,-1.4621,-1.4699,-1.4777,-1.4777,-1.4747,-1.448,-1.399,-1.4562,-1.5255,-1.5358,-1.5196,-1.4874,-1.4689,-1.4425,-1.4561,-1.5196,-1.5409,-1.5421,-1.5331,-1.5974,-1.6848,-1.765,-1.7408,-1.706,-1.706,-1.7307,-1.758,-1.758,-1.7163,-1.6524,-1.6171,-1.7693,-1.8853,-0.7628,-0.7624,-0.7607,-0.7519,-0.739,-0.6805,-0.6551,-0.652,-0.652,-0.6612,-0.6884,-0.7054,-0.7139,-0.7139,-0.7139,-0.7139,-0.7139,-0.7139,-0.7139,-0.7139,-0.7139,-0.7139,-0.7139,-0.7929,-0.8368,-0.854,-0.9492,-1.0014,-1.0101,-1.1058,-1.1058,-1.0356,-1.1063,-1.1058,-1.0096,-0.9323,-0.8277,-0.7139,-0.7139,-0.7139,-0.7139,-0.7139,-0.7139,-0.7139,-0.7139,-0.7139,-0.7143,-0.7143,-0.7143,-0.7228,-0.7139,-0.7139,-0.7143,-0.7231,-0.7231,0.0,-0.7143,0.0,0.0,0.0,0.0,0.0,0.0,0.0,0.0,-0.7677,-0.8105,-0.898,-0.8521,-0.8247,-0.8247,-0.9302,-1.0115,-1.0475,-1.1405,-1.2318,-1.308,-1.3415,-1.3736,-1.4302,-1.4653,-1.4881,-1.4904,-1.5116,-1.5209,-1.5263,-1.5461,-1.5325,-1.4661,-1.5178,-1.5713,-1.5834,-1.6008,-1.5787,-1.5388,-1.5072,-1.5234,-1.5837,-1.6228,-1.6386,-1.7075,-1.7235,-1.7586,-1.8655,-1.8496,-1.8104,-1.8172,-1.8654,-1.9065,-1.8998,-1.8911,-1.8516,-1.76,-1.8124,-1.9039,-0.7674,-0.776,-0.7648,-0.758,-0.7556,-0.7429,-0.7187,-0.6966,-0.6962,-0.6962,-0.7051,-0.7051,-0.7139,-0.7139,-0.7139,-0.7139,-0.7139,-0.7139,-0.7139,-0.7139,-0.7139,-0.7139,-0.7139,-0.7316,-0.7753,-0.8544,-0.9492,-1.0274,-1.1063,-1.2009,-1.2357,-1.218,-1.2357,-1.1923,0.0,0.0,0.0,0.0,-0.7139,-0.7139,-0.7139,-0.7139,-0.7139,-0.7139,-0.7139,0.0,-0.7415,-0.7415,-0.7499,-0.7676,-0.7319,0.0,0.0,0.0,0.0,0.0,0.0,0.0,0.0,0.0,0.0,0.0,-0.8032,-0.8016,-0.8107,-0.913,-1.0186,-1.1214,-1.1225,-1.1165,-1.1165,-1.142,-1.1951,-1.2849,-1.3193,-1.3794,-1.4733,-1.4906,-1.5051,-1.5173,-1.5397,-1.5546,-1.5524,-1.5725,-1.5881,-1.5947,-1.6098,-1.609,-1.5731,-1.5963,-1.6269,-1.6458,-1.6349,-1.6583,-1.7401,-1.6931,-1.6898,-1.8089,-1.8328,-1.8267,-1.8508,-1.8642,-1.8674,-1.9153,-1.8983,-1.8895,-1.8885,-1.9008,-1.9085,-1.9142,-1.9142,-1.8998,-1.8747,-1.8865,-1.9106,-0.7923,0.0,-0.7848,-0.7773,0.0,0.0,-0.7577,-0.737,-0.7366,-0.7326,-0.7255,-0.7255,-0.7214,-0.7139,-0.7139,-0.7139,-0.7139,-0.7139,-0.7183,-0.7255,-0.7255,-0.7295,-0.7366,-0.7811,-0.8261,-0.8808,-0.9701,-1.0597,-1.1583,-1.2115,-1.2562,-1.3103,-1.3197,-1.3021,-1.2574,-1.2386,-1.0931,-0.8189,-0.758,-0.7319,-0.7496,-0.7496,-0.7496,-0.7496,0.0,0.0,0.0,0.0,0.0,0.0,0.0,0.0,0.0,0.0,0.0,-0.768,-0.7856,-0.794,-0.8028,-0.8028,-0.8116,-0.8384,-0.8464,-0.854,-0.8416,-0.9648,-1.137,-1.3416,-1.2679,-1.198,-1.198,-1.2498,-1.3105,-1.362,-1.4223,-1.4817,-1.5257,-1.5499,-1.5582,-1.5582,-1.5816,-1.6064,-1.6064,-1.6245,-1.6409,-1.6409,-1.6492,-1.6476,-1.646,-1.6476,-1.6617,-1.6692,-1.6853,-1.7267,-1.8406,-1.8124,-1.7933,-1.8991,-1.9134,-1.9019,-1.9073,-1.9502,-1.9737,-1.9748,-1.9748,-1.9737,-1.9706,-1.9384,-1.9199,-1.9365,-1.9297,-1.9142,-1.9131,-1.9131,-1.9131,-0.8038,-0.8038,-0.8038,-0.7967,-0.7851,-0.7851,-0.7787,-0.7672,0.0,0.0,0.0,-0.7411,-0.7339,-0.7224,-0.7131,-0.7131,-0.7221,-0.7221,-0.7288,-0.7407,-0.7411,-0.7478,-0.7597,-0.8337,-0.8796,-0.9072,-0.9815,-1.0653,-1.1574,-1.1849,-1.2403,-1.3229,-1.3513,-1.361,-1.3423,-1.3132,-1.1828,-0.9786,-0.852,-0.7886,-0.7944,-0.7944,-0.7944,-0.7944,-0.7944,-0.7944,-0.7944,-0.794,-0.7944,-0.8032,-0.8032,-0.8028,-0.794,-0.8032,-0.8028,-0.7944,-0.8032,-0.8116,-0.8292,-0.8292,-0.838,-0.8652,-0.8911,-0.8965,-0.8719,-1.0067,-1.2158,-1.512,-1.373,-1.2583,-1.2583,-1.3444,-1.4041,-1.4041,-1.4901,-1.5514,-1.5514,-1.5665,-1.5741,-1.5816,-1.6064,-1.6386,-1.6386,-1.6558,-1.673,-1.673,-1.6656,-1.682,-1.6902,-1.7163,-1.7098,-1.6782,-1.7296,-1.8273,-1.9315,-1.9156,-1.8974,-1.9698,-1.9746,-1.9588,-1.9715,-2.0002,-2.042,-2.0644,-2.0523,-2.0389,-2.0308,-1.9827,-1.9492,-1.9851,-1.9483,-1.9116,-1.9116,-1.9215,-1.9282,-0.8038,-0.8038,-0.8038,-0.8028,-0.8007,-0.8007,-0.7994,-0.7953,-0.7709,-0.7587,-0.7567,-0.7473,-0.7456,-0.7533,-0.7436,-0.7439,-0.7536,-0.7536,-0.7546,0.0,-0.757,-0.7577,-0.7597,-0.7695,-0.8247,-0.8979,-0.9169,-0.9722,-1.0653,-1.1482,-1.2118,-1.2392,-1.2484,-1.2318,-1.1941,-1.258,-1.245,-1.1642,-1.0102,-0.8877,-0.7948,-0.7944,-0.7944,-0.7944,-0.7948,-0.794,-0.8113,-0.8201,-0.8292,-0.8476,-0.8476,-0.8384,-0.8201,-0.8384,-0.8384,-0.8201,-0.8384,-0.848,-0.8568,-0.8568,-0.8652,-0.8823,-0.9257,-0.9405,-0.926,-1.0924,-1.2979,-1.5085,-1.4986,-1.4908,-1.4992,-1.5151,-1.5311,-1.5394,-1.5741,-1.6012,-1.6012,-1.6004,-1.5997,-1.5899,-1.6147,-1.6386,-1.6386,-1.6558,-1.673,-1.673,-1.6772,-1.696,-1.7781,-1.8458,-1.8247,-1.7276,-1.8057,-1.9621,-2.0809,-2.0682,-2.0532,-2.1298,-2.1015,-2.0884,-2.1146,-2.0845,-2.0761,-2.146,-2.0936,-2.0514,-2.0483,-2.0308,-2.0246,-2.0327,-1.9808,-1.9284,-1.9244,-1.9706,-2.0004,-0.8038,-0.8038,-0.8038,-0.8038,-0.8038,-0.8038,-0.8038,-0.8028,-0.7899,-0.779,-0.7818,-0.7716,-0.777,-0.7795,-0.7792,-0.7695,-0.7597,-0.7597,-0.7638,-0.7709,-0.7716,-0.776,-0.7834,-0.7838,-0.8028,-0.8408,-0.8408,-0.8983,-0.994,-1.0605,-1.1267,-1.1926,-1.2698,-1.2797,-1.222,-1.3168,-1.2907,-1.1465,-1.0518,-0.9822,-0.9375,-0.8844,-0.858,-0.8576,-0.8489,-0.843,-0.852,-0.8432,-0.8476,-0.8572,-0.8572,-0.8568,-0.8388,-0.8568,-0.8568,-0.8388,-0.8568,-0.8572,-0.8572,-0.8652,-0.8828,-0.8911,-0.934,-0.9557,-0.9284,-1.1235,-1.3313,-1.5141,-1.5413,-1.5423,-1.5582,-1.5658,-1.5741,-1.5906,-1.6004,-1.6095,-1.6095,-1.6162,-1.6237,-1.6139,-1.6386,-1.6566,-1.6558,-1.6648,-1.6894,-1.7196,-1.7073,-1.7393,-1.9079,-2.0065,-2.0036,-1.8599,-1.9178,-2.0294,-2.1537,-2.1486,-2.1415,-2.1731,-2.1631,-2.1603,-2.1795,-2.1375,-2.1397,-2.1692,-2.1397,-2.1186,-2.1155,-2.1167,-2.1053,-2.0793,-2.0771,-2.041,-2.0122,-2.0512,-2.0797,-0.8038,-0.8038,-0.8038,-0.8038,-0.8038,-0.8038,-0.8038,-0.8038,-0.8038,-0.7977,-0.7973,-0.7966,-0.8,-0.7999,-0.7995,-0.7896,-0.7699,-0.7699,-0.7756,-0.7855,-0.7862,-0.7926,-0.8031,-0.8038,-0.8038,-0.8038,-0.8035,-0.8428,-0.9312,-0.9596,-1.0382,-1.1755,-1.3022,-1.3221,-1.2339,-1.342,-1.2934,-1.1034,-1.0683,-1.0459,-1.0283,-0.9461,-0.9096,-0.9088,-0.8958,-0.8881,-0.8877,-0.8755,-0.867,-0.8629,-0.8625,-0.8609,-0.8572,-0.8572,-0.8572,-0.8572,-0.8572,-0.8572,-0.8656,-0.8823,-0.8995,-0.8999,-0.9602,-0.9803,-0.9695,-1.1651,-1.373,-1.5259,-1.5551,-1.559,-1.5741,-1.5816,-1.5989,-1.6162,-1.617,-1.6252,-1.6252,-1.6402,-1.6476,-1.6386,-1.6558,-1.6722,-1.669,-1.687,-1.7367,-1.8035,-1.7732,-1.8223,-2.0081,-2.1238,-2.1178,-2.0469,-2.0372,-2.1001,-2.1655,-2.1731,-2.1731,-2.1807,-2.1797,-2.1766,-2.1766,-2.1787,-2.1797,-2.1756,-2.1776,-2.1725,-2.1756,-2.1741,-2.1617,-2.1354,-2.1387,-2.1693,-2.2083,-2.2531,-2.2353,-0.8038,-0.8038,-0.8038,-0.8038,-0.8038,-0.8038,-0.8038,-0.8038,-0.8038,-0.8031,-0.8011,-0.8021,-0.8007,-0.8004,-0.7987,-0.7984,-0.7984,-0.7997,-0.7997,-0.8007,-0.8018,-0.8028,-0.8038,-0.8038,-0.8038,-0.8038,-0.8028,-0.8226,-0.8623,-0.8689,-0.9955,-1.2042,-1.263,-1.2339,-1.1565,-1.2344,-1.2328,-1.1239,-1.1123,-1.0459,-0.9299,-0.9189,-0.9096,-0.9096,-0.9084,-0.9072,-0.9072,-0.9056,-0.8966,-0.8816,-0.88,-0.8727,-0.8597,-0.8572,-0.8572,-0.8572,-0.8572,-0.8572,-0.8656,-0.9003,-0.9262,-0.9345,-1.0381,-1.0773,-1.0196,-1.2372,-1.4573,-1.5612,-1.5763,-1.5748,-1.6004,-1.6154,-1.6312,-1.6312,-1.6484,-1.6648,-1.6656,-1.6648,-1.6648,-1.6648,-1.6714,-1.6675,-1.679,-1.7421,-1.823,-1.9027,-1.9187,-1.9347,-2.0411,-2.1272,-2.1783,-2.1548,-2.1645,-2.1645,-2.1807,-2.1807,-2.1807,-2.1807,-2.1807,-2.1797,-2.1787,-2.1863,-2.1807,-2.2241,-2.2025,-2.2025,-2.1949,-2.1766,-2.1876,-2.1987,-2.219,-2.2611,-2.5013,-2.5661,-2.4897,-0.8038,-0.8038,-0.8038,-0.8038,-0.8038,-0.8038,-0.8038,-0.8038,-0.8038,-0.8038,-0.8038,-0.8038,-0.8038,-0.8038,-0.8038,-0.8038,-0.8038,-0.8038,-0.8038,-0.8038,-0.8038,-0.8035,-0.8237,-0.8041,-0.8137,-0.8432,-0.8124,-0.8223,-0.8623,-0.8814,-0.96,-1.0694,-1.1468,-1.1272,-1.04,-1.1272,-1.1272,-1.0306,-1.0203,-1.0227,-1.028,-0.9694,-0.9413,-0.9401,-0.9307,-0.9246,-0.9238,-0.9153,-0.9064,-0.8991,-0.8982,-0.8905,-0.8723,-0.8714,-0.867,-0.8584,-0.8572,-0.8652,-0.874,-0.9087,-0.9607,-1.0212,-1.0895,-1.1375,-1.1645,-1.3146,-1.4559,-1.5484,-1.5582,-1.5673,-1.6004,-1.6162,-1.6327,-1.6492,-1.6648,-1.673,-1.673,-1.673,-1.6698,-1.6766,-1.7147,-1.726,-1.7053,-1.8189,-1.9376,-1.9963,-2.0382,-2.0854,-2.1242,-2.1568,-2.1731,-2.1807,-2.1807,-2.1807,-2.1807,-2.1807,-2.1807,-2.1807,-2.1807,-2.1787,-2.1858,-2.2253,-2.2617,-2.3043,-2.3032,-2.3032,-2.3254,-2.2881,-2.2837,-2.2922,-2.3234,-2.3876,-2.608,-2.6507,-2.5931,-0.8038,-0.8038,-0.8038,-0.8038,-0.8038,-0.8038,-0.8038,-0.8038,-0.8038,-0.8038,-0.8038,-0.8038,-0.8038,-0.8038,-0.8038,-0.8038,-0.8038,-0.8041,-0.8038,-0.8038,-0.8137,-0.8336,-0.8333,-0.8333,-0.8432,-0.8722,-0.8421,-0.852,-0.9023,-0.9229,-0.9525,-1.001,-1.0498,-1.0498,-1.0109,-1.0592,-1.0498,-1.0109,-0.9821,-1.0207,-1.1268,-1.0596,-1.0015,-1.0002,-1.0268,-1.0097,-0.9522,-0.9594,-0.9493,-0.9169,-0.9165,-0.9088,-0.8909,-0.8848,-0.8747,-0.8677,-0.8911,-0.917,-0.9253,-0.9772,-1.0463,-1.1322,-1.1746,-1.2322,-1.2952,-1.384,-1.4727,-1.5304,-1.5492,-1.5665,-1.6087,-1.617,-1.6335,-1.6648,-1.673,-1.673,-1.7049,-1.7049,-1.6968,-1.6862,-1.77,-1.8231,-1.8101,-1.9375,-2.0653,-2.0847,-2.1405,-2.1807,-2.1807,-2.1807,-2.1807,-2.1807,-2.1807,-2.1807,-2.1807,-2.1807,-2.1894,-2.2315,-2.2401,-2.2146,-2.1988,-2.2624,-2.3801,-2.4384,-2.4307,-2.4059,-2.3829,-2.3654,-2.3709,-2.3948,-2.4188,-2.4696,-2.6177,-2.6427,-2.6502,-0.8038,-0.8038,-0.8038,-0.8038,-0.8038,-0.8038,-0.8038,-0.8038,-0.8038,-0.8038,-0.8038,-0.8038,-0.8038,-0.8038,-0.8038,-0.8038,-0.8038,-0.8237,-0.8237,-0.8038,-0.8531,-0.8627,-0.8432,-0.8627,-0.8825,-0.8825,-0.8722,-0.9023,-0.9529,-0.9529,-1.0109,-1.0979,-1.0207,-1.0212,-1.069,-1.0113,-1.0207,-1.0881,-1.0207,-1.0596,-1.2242,-1.1663,-1.117,-1.1268,-1.2032,-1.1536,-1.0092,-1.0569,-1.0568,-0.9448,-0.944,-0.9358,-0.9189,-0.8917,-0.8833,-0.8777,-0.9593,-1.0183,-1.0361,-1.13,-1.2072,-1.2413,-1.319,-1.3866,-1.3749,-1.4629,-1.5257,-1.5431,-1.5575,-1.5824,-1.6312,-1.6394,-1.6484,-1.6722,-1.673,-1.7131,-1.7836,-1.7917,-1.7523,-1.7242,-1.8347,-1.9455,-2.0178,-2.1145,-2.1482,-2.1645,-2.1731,-2.1807,-2.1807,-2.1807,-2.1807,-2.1807,-2.1807,-2.1807,-2.1807,-2.1959,-2.2574,-2.3121,-2.3075,-2.2774,-2.2725,-2.3034,-2.4548,-2.5444,-2.4956,-2.4515,-2.4192,-2.4135,-2.4269,-2.4448,-2.446,-2.5119,-2.632,-2.6421,-2.6521,-0.8038,-0.8038,-0.8038,-0.8038,-0.8038,-0.8038,-0.8038,-0.8038,-0.8038,-0.8038,-0.8038,-0.8038,-0.8038,-0.8038,-0.8038,-0.8137,-0.8233,-0.8237,-0.8137,-0.8233,-0.8432,-0.8627,-0.8627,-0.8726,-0.9023,-0.9225,-0.8924,-0.9126,-0.9525,-0.9624,-0.9821,-1.001,-0.9821,-0.9821,-1.0015,-0.9821,-1.0109,-1.1072,-1.0788,-1.1663,-1.3516,-1.3318,-1.3221,-1.3125,-1.2829,-1.2339,-1.1565,-1.195,-1.191,-1.1545,-1.0872,-1.0495,-1.0292,-0.9889,-0.9683,-0.9696,-1.0614,-1.1219,-1.1397,-1.1906,-1.2674,-1.3366,-1.3795,-1.43,-1.4734,-1.5166,-1.5431,-1.5431,-1.5423,-1.5906,-1.6706,-1.6632,-1.6714,-1.7367,-1.7521,-1.7917,-1.855,-1.8859,-1.8691,-1.8686,-1.983,-2.1001,-2.1175,-2.1645,-2.1807,-2.1807,-2.1807,-2.1807,-2.1807,-2.1807,-2.1883,-2.1883,-2.2241,-2.2414,-2.1805,-2.2328,-2.2874,-2.3542,-2.3768,-2.3693,-2.3655,-2.4105,-2.5409,-2.5966,-2.556,-2.5465,-2.5276,-2.5346,-2.5332,-2.5402,-2.5399,-2.5481,-2.6358,-2.6452,-2.6521,-0.8038,-0.8038,-0.8038,-0.8038,-0.8038,-0.8038,-0.8038,-0.8038,-0.8038,-0.8038,-0.8038,-0.8038,-0.8038,-0.8038,-0.8038,-0.8237,-0.8432,-0.8336,-0.8336,-0.8432,-0.863,-0.8829,-0.8825,-0.8924,-0.9229,-0.9529,-0.9229,-0.9225,-0.9529,-0.9624,-0.9624,-0.9628,-0.9624,-0.9624,-0.9624,-0.992,-1.0596,-1.1468,-1.1658,-1.2727,-1.4484,-1.4484,-1.449,-1.4682,-1.4088,-1.3312,-1.2732,-1.3022,-1.3022,-1.2635,-1.2047,-1.1559,-1.1427,-1.1061,-1.0829,-1.0875,-1.1772,-1.2416,-1.2534,-1.3021,-1.3704,-1.4398,-1.4566,-1.4824,-1.5347,-1.5431,-1.5431,-1.5431,-1.5748,-1.6394,-1.7025,-1.7269,-1.7594,-1.831,-1.839,-1.8789,-1.9502,-1.9659,-1.9847,-2.0159,-2.0998,-2.1634,-2.1807,-2.1807,-2.1807,-2.1807,-2.1821,-2.1866,-2.208,-2.2381,-2.2531,-2.2606,-2.3043,-2.308,-2.3043,-2.3414,-2.4185,-2.4811,-2.4599,-2.459,-2.4743,-2.531,-2.5734,-2.6233,-2.6521,-2.6521,-2.6521,-2.6521,-2.6521,-2.6521,-2.6277,-2.6171,-2.6452,-2.6452,-2.6521,-0.8038,-0.8038,-0.8038,-0.8038,-0.8038,-0.8038,-0.8038,-0.8038,-0.8038,-0.8038,-0.8038,-0.8038,-0.8038,-0.8038,-0.8038,-0.8336,-0.8726,-0.8726,-0.863,-0.8531,-0.913,-0.9229,-0.8928,-0.9324,-0.9525,-0.9624,-0.9624,-0.9624,-0.9628,-0.9624,-0.9624,-0.9624,-0.9624,-0.9723,-0.9723,-1.0596,-1.1663,-1.2436,-1.2727,-1.3698,-1.5445,-1.4873,-1.4873,-1.5635,-1.5635,-1.4758,-1.2926,-1.3806,-1.3902,-1.3017,-1.2829,-1.2614,-1.2436,-1.2427,-1.2248,-1.207,-1.3091,-1.3633,-1.3593,-1.4489,-1.509,-1.5257,-1.534,-1.5347,-1.5347,-1.5514,-1.5514,-1.5673,-1.6386,-1.7107,-1.7577,-1.831,-1.8957,-1.9265,-1.9353,-1.9668,-2.0304,-2.0537,-2.0769,-2.1461,-2.1731,-2.1807,-2.1807,-2.2067,-2.2143,-2.2145,-2.1901,-2.2137,-2.2947,-2.3615,-2.4093,-2.3975,-2.3963,-2.3956,-2.4329,-2.4755,-2.5562,-2.6135,-2.5632,-2.5392,-2.573,-2.6164,-2.6094,-2.6521,-2.6521,-2.6521,-2.6521,-2.6521,-2.6521,-2.6521,-2.6521,-2.6521,-2.6521,-2.6521,-2.6521,-0.8038,-0.8038,-0.8038,-0.8038,-0.8038,-0.8038,-0.8038,-0.8038,-0.8038,-0.8038,-0.8038,-0.8038,-0.8038,-0.8038,-0.8137,-0.8432,-0.8825,-0.8825,-0.8829,-0.9031,-0.9232,-0.9236,-0.9133,-0.943,-0.9624,-0.9624,-0.9624,-0.9624,-0.9624,-0.9624,-0.9624,-0.9624,-0.9624,-1.0015,-1.0694,-1.1077,-1.2052,-1.3613,-1.3806,-1.4484,-1.5635,-1.554,-1.554,-1.573,-1.5825,-1.5445,-1.4854,-1.5159,-1.5153,-1.4765,-1.419,-1.3476,-1.2896,-1.3119,-1.3327,-1.3341,-1.416,-1.4729,-1.4706,-1.5028,-1.5431,-1.5431,-1.5431,-1.5431,-1.5506,-1.5989,-1.6221,-1.6386,-1.7188,-1.7989,-1.8939,-1.9344,-1.9747,-2.006,-2.0138,-2.0459,-2.1175,-2.1318,-2.1492,-2.1731,-2.1807,-2.2035,-2.2585,-2.295,-2.3389,-2.3158,-2.2483,-2.2364,-2.3616,-2.4833,-2.5132,-2.4441,-2.4599,-2.4779,-2.4838,-2.5344,-2.6235,-2.6706,-2.6466,-2.5938,-2.6332,-2.6578,-2.6553,-2.6521,-2.6521,-2.6521,-2.6521,-2.6521,-2.6521,-2.6521,-2.6521,-2.6521,-2.6521,-2.6521,-2.6521,-0.8038,-0.8038,-0.8038,-0.8038,-0.8038,-0.8038,-0.8038,-0.8038,-0.8038,-0.8038,-0.8038,-0.8038,-0.8141,-0.824,-0.8336,-0.8627,-0.8931,-0.8829,-0.9027,-0.9232,-0.9236,-0.9236,-0.9236,-0.9533,-0.9624,-0.9624,-0.9624,-0.9624,-0.9628,-1.0015,-1.0207,-1.0207,-1.06,-1.1082,-1.176,-1.2242,-1.313,-1.4196,-1.4675,-1.5159,-1.5635,-1.5825,-1.5825,-1.5825,-1.5825,-1.5825,-1.5825,-1.5825,-1.5825,-1.573,-1.5159,-1.4478,-1.3968,-1.4306,-1.4546,-1.4555,-1.495,-1.5329,-1.5196,-1.5254,-1.5431,-1.5431,-1.5431,-1.559,-1.5906,-1.646,-1.678,-1.7269,-1.7997,-1.8877,-1.959,-2.0226,-2.0547,-2.0867,-2.0944,-2.1252,-2.1721,-2.179,-2.1952,-2.2103,-2.2008,-2.2381,-2.3191,-2.4402,-2.4646,-2.4166,-2.3322,-2.3033,-2.4411,-2.5636,-2.5397,-2.5301,-2.5535,-2.5496,-2.5247,-2.5873,-2.6848,-2.7145,-2.7201,-2.6694,-2.6544,-2.6771,-2.6866,-2.6553,-2.6521,-2.6521,-2.6521,-2.6521,-2.6521,-2.6521,-2.6521,-2.6521,-2.6521,-2.6521,-2.6521,-0.8038,-0.8038,-0.8038,-0.8038,-0.8038,-0.8038,-0.8038,-0.8038,-0.8038,-0.8038,-0.8038,-0.8038,-0.824,-0.8542,-0.8535,-0.8733,-0.9034,-0.8928,-0.9027,-0.9331,-0.9232,-0.9133,-0.9236,-0.9529,-0.9628,-0.9624,-0.9723,-0.9821,-0.9916,-1.0792,-1.1268,-1.137,-1.2052,-1.2727,-1.2926,-1.3811,-1.4196,-1.4586,-1.535,-1.573,-1.5825,-1.5825,-1.5825,-1.5825,-1.5825,-1.5825,-1.5825,-1.5825,-1.5825,-1.5825,-1.573,-1.5635,-1.573,-1.5825,-1.5584,-1.5358,-1.5499,-1.5464,-1.5345,-1.5425,-1.5558,-1.5597,-1.5673,-1.5824,-1.6617,-1.7025,-1.7432,-1.8078,-1.8886,-1.945,-1.9923,-2.0557,-2.1195,-2.1589,-2.1655,-2.1731,-2.1863,-2.1901,-2.219,-2.2733,-2.2535,-2.2589,-2.4131,-2.5444,-2.5505,-2.4825,-2.433,-2.472,-2.5192,-2.6042,-2.6339,-2.6371,-2.6164,-2.6126,-2.582,-2.5938,-2.6905,-2.7549,-2.7675,-2.7406,-2.7001,-2.7193,-2.7118,-2.6861,-2.6527,-2.6515,-2.6533,-2.6533,-2.6533,-2.6521,-2.6521,-2.6521,-2.6521,-2.6521,-2.6521,-0.8038,-0.8038,-0.8038,-0.8038,-0.8038,-0.8038,-0.8038,-0.8038,-0.8038,-0.8038,-0.8038,-0.8038,-0.8041,-0.8237,-0.8531,-0.873,-0.8733,-0.8726,-0.8931,-0.9232,-0.9031,-0.9126,-0.9426,-0.9529,-0.9624,-0.9723,-1.0404,-1.0788,-1.0886,-1.1858,-1.2339,-1.2339,-1.263,-1.3216,-1.3806,-1.4196,-1.4682,-1.535,-1.5635,-1.5825,-1.5825,-1.5825,-1.5825,-1.5825,-1.5825,-1.5825,-1.5825,-1.5825,-1.5825,-1.5825,-1.5825,-1.5825,-1.5825,-1.5825,-1.5785,-1.5765,-1.5787,-1.5861,-1.5641,-1.5684,-1.5926,-1.6327,-1.6312,-1.6706,-1.7594,-1.8238,-1.8647,-1.9134,-1.9775,-2.0333,-2.0576,-2.0974,-2.1578,-2.2327,-2.2252,-2.2176,-2.2435,-2.22,-2.2264,-2.3576,-2.4522,-2.4979,-2.5195,-2.5778,-2.6291,-2.5889,-2.5742,-2.5763,-2.607,-2.6164,-2.6521,-2.6521,-2.6383,-2.6452,-2.644,-2.644,-2.6886,-2.7754,-2.8056,-2.818,-2.7855,-2.7788,-2.7503,-2.7188,-2.6854,-2.6696,-2.659,-2.6571,-2.6546,-2.6659,-2.6533,-2.6533,-2.6521,-2.6521,-2.6521,-0.8038,-0.8038,-0.8038,-0.8038,-0.8038,-0.8038,-0.8038,-0.8038,-0.8038,-0.8038,-0.8038,-0.8038,-0.8035,-0.8031,-0.8528,-0.8722,-0.863,-0.8726,-0.8931,-0.9229,-0.9612,-0.9809,-0.9817,-0.9916,-1.0306,-1.0404,-1.137,-1.176,-1.1955,-1.2829,-1.3318,-1.3505,-1.3794,-1.4376,-1.4867,-1.4968,-1.5159,-1.573,-1.5825,-1.5825,-1.5825,-1.5825,-1.5825,-1.5825,-1.5825,-1.5825,-1.5825,-1.5825,-1.5825,-1.5825,-1.5825,-1.5825,-1.5825,-1.5825,-1.5825,-1.5818,-1.5923,-1.5846,-1.5908,-1.6075,-1.6492,-1.6854,-1.7056,-1.7683,-1.8407,-1.9054,-1.9381,-1.9854,-2.0333,-2.0654,-2.0886,-2.1339,-2.2231,-2.3117,-2.3043,-2.2979,-2.3401,-2.3116,-2.3385,-2.4492,-2.5612,-2.635,-2.584,-2.6268,-2.6395,-2.6433,-2.6302,-2.6358,-2.6452,-2.6521,-2.6521,-2.6521,-2.6521,-2.6521,-2.6521,-2.6521,-2.6917,-2.777,-2.8486,-2.8635,-2.8459,-2.828,-2.7905,-2.7557,-2.7185,-2.6972,-2.6992,-2.6987,-2.6974,-2.6961,-2.6735,-2.6502,-2.6502,-2.6464,-2.6509,-0.8038,-0.8038,-0.8038,-0.8038,-0.8038,-0.8038,-0.8038,-0.8038,-0.8038,-0.8038,-0.8038,-0.8038,-0.8035,-0.8024,-0.8528,-0.8726,-0.873,-0.8726,-0.8928,-0.9422,-1.0199,-1.0592,-1.0109,-1.0984,-1.1272,-1.1468,-1.2339,-1.2823,-1.3119,-1.3908,-1.4394,-1.458,-1.5248,-1.5635,-1.5635,-1.573,-1.5825,-1.5825,-1.5825,-1.5825,-1.5825,-1.5825,-1.5825,-1.5825,-1.5825,-1.5825,-1.5825,-1.5825,-1.5825,-1.5825,-1.5825,-1.5825,-1.5825,-1.5825,-1.5825,-1.5893,-1.5992,-1.619,-1.6301,-1.6798,-1.7262,-1.7662,-1.8023,-1.8487,-1.9213,-1.9539,-1.9854,-2.0411,-2.0576,-2.0722,-2.1098,-2.1832,-2.2947,-2.3902,-2.412,-2.4192,-2.4279,-2.4247,-2.4413,-2.5322,-2.6107,-2.6383,-2.6521,-2.6521,-2.6452,-2.649,-2.6521,-2.6521,-2.6521,-2.6521,-2.6521,-2.6521,-2.6521,-2.6521,-2.6521,-2.6521,-2.7105,-2.7858,-2.8737,-2.9063,-2.8913,-2.8662,-2.8335,-2.7974,-2.7918,-2.7843,-2.777,-2.7742,-2.7553,-2.7293,-2.6976,-2.6689,-2.6489,-2.6511,-2.6491,-0.8038,-0.8038,-0.8038,-0.8038,-0.8038,-0.8038,-0.8038,-0.8038,-0.8038,-0.8038,-0.8038,-0.8038,-0.8038,-0.8035,-0.8329,-0.8333,-0.8336,-0.8432,-0.863,-0.9122,-1.0489,-1.1077,-1.1077,-1.195,-1.2339,-1.2635,-1.3511,-1.3902,-1.4196,-1.4867,-1.5445,-1.554,-1.554,-1.5825,-1.5825,-1.5825,-1.5825,-1.5825,-1.5825,-1.5825,-1.5825,-1.5825,-1.5825,-1.5825,-1.5825,-1.5825,-1.5825,-1.5825,-1.5825,-1.5825,-1.5825,-1.5927,-1.5825,-1.592,-1.592,-1.6089,-1.6793,-1.7276,-1.7364,-1.7978,-1.8617,-1.9094,-1.9102,-1.9371,-2.0167,-2.0255,-2.0333,-2.0576,-2.0654,-2.0876,-2.17,-2.2649,-2.3683,-2.4564,-2.5004,-2.5288,-2.5603,-2.4907,-2.4907,-2.5787,-2.6314,-2.6521,-2.6521,-2.6521,-2.6521,-2.6521,-2.6521,-2.6521,-2.6521,-2.6521,-2.6521,-2.6521,-2.6521,-2.6533,-2.6571,-2.6659,-2.7201,-2.7708,-2.8536,-2.9391,-2.9252,-2.9076,-2.8712,-2.8648,-2.8807,-2.8695,-2.8473,-2.8172,-2.7934,-2.7613,-2.7209,-2.6865,-2.6692,-2.6599,-2.6912,-0.8038,-0.8038,-0.8038,-0.8038,-0.8038,-0.8038,-0.8038,-0.8134,-0.8137,-0.8137,-0.8035,-0.8134,-0.8137,-0.8038,-0.8233,-0.8336,-0.8336,-0.8634,-0.9027,-0.9706,-1.1072,-1.2145,-1.2732,-1.3505,-1.3992,-1.3703,-1.4478,-1.4968,-1.5159,-1.5445,-1.573,-1.5825,-1.5825,-1.5825,-1.5825,-1.5825,-1.5825,-1.5825,-1.5825,-1.5825,-1.5825,-1.5825,-1.5825,-1.5825,-1.5825,-1.5825,-1.5825,-1.5825,-1.5825,-1.5927,-1.6407,-1.6407,-1.6116,-1.6407,-1.6602,-1.677,-1.7498,-1.8264,-1.856,-1.8974,-1.9582,-2.0126,-2.0068,-2.0258,-2.0488,-2.0576,-2.0576,-2.0576,-2.0722,-2.1098,-2.2446,-2.3475,-2.4492,-2.5312,-2.5746,-2.6037,-2.622,-2.5738,-2.5469,-2.6277,-2.6452,-2.6521,-2.6521,-2.6521,-2.6521,-2.6521,-2.6521,-2.6521,-2.6521,-2.6521,-2.6521,-2.6521,-2.6521,-2.6546,-2.6609,-2.6823,-2.7188,-2.7654,-2.8072,-2.8997,-2.9474,-2.9301,-2.9051,-2.9164,-2.9314,-2.9303,-2.9101,-2.875,-2.8374,-2.8163,-2.7828,-2.7238,-2.7237,-2.7861,-2.8252,-0.8021,-0.8038,-0.8038,-0.8038,-0.8038,-0.8038,-0.8134,-0.8333,-0.8432,-0.823,-0.8127,-0.8329,-0.8237,-0.8041,-0.8237,-0.8333,-0.8432,-0.8832,-0.9324,-1.0194,-1.1658,-1.2829,-1.3806,-1.4771,-1.5159,-1.4682,-1.5255,-1.5635,-1.573,-1.5825,-1.5825,-1.5825,-1.5825,-1.5825,-1.5825,-1.5825,-1.5825,-1.5825,-1.5825,-1.5825,-1.5825,-1.5825,-1.5825,-1.5825,-1.5825,-1.5825,-1.5825,-1.5825,-1.592,-1.6116,-1.7189,-1.7174,-1.6878,-1.7276,-1.7938,-1.7613,-1.8511,-1.9131,-1.9587,-1.9944,-2.0381,-2.0585,-2.0731,-2.0784,-2.0722,-2.0625,-2.0576,-2.0799,-2.0944,-2.1756,-2.3158,-2.4192,-2.5087,-2.5828,-2.6258,-2.6383,-2.6465,-2.6465,-2.6396,-2.644,-2.6521,-2.6521,-2.6521,-2.6521,-2.6521,-2.6521,-2.6521,-2.6521,-2.6521,-2.6521,-2.6521,-2.6521,-2.6521,-2.6521,-2.6584,-2.6647,-2.7062,-2.7427,-2.7733,-2.8328,-2.9177,-2.8971,-2.8812,-2.9479,-2.9681,-2.9655,-2.9541,-2.9277,-2.895,-2.875,-2.8537,-2.8213,-2.8537,-2.9183,-2.9343,-0.8024,-0.8038,-0.8038,-0.8038,-0.8038,-0.8038,-0.8137,-0.8333,-0.8432,-0.8333,-0.8333,-0.8333,-0.8233,-0.8038,-0.8038,-0.8038,-0.8336,-0.8829,-0.9612,-1.0587,-1.195,-1.3125,-1.4292,-1.5159,-1.5452,-1.5642,-1.573,-1.5825,-1.5825,-1.5825,-1.5825,-1.5825,-1.5825,-1.5825,-1.5825,-1.5825,-1.5825,-1.5825,-1.5825,-1.5825,-1.5825,-1.5825,-1.5825,-1.5825,-1.5825,-1.5832,-1.5927,-1.592,-1.6204,-1.6958,-1.7564,-1.7916,-1.8265,-1.8968,-1.906,-1.8912,-1.943,-2.0158,-2.0468,-2.0828,-2.1395,-2.1655,-2.1355,-2.1067,-2.0985,-2.0879,-2.0742,-2.1098,-2.1918,-2.2947,-2.3829,-2.4779,-2.5382,-2.5758,-2.591,-2.6119,-2.627,-2.6377,-2.6458,-2.6465,-2.6452,-2.6521,-2.6521,-2.6521,-2.6521,-2.6521,-2.6521,-2.6521,-2.6521,-2.6521,-2.6521,-2.6521,-2.6521,-2.6521,-2.6533,-2.6584,-2.6785,-2.7112,-2.7369,-2.7544,-2.8138,-2.8293,-2.8499,-2.9089,-2.9542,-2.9628,-2.9603,-2.9578,-2.9541,-2.9288,-2.9276,-2.9187,-2.9378,-2.9542,-2.963,-0.7955,-0.7926,-0.8004,-0.8038,-0.8038,-0.8038,-0.8137,-0.8333,-0.8432,-0.8432,-0.8432,-0.8333,-0.8233,-0.8038,-0.8038,-0.8233,-0.8825,-0.9418,-1.0297,-1.156,-1.2533,-1.3511,-1.4586,-1.5255,-1.554,-1.573,-1.5825,-1.5825,-1.5825,-1.5825,-1.5825,-1.5825,-1.5825,-1.5825,-1.5825,-1.5825,-1.5825,-1.5825,-1.5825,-1.5825,-1.5825,-1.5825,-1.5825,-1.5825,-1.592,-1.6109,-1.6581,-1.6581,-1.7037,-1.7963,-1.8603,-1.9063,-1.9629,-2.0119,-2.0425,-1.9903,-2.0439,-2.1087,-2.1257,-2.1511,-2.1733,-2.2074,-2.1662,-2.1351,-2.1267,-2.1124,-2.1114,-2.1706,-2.266,-2.3683,-2.412,-2.5004,-2.5535,-2.5606,-2.5746,-2.598,-2.6156,-2.6357,-2.6458,-2.6477,-2.6465,-2.6521,-2.6521,-2.6521,-2.6521,-2.6521,-2.6521,-2.6521,-2.6521,-2.6521,-2.6521,-2.6521,-2.6521,-2.6521,-2.6521,-2.6477,-2.6502,-2.6791,-2.6992,-2.7168,-2.7419,-2.7648,-2.8072,-2.8573,-2.9026,-2.9401,-2.9704,-2.9691,-2.9754,-2.9779,-2.9666,-2.9514,-2.9691,-2.9806,-2.9807,-0.7852,-0.7821,-0.7943,-0.8011,-0.8035,-0.8038,-0.8137,-0.8333,-0.8432,-0.8432,-0.8432,-0.8333,-0.8233,-0.8137,-0.8333,-0.8825,-0.9706,-1.0207,-1.1375,-1.2441,-1.3119,-1.3998,-1.4975,-1.5261,-1.5445,-1.573,-1.573,-1.5737,-1.5825,-1.5825,-1.5825,-1.5825,-1.5825,-1.5825,-1.5825,-1.5825,-1.5825,-1.5825,-1.5825,-1.5825,-1.5825,-1.5825,-1.592,-1.6109,-1.6109,-1.6574,-1.7512,-1.7606,-1.8149,-1.8964,-1.9588,-2.0116,-2.0619,-2.1275,-2.1365,-2.0898,-2.1365,-2.1731,-2.182,-2.1811,-2.1831,-2.2217,-2.1978,-2.1671,-2.1461,-2.1491,-2.1771,-2.2498,-2.335,-2.4192,-2.4492,-2.5075,-2.5453,-2.5535,-2.5676,-2.584,-2.6005,-2.6181,-2.6332,-2.6433,-2.6465,-2.6521,-2.6521,-2.6521,-2.6521,-2.6521,-2.6521,-2.6521,-2.6521,-2.6521,-2.6521,-2.6521,-2.6521,-2.6521,-2.6521,-2.6521,-2.6477,-2.6634,-2.6691,-2.6791,-2.6997,-2.7226,-2.7833,-2.8386,-2.855,-2.8973,-2.9349,-2.9792,-2.9804,-2.9804,-2.9792,-2.9779,-2.9779,-2.9779,-2.9819,-0.7476,-0.7811,-0.7828,-0.7916,-0.8024,-0.8035,-0.8137,-0.8333,-0.8333,-0.8432,-0.8333,-0.8333,-0.8233,-0.8233,-0.9019,-0.9414,-1.0002,-1.0979,-1.2052,-1.3119,-1.3312,-1.4088,-1.5159,-1.4975,-1.5255,-1.5635,-1.5642,-1.5635,-1.573,-1.5825,-1.5825,-1.5825,-1.5825,-1.5825,-1.5825,-1.5825,-1.5825,-1.5825,-1.5825,-1.5825,-1.5825,-1.5825,-1.6197,-1.6763,-1.7138,-1.7598,-1.8427,-1.8703,-1.9163,-1.9977,-2.0158,-2.0709,-2.1365,-2.1544,-2.1651,-2.1562,-2.1651,-2.1731,-2.1741,-2.1741,-2.19,-2.2155,-2.2063,-2.1882,-2.1811,-2.1964,-2.24,-2.3503,-2.4013,-2.4409,-2.4862,-2.5241,-2.5312,-2.5382,-2.5465,-2.5535,-2.5688,-2.6005,-2.6156,-2.6308,-2.6421,-2.6465,-2.6521,-2.6521,-2.6521,-2.6521,-2.6521,-2.6521,-2.6452,-2.644,-2.6477,-2.649,-2.6465,-2.6465,-2.6521,-2.6521,-2.6521,-2.6521,-2.6477,-2.6483,-2.6789,-2.7155,-2.7863,-2.835,-2.8424,-2.8758,-2.9334,-2.9649,-2.9739,-2.9739,-2.9727,-2.9714,-2.9779,-2.9779,-2.9792,-0.7272,-0.7577,-0.774,-0.7848,-0.7919,-0.8001,-0.8038,-0.8137,-0.8134,-0.8137,-0.8134,-0.8137,-0.8141,-0.8233,-0.9118,-0.9899,-1.0681,-1.1755,-1.2829,-1.3607,-1.3811,-1.4196,-1.4777,-1.4879,-1.5064,-1.5445,-1.554,-1.5642,-1.573,-1.5825,-1.5825,-1.5825,-1.5825,-1.5825,-1.5825,-1.5825,-1.5825,-1.5825,-1.5825,-1.5825,-1.5825,-1.592,-1.6298,-1.7239,-1.7333,-1.8241,-1.9247,-1.9704,-2.0167,-2.0898,-2.1087,-2.1275,-2.1553,-2.1731,-2.1731,-2.1731,-2.1731,-2.1731,-2.1731,-2.1731,-2.1909,-2.2167,-2.2127,-2.2102,-2.2073,-2.2501,-2.3338,-2.4545,-2.4694,-2.4945,-2.5158,-2.5312,-2.5312,-2.5312,-2.5312,-2.5394,-2.5535,-2.57,-2.5853,-2.6156,-2.6364,-2.6421,-2.6465,-2.6465,-2.6452,-2.6521,-2.6452,-2.6465,-2.6371,-2.6208,-2.6339,-2.6483,-2.6446,-2.6339,-2.6465,-2.6521,-2.6521,-2.6452,-2.6452,-2.6534,-2.6698,-2.711,-2.7828,-2.8349,-2.8528,-2.8926,-2.9353,-2.9518,-2.9633,-2.9608,-2.9584,-2.9649,-2.9727,-2.9792,-2.9792,-0.721,-0.7339,-0.759,-0.774,-0.7818,-0.794,-0.8004,-0.8038,-0.8038,-0.8038,-0.8038,-0.8038,-0.8038,-0.8333,-0.941,-1.0485,-1.1268,-1.2533,-1.3414,-1.41,-1.4298,-1.4394,-1.4682,-1.4688,-1.4879,-1.5356,-1.5255,-1.5356,-1.5547,-1.5642,-1.5642,-1.5825,-1.5825,-1.5825,-1.5825,-1.5825,-1.5825,-1.5825,-1.5825,-1.592,-1.6204,-1.6204,-1.7037,-1.7684,-1.8241,-1.8888,-2.0348,-2.0628,-2.1087,-2.1454,-2.1642,-2.1642,-2.1731,-2.1731,-2.1731,-2.1731,-2.1731,-2.1731,-2.1731,-2.1731,-2.183,-2.2148,-2.2495,-2.264,-2.2443,-2.3222,-2.4209,-2.5119,-2.5159,-2.5194,-2.5312,-2.5312,-2.5312,-2.5312,-2.5312,-2.5394,-2.5465,-2.5618,-2.57,-2.591,-2.6131,-2.6364,-2.6408,-2.6465,-2.6465,-2.6452,-2.6465,-2.6477,-2.6302,-2.6057,-2.6082,-2.6226,-2.6377,-2.6433,-2.6759,-2.6734,-2.664,-2.6452,-2.6452,-2.6449,-2.6599,-2.7029,-2.7705,-2.8182,-2.8565,-2.8748,-2.8986,-2.9217,-2.9436,-2.9361,-2.93,-2.9584,-2.9661,-2.9727,-2.9792,-0.7146,-0.717,-0.7336,-0.7556,-0.7801,-0.7821,-0.7909,-0.8018,-0.8031,-0.8038,-0.8038,-0.8038,-0.8038,-0.8528,-0.9998,-1.1072,-1.1365,-1.3318,-1.4004,-1.4202,-1.4298,-1.449,-1.449,-1.4592,-1.4586,-1.4981,-1.4975,-1.4975,-1.5083,-1.5267,-1.5452,-1.573,-1.573,-1.5825,-1.5825,-1.573,-1.573,-1.573,-1.5825,-1.6292,-1.6763,-1.7225,-1.8056,-1.9521,-2.0068,-2.0538,-2.1553,-2.1463,-2.1463,-2.1731,-2.1731,-2.1731,-2.1731,-2.1731,-2.1731,-2.1731,-2.1731,-2.1731,-2.1731,-2.1731,-2.183,-2.2249,-2.2803,-2.3347,-2.3423,-2.4183,-2.4895,-2.5213,-2.5278,-2.5265,-2.5312,-2.5312,-2.5312,-2.5312,-2.5312,-2.5312,-2.5382,-2.5453,-2.5606,-2.5676,-2.5828,-2.6062,-2.6213,-2.6258,-2.6396,-2.6396,-2.6446,-2.6471,-2.6188,-2.6,-2.5824,-2.5918,-2.6188,-2.6527,-2.7161,-2.7054,-2.6502,-2.6314,-2.6314,-2.634,-2.6432,-2.694,-2.7629,-2.8159,-2.8591,-2.853,-2.8578,-2.8852,-2.9022,-2.8961,-2.9106,-2.9287,-2.9584,-2.9764,-2.9817,-0.7139,-0.7146,-0.7204,-0.735,-0.7556,-0.7733,-0.7845,-0.7909,-0.7997,-0.8038,-0.8038,-0.8038,-0.8333,-0.9217,-1.0391,-1.156,-1.2242,-1.3607,-1.4196,-1.4298,-1.4298,-1.4394,-1.44,-1.4394,-1.449,-1.479,-1.4688,-1.4783,-1.5083,-1.5083,-1.5178,-1.5363,-1.5547,-1.5635,-1.5635,-1.5635,-1.5635,-1.573,-1.5913,-1.6473,-1.6943,-1.7684,-1.8603,-2.0068,-2.0249,-2.0808,-2.1544,-2.1642,-2.1731,-2.1731,-2.1731,-2.1731,-2.1731,-2.1731,-2.1731,-2.1731,-2.1731,-2.1731,-2.1731,-2.1731,-2.1998,-2.2677,-2.3361,-2.3991,-2.4588,-2.5226,-2.5258,-2.5342,-2.5326,-2.5384,-2.5312,-2.5312,-2.5312,-2.5312,-2.5312,-2.5312,-2.5312,-2.5382,-2.5453,-2.5606,-2.5688,-2.584,-2.598,-2.605,-2.6188,-2.627,-2.6332,-2.637,-2.6144,-2.6107,-2.6082,-2.5951,-2.6126,-2.6539,-2.7224,-2.6777,-2.6258,-2.6245,-2.6258,-2.6164,-2.6224,-2.6856,-2.7466,-2.8041,-2.8518,-2.8486,-2.8498,-2.8474,-2.8554,-2.8712,-2.8858,-2.8991,-2.93,-2.9686,-2.9752,-0.7139,-0.7139,-0.7139,-0.7231,-0.74,-0.7641,-0.7773,-0.7838,-0.7977,-0.8038,-0.8038,-0.8038,-0.863,-0.9809,-1.0993,-1.1863,-1.2737,-1.3703,-1.4202,-1.4298,-1.4298,-1.4298,-1.4298,-1.4298,-1.4394,-1.4592,-1.4592,-1.4688,-1.4783,-1.4885,-1.4879,-1.4879,-1.507,-1.5261,-1.5452,-1.5635,-1.5724,-1.5818,-1.6285,-1.6835,-1.7498,-1.8234,-1.898,-2.0257,-2.0628,-2.0907,-2.1365,-2.1553,-2.1731,-2.1731,-2.1731,-2.1731,-2.1731,-2.1731,-2.1731,-2.1731,-2.1731,-2.1731,-2.1731,-2.1998,-2.253,-2.3464,-2.4307,-2.5301,-2.6105,-2.6366,-2.6171,-2.5347,-2.5432,-2.548,-2.5396,-2.5312,-2.5312,-2.5312,-2.5312,-2.5312,-2.5312,-2.5382,-2.5382,-2.5453,-2.5606,-2.5676,-2.5664,-2.5804,-2.598,-2.6062,-2.6124,-2.6275,-2.6283,-2.6339,-2.6515,-2.6358,-2.6296,-2.6761,-2.7152,-2.6714,-2.6377,-2.6508,-2.6458,-2.5936,-2.6092,-2.6697,-2.7424,-2.8168,-2.8486,-2.851,-2.8498,-2.8486,-2.8498,-2.851,-2.8621,-2.873,-2.9028,-2.9337,-2.9506,-0.7139,-0.7139,-0.7139,-0.7227,-0.7366,-0.7533,-0.7675,-0.7804,-0.7967,-0.8038,-0.8038,-0.8035,-0.8829,-1.0113,-1.1389,-1.236,-1.3028,-1.3908,-1.4298,-1.4298,-1.4298,-1.4298,-1.4298,-1.4298,-1.4298,-1.4298,-1.4394,-1.44,-1.4394,-1.4496,-1.4394,-1.449,-1.4783,-1.507,-1.5178,-1.5825,-1.6096,-1.6285,-1.6857,-1.7684,-1.8419,-1.898,-1.9629,-2.0283,-2.0826,-2.1096,-2.1096,-2.1365,-2.1553,-2.1553,-2.1642,-2.1731,-2.1731,-2.1731,-2.1731,-2.1731,-2.1731,-2.1731,-2.182,-2.2451,-2.3309,-2.4251,-2.5009,-2.6163,-2.758,-2.7715,-2.6913,-2.5871,-2.5739,-2.5685,-2.5528,-2.5312,-2.5312,-2.5312,-2.5312,-2.5312,-2.5312,-2.5312,-2.5382,-2.5382,-2.5453,-2.5511,-2.5487,-2.5487,-2.5676,-2.5783,-2.5902,-2.6029,-2.6258,-2.679,-2.7114,-2.6914,-2.6744,-2.6863,-2.7159,-2.6815,-2.6565,-2.6696,-2.6621,-2.6142,-2.6063,-2.6578,-2.7358,-2.8306,-2.8498,-2.851,-2.851,-2.851,-2.851,-2.851,-2.8518,-2.8652,-2.887,-2.8973,-2.9131,-0.7139,-0.7139,-0.7139,-0.717,-0.7238,-0.7383,-0.7533,-0.7699,-0.7913,-0.8038,-0.8031,-0.8007,-0.8784,-1.0164,-1.1653,-1.2834,-1.3715,-1.3908,-1.4298,-1.4298,-1.4298,-1.4298,-1.4298,-1.4298,-1.4298,-1.4298,-1.4298,-1.4298,-1.4298,-1.4298,-1.4298,-1.4394,-1.4867,-1.5439,-1.573,-1.6008,-1.6103,-1.6662,-1.7318,-1.787,-1.8527,-1.9171,-1.982,-2.0292,-2.0654,-2.0736,-2.0645,-2.1006,-2.1186,-2.1284,-2.1374,-2.1642,-2.1642,-2.1651,-2.1651,-2.1731,-2.1731,-2.1998,-2.2618,-2.3396,-2.4251,-2.4935,-2.5443,-2.6418,-2.7405,-2.7458,-2.6924,-2.6458,-2.6122,-2.5889,-2.5444,-2.5336,-2.5312,-2.5312,-2.5312,-2.5312,-2.5312,-2.5312,-2.5312,-2.5312,-2.5382,-2.5382,-2.5358,-2.5417,-2.5535,-2.5591,-2.566,-2.6013,-2.6277,-2.7304,-2.7946,-2.7587,-2.732,-2.7249,-2.7203,-2.7316,-2.7359,-2.7576,-2.7073,-2.6327,-2.6422,-2.6764,-2.7591,-2.8652,-2.8566,-2.851,-2.851,-2.851,-2.851,-2.8486,-2.853,-2.8493,-2.8676,-2.8664,-2.8706,-0.7139,-0.7139,-0.7139,-0.7139,-0.7166,-0.7309,-0.7663,-0.8149,-0.8358,-0.8361,-0.8079,-0.8058,-0.9445,-1.1244,-1.2543,-1.3216,-1.4304,-1.4298,-1.4298,-1.4298,-1.4298,-1.4298,-1.4298,-1.4298,-1.4298,-1.4298,-1.4298,-1.4298,-1.4298,-1.4298,-1.449,-1.4777,-1.5248,-1.5906,-1.6379,-1.6756,-1.6756,-1.7318,-1.7785,-1.8257,-1.8719,-1.9188,-1.9646,-1.9828,-2.0011,-2.0292,-2.0283,-2.0456,-2.0727,-2.0826,-2.1006,-2.1365,-2.1374,-2.1463,-2.1553,-2.1642,-2.2008,-2.253,-2.357,-2.4176,-2.4861,-2.5285,-2.56,-2.6124,-2.6749,-2.7002,-2.7372,-2.7121,-2.6542,-2.6104,-2.5625,-2.5505,-2.5312,-2.5312,-2.5312,-2.5312,-2.5312,-2.5312,-2.5312,-2.5312,-2.5312,-2.5312,-2.5312,-2.5382,-2.5465,-2.546,-2.5477,-2.5946,-2.6546,-2.7837,-2.8772,-2.8439,-2.8422,-2.8726,-2.8621,-2.8383,-2.84,-2.8448,-2.7866,-2.7119,-2.684,-2.716,-2.8118,-2.8821,-2.8724,-2.8681,-2.851,-2.851,-2.8578,-2.8578,-2.8498,-2.8542,-2.8493,-2.8481,-2.8536,-0.7139,-0.7139,-0.7139,-0.7139,-0.7166,-0.7382,-0.8155,-0.9295,-0.9319,-0.8895,-0.8192,-0.8384,-1.029,-1.3585,-1.4207,-1.4165,-1.431,-1.4304,-1.4298,-1.4298,-1.4298,-1.4298,-1.4298,-1.4298,-1.4298,-1.4298,-1.4298,-1.4298,-1.4298,-1.449,-1.4873,-1.5248,-1.5622,-1.6473,-1.7124,-1.7591,-1.7598,-1.7971,-1.8257,-1.8635,-1.8819,-1.9188,-1.9279,-1.9371,-1.9554,-1.9737,-1.982,-2.0011,-2.0192,-2.0292,-2.0382,-2.0637,-2.0907,-2.0997,-2.1275,-2.1731,-2.2362,-2.3484,-2.4251,-2.468,-2.5211,-2.5644,-2.6041,-2.6213,-2.6251,-2.664,-2.7105,-2.7152,-2.6718,-2.6336,-2.6007,-2.5577,-2.5253,-2.5241,-2.5312,-2.5312,-2.5312,-2.5312,-2.5312,-2.5312,-2.5312,-2.5312,-2.5312,-2.5312,-2.5715,-2.5926,-2.6169,-2.6697,-2.749,-2.8904,-2.9592,-2.9295,-2.955,-3.0319,-3.006,-2.949,-2.922,-2.9167,-2.8992,-2.8413,-2.805,-2.7907,-2.8855,-2.9353,-2.8998,-2.8864,-2.8931,-2.8816,-2.87,-2.8688,-2.8555,-2.8518,-2.8536,-2.8542,-2.8542,-0.7139,-0.7139,-0.7139,-0.7139,-0.7234,-0.7893,-0.8481,-0.895,-0.9084,-0.942,-1.0245,-1.0301,-1.1874,-1.4201,-1.4262,-1.4322,-1.431,-1.4298,-1.4298,-1.4298,-1.4298,-1.4298,-1.4298,-1.4298,-1.4298,-1.4298,-1.4298,-1.4298,-1.449,-1.4682,-1.5057,-1.5439,-1.6372,-1.7217,-1.7692,-1.8164,-1.835,-1.8442,-1.8727,-1.8735,-1.8827,-1.9004,-1.892,-1.9004,-1.9096,-1.9188,-1.9279,-1.9554,-1.9737,-1.9828,-2.0456,-2.0898,-2.0907,-2.1275,-2.1642,-2.182,-2.2687,-2.3714,-2.4241,-2.5031,-2.5728,-2.5822,-2.6063,-2.6063,-2.6102,-2.6389,-2.678,-2.6634,-2.6523,-2.6118,-2.5718,-2.5418,-2.5195,-2.5194,-2.5182,-2.5241,-2.5241,-2.5312,-2.5312,-2.5312,-2.5312,-2.5384,-2.5372,-2.5788,-2.6122,-2.6466,-2.6987,-2.7544,-2.8451,-2.9848,-3.0297,-2.9997,-3.0362,-3.1053,-3.0887,-3.0322,-3.006,-2.9841,-2.9712,-2.9676,-2.9631,-2.9592,-2.996,-2.9946,-2.9702,-2.9571,-2.944,-2.9378,-2.9303,-2.8725,-2.859,-2.8499,-2.8524,-2.8573,-2.853,-0.7139,-0.7139,-0.7139,-0.7316,-0.7753,-0.8281,-0.8962,-0.97,-0.9976,-1.0828,-1.2066,-1.2323,-1.3136,-1.41,-1.4268,-1.4304,-1.4304,-1.4298,-1.4298,-1.4298,-1.4298,-1.4298,-1.4298,-1.4298,-1.4298,-1.4298,-1.4298,-1.4298,-1.458,-1.5057,-1.5534,-1.6466,-1.7404,-1.7785,-1.8164,-1.8542,-1.8735,-1.8735,-1.8827,-1.8827,-1.8827,-1.8827,-1.8827,-1.8827,-1.8827,-1.8827,-1.8827,-1.9188,-1.9279,-1.9279,-2.0002,-2.0275,-2.0456,-2.0997,-2.2069,-2.2413,-2.3193,-2.4145,-2.4765,-2.5369,-2.5812,-2.5895,-2.5895,-2.5895,-2.5979,-2.6102,-2.6195,-2.6091,-2.5893,-2.5664,-2.5454,-2.5191,-2.5168,-2.5076,-2.5123,-2.517,-2.5241,-2.5312,-2.5312,-2.5312,-2.5372,-2.5468,-2.5707,-2.6208,-2.6785,-2.7402,-2.8042,-2.869,-2.9591,-3.0771,-3.0978,-3.0661,-3.1094,-3.1608,-3.1342,-3.109,-3.0882,-3.0673,-3.0611,-3.0654,-3.0892,-3.079,-3.0572,-3.0533,-3.047,-3.0241,-3.0011,-3.005,-2.9935,-2.9479,-2.9328,-2.9655,-2.9524,-2.8963,-2.8844,-0.7139,-0.7139,-0.7231,-0.7841,-0.8544,-0.8803,-0.9763,-1.1343,-1.1558,-1.2321,-1.3308,-1.3829,-1.3926,-1.4123,-1.4194,-1.4208,-1.4232,-1.4256,-1.4298,-1.4298,-1.4298,-1.4298,-1.4298,-1.4298,-1.4394,-1.4394,-1.4382,-1.4459,-1.4758,-1.5425,-1.6567,-1.7684,-1.7785,-1.8164,-1.8542,-1.8735,-1.8827,-1.8827,-1.8827,-1.8827,-1.8827,-1.8827,-1.8827,-1.8827,-1.8827,-1.8827,-1.8827,-1.8827,-1.8827,-1.8827,-1.9012,-1.9279,-2.0093,-2.0637,-2.1961,-2.2931,-2.3531,-2.4317,-2.502,-2.5644,-2.5812,-2.5895,-2.5895,-2.5895,-2.5979,-2.5979,-2.5909,-2.5848,-2.5717,-2.5723,-2.5506,-2.5043,-2.483,-2.4783,-2.4811,-2.4968,-2.5052,-2.5182,-2.5312,-2.5277,-2.5314,-2.5517,-2.6441,-2.6996,-2.8231,-2.871,-2.8718,-2.9371,-3.0539,-3.1662,-3.155,-3.1287,-3.1599,-3.1951,-3.1847,-3.1669,-3.1709,-3.1603,-3.1394,-3.1439,-3.1576,-3.1307,-3.1035,-3.096,-3.0973,-3.081,-3.0633,-3.0696,-3.0771,-3.0631,-3.0631,-3.1042,-3.075,-2.9999,-2.963,-0.7139,-0.7228,-0.7845,-0.8715,-0.9579,-1.0366,-1.1235,-1.2357,-1.2416,-1.2598,-1.291,-1.3106,-1.3345,-1.364,-1.3882,-1.3908,-1.4051,-1.4183,-1.428,-1.4298,-1.4298,-1.4298,-1.4298,-1.4298,-1.458,-1.4848,-1.4823,-1.4797,-1.5481,-1.6445,-1.7217,-1.7777,-1.8071,-1.8635,-1.8735,-1.8827,-1.8827,-1.8827,-1.8827,-1.8827,-1.8827,-1.8827,-1.8827,-1.8827,-1.8827,-1.8827,-1.8827,-1.8827,-1.8827,-1.8827,-1.9288,-1.9828,-2.0637,-2.0817,-2.1713,-2.2775,-2.3541,-2.4231,-2.5031,-2.5644,-2.5812,-2.5895,-2.5895,-2.5895,-2.5895,-2.5895,-2.5841,-2.5782,-2.5689,-2.5717,-2.5497,-2.4936,-2.4525,-2.4585,-2.4588,-2.4774,-2.4885,-2.5076,-2.5265,-2.5302,-2.5278,-2.6021,-2.6904,-2.8261,-2.9502,-2.9613,-2.8975,-2.9295,-3.0895,-3.1996,-3.2027,-3.1802,-3.1897,-3.2128,-3.2096,-3.2096,-3.2009,-3.2009,-3.1863,-3.2025,-3.2152,-3.187,-3.1562,-3.1421,-3.132,-3.132,-3.132,-3.1629,-3.1629,-3.1482,-3.1495,-3.1641,-3.179,-3.1241,-3.0859,-0.7139,-0.7228,-0.8105,-0.9148,-1.0188,-1.0977,-1.1585,-1.2106,-1.2528,-1.2703,-1.2691,-1.2791,-1.3016,-1.3279,-1.3513,-1.3716,-1.3882,-1.4045,-1.4189,-1.4262,-1.4292,-1.4298,-1.4298,-1.4298,-1.4771,-1.5134,-1.5488,-1.5853,-1.6504,-1.7095,-1.7692,-1.8156,-1.8635,-1.8827,-1.8827,-1.8827,-1.8827,-1.8827,-1.8827,-1.8827,-1.8827,-1.8827,-1.8827,-1.8827,-1.8827,-1.8827,-1.8827,-1.8827,-1.8827,-1.8827,-1.9104,-1.9463,-2.0002,-2.0266,-2.1168,-2.2315,-2.3183,-2.3877,-2.485,-2.5475,-2.5812,-2.5812,-2.5895,-2.5895,-2.5895,-2.5895,-2.5895,-2.587,-2.5848,-2.576,-2.551,-2.5036,-2.4647,-2.4517,-2.4442,-2.4505,-2.4707,-2.4929,-2.5217,-2.5431,-2.5656,-2.6234,-2.7607,-2.9839,-3.0837,-3.0784,-3.0025,-3.0125,-3.1541,-3.2169,-3.2169,-3.2169,-3.2169,-3.2169,-3.2169,-3.2169,-3.2169,-3.2169,-3.2169,-3.2177,-3.2199,-3.2226,-3.2098,-3.1844,-3.179,-3.1863,-3.2023,-3.2096,-3.2096,-3.1936,-3.2023,-3.2123,-3.2169,-3.2169,-3.1743,-0.721,-0.7408,-0.8193,-0.9327,-1.0463,-1.1068,-1.1322,-1.1494,-1.2095,-1.2558,-1.2629,-1.2715,-1.2692,-1.278,-1.2974,-1.3391,-1.3588,-1.3719,-1.3874,-1.4183,-1.4274,-1.4292,-1.4298,-1.4394,-1.4962,-1.5717,-1.6466,-1.6915,-1.7461,-1.7956,-1.8257,-1.8735,-1.8827,-1.8827,-1.8827,-1.8827,-1.8827,-1.8827,-1.8827,-1.8827,-1.8827,-1.8827,-1.8827,-1.8827,-1.8827,-1.8827,-1.8827,-1.8827,-1.8827,-1.8827,-1.892,-1.9279,-1.9554,-1.9903,-2.0881,-2.1854,-2.2648,-2.3704,-2.4765,-2.5391,-2.5644,-2.5812,-2.5895,-2.5906,-2.5906,-2.5906,-2.5906,-2.5895,-2.5874,-2.5753,-2.5497,-2.5146,-2.4847,-2.4603,-2.4457,-2.4385,-2.4671,-2.4865,-2.5055,-2.5366,-2.6151,-2.6657,-2.8363,-3.0651,-3.1501,-3.1474,-3.1629,-3.1936,-3.2169,-3.2169,-3.2169,-3.2169,-3.2169,-3.2169,-3.2169,-3.2169,-3.2169,-3.2169,-3.2169,-3.2169,-3.2196,-3.2177,-3.2191,-3.215,-3.2169,-3.2109,-3.2109,-3.2169,-3.2169,-3.2169,-3.2169,-3.2169,-3.2169,-3.2169,-3.2169,-0.757,-0.8312,-0.8899,-0.9414,-1.012,-1.0982,-1.1322,-1.1322,-1.1499,-1.1963,-1.2267,-1.1894,-1.1548,-1.1543,-1.191,-1.2294,-1.2875,-1.3101,-1.3572,-1.3884,-1.4159,-1.425,-1.4388,-1.4657,-1.5242,-1.6285,-1.7419,-1.8257,-1.8234,-1.8434,-1.8635,-1.8827,-1.8827,-1.8827,-1.8827,-1.8827,-1.8827,-1.8827,-1.8827,-1.8827,-1.8827,-1.8827,-1.8827,-1.8827,-1.8827,-1.8827,-1.8827,-1.8827,-1.8827,-1.8827,-1.8827,-1.9096,-1.9279,-1.9546,-2.0348,-2.132,-2.212,-2.3173,-2.4145,-2.5031,-2.538,-2.5644,-2.5728,-2.5906,-2.5906,-2.5906,-2.5906,-2.5895,-2.5884,-2.5884,-2.5622,-2.5338,-2.5073,-2.4944,-2.4892,-2.4748,-2.4824,-2.4711,-2.4765,-2.5658,-2.6788,-2.7459,-2.8449,-3.0314,-3.1744,-3.1787,-3.189,-3.2196,-3.2182,-3.2169,-3.2182,-3.2169,-3.2169,-3.2169,-3.2169,-3.2169,-3.2169,-3.2169,-3.2169,-3.2169,-3.2169,-3.2169,-3.2169,-3.2169,-3.2169,-3.2169,-3.2169,-3.2169,-3.2169,-3.2169,-3.2169,-3.2169,-3.2169,-3.2169,-3.2169]}]]